[[{"header":{"parameterUnit":"m.s-1","parameterCategory":1,"la1":31.0,"la2":29.5877,"lo1":-88.7671,"lo2":-86.6584,"dy":0.0162,"dx":0.0185,"nx":115,"ny":88,"refTime":"2023-11-11T18:00:00:Z","depth":0,"parameterNumber":2,"parameterNumberName":"U-component_of_WINDS"},"data":[0.0,0.0,0.0,0.0,0.0,0.0,0.0,0.0,0.0,0.0,0.0,0.0,0.0,0.0,0.0,0.0,0.0,0.0,0.0,0.0,0.0,0.0,0.0,0.0,0.0,0.0,0.0,0.0,0.0,0.0,0.0,0.0,0.0,0.0,0.0,0.0,0.0,0.0,0.0,0.0,0.0,0.0,0.0,0.0,0.0,0.0,0.0,0.0,0.0,0.0,0.0,0.0,0.0,0.0,0.0,0.0,0.0,0.0,0.0,0.0,0.0,0.0,0.0,0.0,0.0,0.0,0.0,0.0,0.0,0.0,0.0,0.0,0.0,0.0,0.0,0.0,0.0,0.0,0.0,0.0,0.0,0.0,0.0,0.0,0.0,0.0,0.0,0.0,0.0,0.0,0.0,0.0,0.0,0.0,0.0,0.0,0.0,0.0,0.0,0.0,0.0,0.0,0.0,0.0,0.0,0.0,0.0,0.0,0.0,0.0,0.0,0.0,0.0,0.0,0.0,0.0,0.0,0.0,0.0,0.0,0.0,0.0,0.0,0.0,0.0,0.0,0.0,0.0,0.0,0.0,0.0,0.0,0.0,0.0,0.0,0.0,0.0,0.0,0.0,0.0,0.0,0.0,0.0,0.0,0.0,0.0,0.0,0.0,0.0,0.0,0.0,0.0,0.0,0.0,0.0,0.0,0.0,0.0,0.0,0.0,0.0,0.0,0.0,0.0,0.0,0.0,0.0,0.0,0.0,0.0,0.0,0.0,0.0,0.0,0.0,0.0,0.0,0.0,0.0,0.0,0.0,0.0,0.0,0.0,0.0,0.0,0.0,0.0,0.0,0.0,0.0,0.0,0.0,0.0,0.0,0.0,0.0,0.0,0.0,0.0,0.0,0.0,0.0,0.0,0.0,0.0,0.0,0.0,0.0,0.0,0.0,0.0,0.0,0.0,0.0,0.0,0.0,0.0,0.0,0.0,0.0,0.0,0.0,0.0,0.0,0.0,0.0,0.0,0.0,0.0,0.0,0.0,0.0,0.0,0.0,0.0,0.0,0.0,0.0,0.0,0.0,0.0,0.0,0.0,0.0,0.0,0.0,0.0,0.0,0.0,0.0,0.0,0.0,0.0,0.0,0.0,0.0,0.0,0.0,0.0,0.0,0.0,0.0,0.0,0.0,0.0,0.0,0.0,0.0,0.0,0.0,0.0,0.0,0.0,0.0,0.0,0.0,0.0,0.0,0.0,0.0,0.0,0.0,0.0,0.0,0.0,0.0,0.0,0.0,0.0,0.0,0.0,0.0,0.0,0.0,0.0,0.0,0.0,0.0,0.0,0.0,0.0,0.0,0.0,0.0,0.0,0.0,0.0,0.0,0.0,0.0,0.0,0.0,0.0,0.0,0.0,0.0,0.0,0.0,0.0,0.0,0.0,0.0,0.0,0.0,0.0,0.0,0.0,0.0,0.0,0.0,0.0,0.0,0.0,0.0,0.0,0.0,0.0,0.0,0.0,0.0,0.0,0.0,0.0,0.0,0.0,0.0,0.0,0.0,0.0,0.0,0.0,0.0,0.0,0.0,0.0,0.0,0.0,0.0,0.0,0.0,0.0,0.0,0.0,0.0,0.0,0.0,0.0,0.0,0.0,0.0,0.0,0.0,0.0,0.0,0.0,0.0,0.0,0.0,0.0,0.0,0.0,0.0,0.0,0.0,0.0,0.0,0.0,0.0,0.0,0.0,0.0,0.0,0.0,0.0,0.0,0.0,0.0,0.0,0.0,0.0,0.0,0.0,0.0,0.0,0.0,0.0,0.0,0.0,0.0,0.0,0.0,0.0,0.0,0.0,0.0,0.0,0.0,0.0,0.0,0.0,0.0,0.0,0.0,0.0,0.0,0.0,0.0,0.0,0.0,0.0,0.0,0.0,0.0,0.0,0.0,0.0,0.0,0.0,0.0,0.0,0.0,0.0,0.0,0.0,0.0,0.0,0.0,0.0,0.0,0.0,0.0,0.0,0.0,0.0,0.0,0.0,0.0,0.0,0.0,0.0,0.0,0.0,0.0,0.0,0.0,0.0,0.0,0.0,0.0,0.0,0.0,0.0,0.0,0.0,0.0,0.0,0.0,0.0,0.0,0.0,0.0,0.0,0.0,0.0,0.0,0.0,0.0,0.0,0.0,0.0,0.0,0.0,0.0,0.0,0.0,0.0,0.0,0.0,0.0,0.0,0.0,0.0,0.0,0.0,0.0,0.0,0.0,0.0,0.0,0.0,0.0,0.0,0.0,0.0,0.0,0.0,0.0,0.0,0.0,0.0,0.0,0.0,0.0,0.0,0.0,0.0,0.0,0.0,0.0,0.0,0.0,0.0,0.0,0.0,0.0,0.0,0.0,0.0,0.0,0.0,0.0,0.0,0.0,0.0,0.0,0.0,0.0,0.0,0.0,0.0,0.0,0.0,0.0,0.0,0.0,0.0,0.0,0.0,0.0,0.0,0.0,0.0,0.0,0.0,0.0,0.0,0.0,0.0,0.0,0.0,0.0,0.0,0.0,0.0,0.0,0.0,0.0,0.0,0.0,0.0,0.0,0.0,0.0,0.0,0.0,0.0,0.0,0.0,0.0,0.0,0.0,0.0,0.0,0.0,0.0,0.0,0.0,0.0,0.0,0.0,0.0,0.0,0.0,0.0,0.0,0.0,0.0,0.0,0.0,0.0,0.0,0.0,0.0,0.0,0.0,0.0,0.0,0.0,0.0,0.0,0.0,0.0,0.0,0.0,0.0,0.0,0.0,0.0,0.0,0.0,0.0,0.0,0.0,0.0,0.0,0.0,0.0,0.0,0.0,0.0,0.0,0.0,0.0,0.0,0.0,0.0,0.0,0.0,0.0,0.0,0.0,0.0,0.0,0.0,0.0,0.0,0.0,0.0,0.0,0.0,0.0,0.0,0.0,0.0,0.0,0.0,0.0,0.0,0.0,0.0,0.0,0.0,0.0,0.0,0.0,0.0,0.0,0.0,0.0,0.0,0.0,0.0,0.0,0.0,0.0,0.0,0.0,0.0,0.0,0.0,0.0,0.0,0.0,0.0,0.0,0.0,0.0,0.0,0.0,0.0,0.0,0.0,0.0,0.0,0.0,0.0,0.0,0.0,0.0,0.0,0.0,0.0,0.0,0.0,0.0,0.0,0.0,0.0,0.0,0.0,0.0,0.0,0.0,0.0,0.0,0.0,0.0,0.0,0.0,0.0,0.0,0.0,0.0,0.0,0.0,0.0,0.0,0.0,0.0,0.0,0.0,0.0,0.0,0.0,0.0,0.0,0.0,0.0,0.0,0.0,0.0,0.0,0.0,0.0,0.0,0.0,0.0,0.0,0.0,0.0,0.0,0.0,0.0,0.0,0.0,0.0,0.0,0.0,0.0,0.0,0.0,0.0,0.0,0.0,0.0,0.0,0.0,0.0,0.0,0.0,0.0,0.0,0.0,0.0,0.0,0.0,0.0,0.0,0.0,0.0,0.0,0.0,0.0,0.0,0.0,0.0,0.0,0.0,0.0,0.0,0.0,0.0,0.0,0.0,0.0,0.0,0.0,0.0,0.0,0.0,0.0,0.0,0.0,0.0,0.0,0.0,0.0,0.0,0.0,0.0,0.0,0.0,0.0,0.0,0.0,0.0,0.0,0.0,0.0,0.0,0.0,0.0,0.0,0.0,0.0,0.0,0.0,0.0,0.0,0.0,0.0,0.0,0.0,0.0,0.0,0.0,0.0,0.0,0.0,0.0,0.0,0.0,0.0,0.0,0.0,0.0,0.0,0.0,0.0,0.0,0.0,0.0,0.0,0.0,0.0,0.0,0.0,0.0,0.0,0.0,0.0,0.0,0.0,0.0,0.0,0.0,0.0,0.0,0.0,0.0,0.0,0.0,0.0,0.0,0.0,0.0,0.0,0.0,0.0,0.0,0.0,0.0,0.0,0.0,0.0,0.0,0.0,0.0,0.0,0.0,0.0,0.0,0.0,0.0,0.0,0.0,0.0,0.0,0.0,0.0,0.0,0.0,0.0,0.0,0.0,0.0,0.0,0.0,0.0,0.0,0.0,0.0,0.0,0.0,0.0,0.0,0.0,0.0,0.0,0.0,0.0,0.0,0.0,0.0,0.0,0.0,0.0,0.0,0.0,0.0,0.0,0.0,0.0,0.0,0.0,0.0,0.0,0.0,0.0,0.0,0.0,0.0,0.0,0.0,0.0,0.0,0.0,0.0,0.0,0.0,0.0,0.0,0.0,0.0,0.0,2.2809,0.0,0.0,0.0,0.0,0.0,0.0,0.0,0.0,0.0,0.0,0.0,0.0,0.0,0.0,0.0,0.0,0.0,0.0,0.0,0.0,0.0,0.0,0.0,0.0,0.0,0.0,0.0,0.0,0.0,0.0,0.0,0.0,0.0,0.0,0.0,0.0,0.0,0.0,0.0,0.0,0.0,0.0,0.0,0.0,0.0,0.0,0.0,0.0,0.0,0.0,0.0,0.0,0.0,0.0,0.0,0.0,0.0,0.0,0.0,0.0,0.0,0.0,0.0,0.0,0.0,0.0,0.0,0.0,0.0,0.0,0.0,0.0,0.0,0.0,0.0,0.0,0.0,0.0,0.0,0.0,0.0,0.0,0.0,0.0,0.0,0.0,0.0,0.0,0.0,0.0,0.0,0.0,0.0,0.0,0.0,0.0,0.0,0.0,0.0,0.0,0.0,0.0,0.0,0.0,0.0,0.0,0.0,0.0,0.0,0.0,2.3818,2.4176,2.3433,2.3011,2.3006,0.0,0.0,0.0,0.0,0.0,0.0,0.0,0.0,0.0,0.0,0.0,0.0,0.0,0.0,0.0,0.0,0.0,0.0,0.0,0.0,0.0,0.0,0.0,0.0,0.0,0.0,0.0,0.0,0.0,0.0,0.0,0.0,0.0,0.0,0.0,0.0,0.0,0.0,0.0,0.0,0.0,0.0,0.0,0.0,0.0,0.0,0.0,0.0,0.0,0.0,0.0,0.0,0.0,0.0,0.0,0.0,0.0,0.0,0.0,0.0,0.0,0.0,0.0,0.0,0.0,0.0,0.0,0.0,0.0,0.0,0.0,0.0,0.0,0.0,0.0,0.0,0.0,0.0,0.0,0.0,0.0,0.0,0.0,0.0,0.0,0.0,0.0,0.0,0.0,0.0,0.0,0.0,0.0,0.0,0.0,0.0,0.0,0.0,0.0,0.0,0.0,0.0,0.0,0.0,0.0,0.0,0.0,0.0,0.0,0.0,0.0,0.0,2.4497,2.4001,2.3808,0.0,0.0,0.0,0.0,0.0,0.0,0.0,0.0,0.0,0.0,0.0,0.0,0.0,0.0,0.0,0.0,0.0,0.0,0.0,0.0,0.0,0.0,0.0,0.0,0.0,0.0,0.0,0.0,0.0,0.0,0.0,0.0,0.0,0.0,0.0,0.0,0.0,0.0,0.0,0.0,0.0,0.0,0.0,0.0,0.0,0.0,0.0,0.0,0.0,0.0,0.0,0.0,0.0,0.0,0.0,0.0,0.0,0.0,0.0,0.0,0.0,0.0,0.0,0.0,0.0,0.0,0.0,0.0,0.0,0.0,0.0,0.0,0.0,0.0,0.0,0.0,0.0,0.0,0.0,0.0,0.0,0.0,0.0,0.0,0.0,0.0,0.0,0.0,0.0,0.0,0.0,0.0,0.0,0.0,0.0,0.0,0.0,0.0,0.0,0.0,0.0,0.0,0.0,0.0,0.0,0.0,0.0,0.0,0.0,0.0,2.5585,2.8455,2.775,0.0,2.6216,0.0,0.0,0.0,0.0,0.0,0.0,0.0,0.0,0.0,0.0,0.0,0.0,0.0,0.0,0.0,0.0,0.0,0.0,0.0,0.0,0.0,0.0,0.0,0.0,0.0,0.0,0.0,0.0,0.0,0.0,0.0,0.0,0.0,0.0,0.0,0.0,0.0,0.0,0.0,0.0,0.0,0.0,0.0,0.0,0.0,0.0,0.0,0.0,0.0,0.0,0.0,0.0,0.0,0.0,0.0,0.0,0.0,0.0,0.0,0.0,0.0,0.0,0.0,0.0,0.0,0.0,0.0,0.0,0.0,0.0,0.0,0.0,0.0,0.0,0.0,0.0,0.0,0.0,0.0,0.0,0.0,0.0,0.0,0.0,0.0,0.0,0.0,0.0,0.0,0.0,0.0,0.0,0.0,0.0,0.0,0.0,0.0,0.0,0.0,0.0,0.0,0.0,0.0,0.0,0.0,0.0,0.0,0.0,0.0,0.0,2.5993,2.8222,2.7525,2.6502,0.0,0.0,0.0,0.0,0.0,0.0,0.0,0.0,0.0,0.0,0.0,0.0,0.0,0.0,0.0,0.0,0.0,0.0,0.0,0.0,0.0,0.0,0.0,0.0,0.0,0.0,0.0,0.0,0.0,0.0,0.0,0.0,0.0,0.0,0.0,0.0,0.0,0.0,0.0,0.0,0.0,0.0,0.0,0.0,0.0,0.0,0.0,0.0,0.0,0.0,0.0,0.0,0.0,0.0,0.0,0.0,0.0,0.0,0.0,0.0,0.0,0.0,0.0,0.0,0.0,0.0,0.0,0.0,0.0,0.0,0.0,0.0,0.0,0.0,0.0,0.0,0.0,0.0,0.0,0.0,0.0,0.0,0.0,0.0,0.0,0.0,0.0,0.0,0.0,0.0,0.0,0.0,0.0,0.0,0.0,0.0,0.0,0.0,0.0,0.0,0.0,0.0,0.0,0.0,0.0,0.0,0.0,0.0,0.0,0.0,2.5883,2.6507,2.7934,2.6479,2.5152,2.4231,0.0,0.0,0.0,0.0,0.0,0.0,0.0,0.0,0.0,0.0,0.0,0.0,0.0,0.0,0.0,0.0,0.0,0.0,0.0,0.0,0.0,0.0,0.0,0.0,0.0,0.0,0.0,0.0,0.0,0.0,0.0,0.0,0.0,0.0,0.0,0.0,0.0,0.0,0.0,0.0,0.0,0.0,0.0,0.0,0.0,0.0,0.0,0.0,0.0,0.0,0.0,0.0,0.0,0.0,0.0,0.0,0.0,0.0,0.0,0.0,0.0,0.0,0.0,0.0,0.0,0.0,0.0,0.0,0.0,0.0,0.0,0.0,0.0,0.0,0.0,0.0,0.0,0.0,0.0,0.0,0.0,0.0,0.0,0.0,0.0,0.0,0.0,0.0,0.0,0.0,0.0,0.0,0.0,0.0,0.0,0.0,0.0,0.0,0.0,0.0,0.0,0.0,0.0,0.0,0.0,0.0,0.0,0.0,3.0589,2.8026,2.7304,2.8761,2.5207,2.3483,0.0,0.0,0.0,0.0,0.0,0.0,0.0,0.0,0.0,0.0,0.0,0.0,0.0,0.0,0.0,0.0,0.0,0.0,0.0,0.0,0.0,0.0,0.0,0.0,0.0,0.0,0.0,0.0,0.0,0.0,0.0,0.0,0.0,0.0,0.0,0.0,0.0,0.0,0.0,0.0,0.0,0.0,0.0,0.0,0.0,0.0,0.0,0.0,0.0,0.0,0.0,0.0,0.0,0.0,0.0,0.0,0.0,0.0,0.0,0.0,0.0,0.0,0.0,0.0,0.0,0.0,0.0,0.0,0.0,0.0,0.0,0.0,0.0,0.0,0.0,0.0,0.0,0.0,0.0,0.0,0.0,0.0,0.0,0.0,0.0,0.0,0.0,0.0,0.0,0.0,0.0,0.0,0.0,0.0,0.0,0.0,0.0,0.0,0.0,0.0,0.0,0.0,0.0,0.0,0.0,0.0,0.0,0.0,0.0,2.5897,2.5878,2.6599,2.8044,2.5328,2.4135,0.0,0.0,0.0,0.0,0.0,0.0,0.0,0.0,0.0,0.0,0.0,0.0,0.0,0.0,0.0,0.0,0.0,0.0,0.0,0.0,0.0,0.0,0.0,0.0,0.0,0.0,0.0,0.0,0.0,0.0,0.0,0.0,0.0,0.0,0.0,0.0,0.0,0.0,0.0,0.0,0.0,0.0,0.0,0.0,0.0,0.0,0.0,0.0,0.0,0.0,0.0,0.0,0.0,0.0,0.0,0.0,0.0,0.0,0.0,0.0,0.0,0.0,0.0,0.0,0.0,0.0,0.0,0.0,0.0,0.0,0.0,0.0,0.0,0.0,0.0,0.0,0.0,0.0,0.0,0.0,0.0,0.0,0.0,0.0,0.0,0.0,0.0,0.0,0.0,0.0,0.0,0.0,0.0,0.0,0.0,0.0,0.0,0.0,0.0,0.0,0.0,0.0,0.0,0.0,0.0,0.0,0.0,0.0,0.0,2.4534,0.0,2.6715,2.6911,2.4929,2.3666,0.0,0.0,0.0,0.0,0.0,0.0,0.0,0.0,0.0,0.0,0.0,0.0,0.0,0.0,0.0,0.0,0.0,0.0,0.0,0.0,0.0,0.0,0.0,0.0,0.0,0.0,0.0,0.0,0.0,0.0,0.0,0.0,0.0,0.0,0.0,0.0,0.0,0.0,0.0,0.0,0.0,0.0,0.0,0.0,0.0,0.0,0.0,0.0,0.0,0.0,0.0,0.0,0.0,0.0,0.0,0.0,0.0,0.0,0.0,0.0,0.0,0.0,0.0,0.0,0.0,0.0,0.0,0.0,0.0,0.0,0.0,0.0,0.0,0.0,0.0,0.0,0.0,0.0,0.0,0.0,0.0,0.0,0.0,0.0,0.0,0.0,0.0,0.0,0.0,0.0,0.0,0.0,0.0,0.0,0.0,0.0,0.0,0.0,0.0,0.0,0.0,0.0,0.0,0.0,0.0,0.0,0.0,0.0,2.4534,2.7517,2.8339,2.7642,2.5526,2.385,2.178,0.0,0.0,0.0,0.0,0.0,0.0,0.0,0.0,0.0,0.0,0.0,0.0,0.0,0.0,0.0,0.0,0.0,0.0,0.0,0.0,0.0,0.0,0.0,0.0,0.0,0.0,0.0,0.0,0.0,0.0,0.0,0.0,0.0,0.0,0.0,0.0,0.0,0.0,0.0,0.0,0.0,0.0,0.0,0.0,0.0,0.0,0.0,0.0,0.0,0.0,0.0,0.0,0.0,0.0,0.0,0.0,0.0,0.0,0.0,0.0,0.0,0.0,0.0,0.0,0.0,0.0,0.0,0.0,0.0,0.0,0.0,0.0,0.0,0.0,0.0,0.0,0.0,0.0,0.0,0.0,0.0,0.0,0.0,0.0,0.0,0.0,0.0,0.0,0.0,0.0,0.0,0.0,0.0,0.0,0.0,0.0,0.0,0.0,0.0,0.0,0.0,0.0,0.0,0.0,0.0,0.0,0.0,0.0,0.0,2.451,2.5056,2.5894,2.6859,2.3115,2.2179,0.0,0.0,0.0,0.0,0.0,0.0,0.0,0.0,0.0,0.0,0.0,0.0,0.0,0.0,0.0,0.0,0.0,0.0,0.0,0.0,0.0,0.0,0.0,0.0,0.0,0.0,0.0,0.0,0.0,0.0,0.0,0.0,0.0,0.0,0.0,0.0,0.0,0.0,0.0,0.0,0.0,0.0,0.0,0.0,0.0,0.0,0.0,0.0,0.0,0.0,0.0,0.0,0.0,0.0,0.0,0.0,0.0,0.0,0.0,0.0,0.0,0.0,0.0,0.0,0.0,0.0,0.0,0.0,0.0,0.0,0.0,0.0,0.0,0.0,0.0,0.0,0.0,0.0,0.0,0.0,0.0,0.0,0.0,0.0,0.0,0.0,0.0,0.0,0.0,0.0,0.0,0.0,0.0,0.0,0.0,0.0,0.0,0.0,0.0,0.0,0.0,0.0,0.0,0.0,0.0,0.0,0.0,0.0,0.0,2.5028,2.527,2.5998,2.7148,2.357,2.26,2.454,0.0,0.0,0.0,0.0,0.0,0.0,0.0,0.0,0.0,0.0,0.0,0.0,0.0,0.0,0.0,0.0,0.0,0.0,0.0,0.0,0.0,0.0,0.0,0.0,0.0,0.0,0.0,0.0,0.0,0.0,0.0,0.0,0.0,0.0,0.0,0.0,0.0,0.0,0.0,0.0,0.0,0.0,0.0,0.0,0.0,0.0,0.0,0.0,0.0,0.0,0.0,0.0,0.0,0.0,0.0,0.0,0.0,0.0,0.0,0.0,0.0,0.0,0.0,0.0,0.0,0.0,0.0,0.0,0.0,0.0,0.0,0.0,0.0,0.0,0.0,0.0,0.0,0.0,0.0,0.0,0.0,0.0,0.0,0.0,0.0,0.0,0.0,0.0,0.0,0.0,0.0,0.0,0.0,0.0,0.0,0.0,0.0,0.0,0.0,0.0,0.0,0.0,0.0,0.0,0.0,0.0,0.0,0.0,2.8279,2.8429,2.7786,2.6339,2.4954,2.3141,0.0,0.0,0.0,0.0,0.0,0.0,0.0,0.0,0.0,0.0,0.0,0.0,0.0,0.0,0.0,0.0,0.0,0.0,0.0,0.0,0.0,0.0,0.0,0.0,0.0,0.0,0.0,0.0,0.0,0.0,0.0,0.0,0.0,0.0,0.0,0.0,0.0,0.0,0.0,0.0,0.0,0.0,0.0,0.0,0.0,0.0,0.0,0.0,0.0,0.0,0.0,0.0,0.0,0.0,0.0,0.0,0.0,0.0,0.0,0.0,0.0,0.0,0.0,0.0,0.0,0.0,0.0,0.0,0.0,0.0,0.0,0.0,0.0,0.0,0.0,0.0,0.0,0.0,0.0,0.0,0.0,0.0,0.0,0.0,0.0,0.0,0.0,0.0,0.0,0.0,0.0,0.0,0.0,0.0,0.0,0.0,0.0,0.0,0.0,0.0,0.0,0.0,0.0,0.0,0.0,0.0,0.0,0.0,0.0,2.915,2.9735,2.9453,2.8227,2.5435,2.3944,0.0,0.0,0.0,0.0,0.0,0.0,0.0,0.0,0.0,0.0,0.0,0.0,0.0,0.0,0.0,0.0,0.0,0.0,0.0,0.0,0.0,0.0,0.0,0.0,0.0,0.0,0.0,0.0,0.0,0.0,0.0,0.0,0.0,0.0,0.0,0.0,0.0,0.0,0.0,0.0,0.0,0.0,0.0,0.0,0.0,0.0,0.0,0.0,0.0,0.0,0.0,0.0,0.0,0.0,0.0,0.0,0.0,0.0,0.0,0.0,0.0,0.0,0.0,0.0,0.0,0.0,0.0,0.0,0.0,0.0,0.0,0.0,0.0,0.0,0.0,0.0,0.0,0.0,0.0,0.0,0.0,0.0,0.0,0.0,0.0,0.0,0.0,0.0,0.0,0.0,0.0,0.0,0.0,0.0,0.0,0.0,0.0,0.0,0.0,0.0,0.0,0.0,0.0,0.0,0.0,0.0,0.0,0.0,2.9305,3.0462,3.1228,3.1088,2.9944,2.7366,2.547,0.0,0.0,0.0,0.0,0.0,0.0,0.0,0.0,0.0,0.0,0.0,0.0,0.0,0.0,0.0,0.0,0.0,0.0,0.0,0.0,0.0,0.0,0.0,0.0,0.0,0.0,0.0,0.0,0.0,0.0,0.0,0.0,0.0,0.0,0.0,0.0,0.0,0.0,0.0,0.0,0.0,0.0,0.0,0.0,0.0,0.0,0.0,0.0,0.0,0.0,0.0,0.0,0.0,0.0,0.0,0.0,0.0,0.0,0.0,0.0,0.0,0.0,0.0,0.0,0.0,0.0,0.0,0.0,0.0,0.0,0.0,0.0,0.0,0.0,0.0,0.0,0.0,0.0,0.0,0.0,0.0,0.0,0.0,0.0,0.0,0.0,0.0,0.0,0.0,0.0,0.0,0.0,0.0,0.0,0.0,0.0,0.0,0.0,0.0,0.0,0.0,0.0,0.0,0.0,0.0,0.0,0.0,0.0,3.0385,3.1872,3.2719,3.2553,3.1331,2.9606,2.7071,0.0,0.0,0.0,0.0,0.0,0.0,0.0,0.0,0.0,0.0,0.0,0.0,0.0,0.0,0.0,0.0,0.0,0.0,0.0,0.0,0.0,0.0,0.0,0.0,0.0,0.0,0.0,0.0,0.0,0.0,0.0,0.0,0.0,0.0,0.0,0.0,0.0,0.0,0.0,0.0,0.0,0.0,0.0,0.0,0.0,0.0,0.0,0.0,0.0,0.0,0.0,0.0,0.0,0.0,0.0,0.0,0.0,0.0,0.0,0.0,0.0,0.0,0.0,0.0,0.0,0.0,0.0,0.0,0.0,0.0,0.0,0.0,0.0,0.0,0.0,0.0,0.0,0.0,0.0,0.0,0.0,0.0,0.0,0.0,0.0,0.0,0.0,0.0,0.0,0.0,0.0,0.0,0.0,0.0,0.0,0.0,0.0,0.0,0.0,0.0,0.0,0.0,0.0,0.0,0.0,0.0,0.0,0.0,3.1288,3.2565,3.3625,3.3498,3.209,2.8578,2.5932,0.0,0.0,0.0,0.0,0.0,0.0,0.0,0.0,0.0,0.0,0.0,0.0,0.0,0.0,0.0,0.0,0.0,0.0,0.0,0.0,0.0,0.0,0.0,0.0,0.0,0.0,0.0,0.0,0.0,0.0,0.0,0.0,0.0,0.0,0.0,0.0,0.0,0.0,0.0,0.0,0.0,0.0,0.0,0.0,0.0,0.0,0.0,0.0,1.9515,0.0,0.0,0.0,0.0,0.0,0.0,0.0,0.0,0.0,0.0,0.0,0.0,0.0,0.0,0.0,0.0,0.0,0.0,0.0,0.0,0.0,0.0,0.0,0.0,0.0,0.0,0.0,0.0,0.0,0.0,0.0,0.0,0.0,0.0,0.0,0.0,0.0,0.0,0.0,0.0,0.0,0.0,0.0,0.0,0.0,0.0,0.0,0.0,0.0,0.0,0.0,0.0,0.0,0.0,0.0,0.0,0.0,0.0,0.0,3.1707,3.3027,3.3664,3.344,3.2222,2.8073,2.545,0.0,0.0,0.0,0.0,0.0,0.0,0.0,0.0,0.0,0.0,0.0,0.0,0.0,0.0,0.0,0.0,0.0,0.0,0.0,0.0,0.0,0.0,0.0,0.0,0.0,0.0,0.0,0.0,0.0,0.0,0.0,0.0,0.0,0.0,0.0,0.0,0.0,0.0,0.0,0.0,0.0,0.0,0.0,0.0,0.0,0.0,0.0,0.0,0.0,0.0,0.0,0.0,0.0,0.0,0.0,0.0,0.0,0.0,0.0,0.0,0.0,0.0,0.0,0.0,0.0,0.0,0.0,0.0,0.0,0.0,0.0,0.0,0.0,0.0,0.0,0.0,0.0,0.0,0.0,0.0,0.0,0.0,0.0,0.0,0.0,0.0,0.0,0.0,0.0,0.0,0.0,0.0,0.0,0.0,0.0,0.0,0.0,0.0,0.0,0.0,0.0,0.0,0.0,0.0,0.0,0.0,0.0,3.0187,3.1893,3.3658,3.3632,3.318,3.2266,2.7877,2.5346,2.5009,0.0,0.0,0.0,0.0,0.0,0.0,0.0,0.0,0.0,0.0,0.0,0.0,0.0,0.0,0.0,0.0,0.0,0.0,0.0,0.0,0.0,0.0,0.0,0.0,0.0,0.0,0.0,0.0,0.0,0.0,0.0,0.0,0.0,0.0,0.0,0.0,0.0,0.0,2.0004,1.9084,0.0,0.0,0.0,0.0,0.0,0.0,0.0,0.0,1.9784,0.0,0.0,0.0,0.0,0.0,0.0,0.0,0.0,0.0,0.0,0.0,0.0,0.0,0.0,0.0,0.0,0.0,0.0,0.0,0.0,0.0,0.0,0.0,0.0,0.0,0.0,0.0,0.0,0.0,0.0,0.0,0.0,0.0,0.0,0.0,0.0,0.0,0.0,0.0,0.0,0.0,0.0,0.0,0.0,0.0,0.0,0.0,0.0,0.0,0.0,0.0,0.0,0.0,0.0,0.0,0.0,3.2437,3.1255,3.2103,3.5131,3.4641,3.3687,3.2239,2.8203,2.5683,2.4951,0.0,0.0,0.0,0.0,0.0,0.0,0.0,0.0,0.0,0.0,0.0,0.0,0.0,0.0,0.0,0.0,0.0,0.0,0.0,0.0,0.0,0.0,0.0,0.0,0.0,0.0,0.0,0.0,0.0,0.0,0.0,0.0,0.0,0.0,0.0,0.0,0.0,0.0,0.0,1.9329,1.9604,0.0,0.0,0.0,0.0,0.0,0.0,0.0,0.0,1.9074,0.0,0.0,0.0,0.0,0.0,0.0,0.0,0.0,0.0,0.0,0.0,0.0,0.0,0.0,0.0,0.0,0.0,0.0,0.0,0.0,0.0,0.0,0.0,0.0,0.0,0.0,0.0,0.0,0.0,0.0,0.0,0.0,0.0,0.0,0.0,0.0,0.0,0.0,0.0,0.0,0.0,0.0,0.0,0.0,0.0,0.0,0.0,0.0,0.0,0.0,0.0,0.0,0.0,0.0,0.0,3.1385,3.1697,3.2828,3.4923,3.4303,3.3061,3.1173,2.7508,2.5278,0.0,0.0,0.0,0.0,0.0,0.0,0.0,0.0,0.0,0.0,0.0,0.0,0.0,0.0,0.0,0.0,0.0,0.0,0.0,0.0,0.0,0.0,0.0,0.0,0.0,0.0,0.0,0.0,0.0,0.0,0.0,0.0,0.0,0.0,0.0,0.0,0.0,0.0,0.0,0.0,1.9145,1.9349,1.9297,0.0,0.0,0.0,0.0,0.0,0.0,1.9621,1.9364,0.0,0.0,0.0,0.0,0.0,0.0,0.0,0.0,0.0,0.0,0.0,0.0,0.0,0.0,0.0,0.0,0.0,0.0,0.0,0.0,0.0,0.0,0.0,0.0,0.0,0.0,0.0,0.0,0.0,0.0,0.0,0.0,0.0,0.0,0.0,0.0,0.0,0.0,0.0,0.0,0.0,0.0,0.0,0.0,0.0,0.0,0.0,0.0,0.0,0.0,0.0,0.0,0.0,0.0,0.0,2.9776,3.1623,3.319,3.4392,3.3643,3.2111,2.9912,2.6786,2.4854,0.0,0.0,0.0,0.0,0.0,0.0,0.0,0.0,0.0,0.0,0.0,0.0,0.0,0.0,0.0,0.0,0.0,0.0,0.0,0.0,0.0,0.0,0.0,0.0,0.0,0.0,0.0,0.0,0.0,0.0,0.0,0.0,0.0,0.0,0.0,0.0,0.0,0.0,0.0,0.0,0.0,1.9367,1.9096,1.9169,0.0,0.0,0.0,0.0,1.9887,2.0004,0.0,0.0,0.0,0.0,0.0,0.0,0.0,0.0,0.0,0.0,0.0,0.0,0.0,0.0,0.0,0.0,0.0,0.0,0.0,0.0,0.0,0.0,0.0,0.0,0.0,0.0,0.0,0.0,0.0,0.0,0.0,0.0,0.0,0.0,0.0,0.0,0.0,0.0,0.0,0.0,0.0,0.0,0.0,0.0,0.0,0.0,0.0,0.0,0.0,0.0,0.0,0.0,0.0,0.0,0.0,0.0,2.9393,3.0728,3.2401,3.4313,3.3156,3.1362,2.9179,2.6784,2.491,0.0,0.0,0.0,0.0,0.0,0.0,0.0,0.0,0.0,0.0,0.0,0.0,0.0,0.0,0.0,0.0,0.0,0.0,0.0,0.0,0.0,0.0,0.0,0.0,0.0,0.0,0.0,0.0,0.0,0.0,0.0,0.0,0.0,0.0,0.0,0.0,0.0,0.0,0.0,0.0,0.0,2.0959,1.9766,2.013,2.0303,0.0,0.0,1.9917,2.0498,2.1081,0.0,0.0,0.0,0.0,0.0,0.0,0.0,0.0,0.0,0.0,0.0,0.0,0.0,0.0,0.0,0.0,0.0,0.0,0.0,0.0,0.0,0.0,0.0,0.0,0.0,0.0,0.0,0.0,0.0,0.0,0.0,0.0,0.0,0.0,0.0,0.0,0.0,0.0,0.0,0.0,0.0,0.0,0.0,0.0,0.0,0.0,0.0,0.0,0.0,0.0,0.0,0.0,0.0,0.0,0.0,2.7436,2.9403,3.1426,3.2905,3.3823,3.2852,3.1014,2.8383,2.5744,2.4052,0.0,0.0,0.0,0.0,0.0,0.0,0.0,0.0,0.0,0.0,0.0,0.0,0.0,0.0,0.0,0.0,0.0,0.0,0.0,0.0,0.0,0.0,0.0,0.0,0.0,0.0,0.0,0.0,0.0,0.0,0.0,0.0,0.0,0.0,0.0,0.0,0.0,0.0,0.0,0.0,0.0,0.0,2.0339,2.0842,0.0,0.0,0.0,2.136,2.13,0.0,0.0,0.0,0.0,0.0,0.0,0.0,0.0,0.0,0.0,0.0,0.0,0.0,0.0,0.0,0.0,0.0,0.0,0.0,0.0,0.0,0.0,0.0,0.0,0.0,0.0,0.0,0.0,0.0,0.0,0.0,0.0,0.0,0.0,0.0,0.0,0.0,0.0,0.0,0.0,0.0,0.0,0.0,0.0,0.0,0.0,0.0,0.0,0.0,0.0,0.0,0.0,0.0,0.0,0.0,0.0,0.0,2.9299,3.182,3.3119,3.3074,3.2056,3.0117,2.7308,2.4577,0.0,0.0,0.0,0.0,0.0,0.0,0.0,0.0,0.0,0.0,0.0,0.0,0.0,0.0,0.0,0.0,0.0,0.0,0.0,0.0,0.0,0.0,0.0,0.0,0.0,0.0,0.0,2.1049,0.0,0.0,0.0,0.0,0.0,0.0,0.0,0.0,0.0,0.0,0.0,0.0,0.0,0.0,2.0892,2.0728,2.1425,2.1779,0.0,0.0,2.2453,2.1794,2.1552,2.1048,0.0,0.0,0.0,0.0,0.0,0.0,0.0,0.0,0.0,0.0,0.0,0.0,0.0,0.0,0.0,0.0,0.0,0.0,0.0,0.0,0.0,0.0,0.0,0.0,0.0,0.0,0.0,0.0,0.0,0.0,0.0,0.0,0.0,0.0,0.0,0.0,0.0,0.0,0.0,0.0,0.0,0.0,0.0,0.0,0.0,0.0,0.0,0.0,0.0,0.0,0.0,0.0,0.0,0.0,2.7807,2.9038,3.1237,3.2378,3.231,3.0313,2.8121,2.5803,2.3555,2.2371,0.0,0.0,0.0,0.0,0.0,0.0,0.0,0.0,0.0,0.0,0.0,0.0,0.0,0.0,0.0,0.0,0.0,0.0,0.0,0.0,0.0,0.0,0.0,0.0,0.0,0.0,0.0,0.0,0.0,0.0,0.0,0.0,0.0,0.0,0.0,0.0,0.0,0.0,0.0,0.0,0.0,2.1425,2.0802,2.1809,2.2613,0.0,2.2643,2.2463,2.1809,2.2293,2.2075,2.0042,0.0,0.0,0.0,0.0,0.0,0.0,0.0,0.0,0.0,0.0,0.0,0.0,0.0,0.0,0.0,0.0,0.0,0.0,0.0,0.0,0.0,0.0,0.0,0.0,0.0,0.0,0.0,0.0,0.0,0.0,0.0,0.0,0.0,0.0,0.0,0.0,0.0,0.0,0.0,0.0,0.0,0.0,0.0,0.0,0.0,0.0,0.0,0.0,0.0,0.0,0.0,0.0,0.0,2.804,2.901,3.1176,3.2293,3.2209,3.0144,2.7901,2.5668,2.3028,2.1624,0.0,0.0,0.0,0.0,0.0,0.0,0.0,0.0,0.0,0.0,0.0,0.0,0.0,0.0,0.0,0.0,0.0,0.0,0.0,0.0,0.0,0.0,0.0,0.0,0.0,0.0,0.0,0.0,1.9908,1.9466,1.9017,0.0,0.0,0.0,0.0,0.0,0.0,0.0,0.0,0.0,0.0,2.2348,2.2462,2.3285,0.0,0.0,2.3595,2.3505,2.2483,2.2293,2.171,2.0084,1.9905,0.0,0.0,0.0,0.0,0.0,0.0,0.0,0.0,0.0,0.0,0.0,0.0,0.0,0.0,0.0,0.0,0.0,0.0,0.0,0.0,0.0,0.0,0.0,0.0,0.0,0.0,0.0,0.0,0.0,0.0,0.0,0.0,0.0,0.0,0.0,0.0,0.0,0.0,0.0,0.0,0.0,0.0,0.0,0.0,0.0,0.0,0.0,0.0,0.0,0.0,0.0,0.0,2.7928,2.8736,3.0703,3.1604,3.1358,2.9366,2.7342,2.5287,2.2402,2.0953,0.0,0.0,0.0,0.0,0.0,0.0,0.0,0.0,0.0,0.0,0.0,0.0,0.0,0.0,0.0,0.0,0.0,0.0,0.0,0.0,0.0,0.0,0.0,0.0,0.0,0.0,0.0,0.0,1.9491,1.9058,1.8736,0.0,0.0,0.0,0.0,0.0,0.0,0.0,0.0,0.0,0.0,2.2853,2.3276,2.4062,2.4515,2.4227,2.4586,2.4526,2.3441,2.2661,2.1743,2.0361,0.0,0.0,0.0,0.0,0.0,0.0,0.0,0.0,0.0,0.0,0.0,0.0,0.0,0.0,0.0,0.0,0.0,0.0,0.0,0.0,0.0,0.0,0.0,0.0,0.0,0.0,0.0,2.8399,0.0,0.0,2.7922,0.0,0.0,0.0,0.0,0.0,0.0,0.0,0.0,0.0,0.0,0.0,0.0,0.0,0.0,0.0,0.0,0.0,0.0,0.0,0.0,0.0,0.0,2.7336,2.8122,2.9642,3.0021,2.9312,2.7617,2.6082,2.4549,2.1627,2.0409,2.1167,0.0,0.0,0.0,0.0,0.0,0.0,0.0,0.0,0.0,0.0,0.0,0.0,0.0,0.0,0.0,0.0,0.0,0.0,0.0,0.0,0.0,0.0,0.0,0.0,0.0,0.0,2.0951,1.9602,1.8719,0.0,0.0,0.0,0.0,0.0,0.0,0.0,0.0,0.0,2.0718,2.1884,2.2703,2.2733,2.3778,2.4769,2.5393,2.5498,2.5304,2.456,2.3555,2.2378,0.0,0.0,0.0,0.0,0.0,0.0,0.0,0.0,0.0,0.0,0.0,0.0,0.0,0.0,0.0,0.0,0.0,0.0,0.0,0.0,0.0,0.0,0.0,0.0,0.0,0.0,0.0,3.0419,3.055,0.0,0.0,0.0,0.0,0.0,0.0,0.0,0.0,0.0,0.0,0.0,2.7803,2.7787,0.0,0.0,0.0,0.0,0.0,0.0,0.0,0.0,0.0,0.0,0.0,0.0,2.788,2.8697,2.9649,3.0075,2.9839,2.7808,2.5997,2.4532,2.2104,2.093,2.1173,0.0,0.0,0.0,0.0,0.0,0.0,0.0,0.0,0.0,0.0,0.0,0.0,0.0,0.0,0.0,0.0,0.0,0.0,0.0,0.0,0.0,0.0,0.0,0.0,0.0,2.0918,0.0,0.0,0.0,0.0,0.0,0.0,0.0,0.0,0.0,0.0,0.0,2.0688,2.0688,2.1854,2.2703,2.2703,2.34,2.4018,0.0,0.0,0.0,0.0,0.0,0.0,0.0,0.0,0.0,0.0,0.0,0.0,0.0,0.0,2.4255,2.2897,2.2188,2.1806,2.1817,0.0,0.0,0.0,0.0,0.0,0.0,0.0,0.0,0.0,0.0,0.0,0.0,0.0,0.0,3.0655,0.0,2.9933,0.0,0.0,0.0,0.0,0.0,0.0,0.0,0.0,2.933,2.9361,2.8388,2.8515,2.8237,0.0,2.7902,2.6903,0.0,0.0,0.0,0.0,0.0,0.0,0.0,0.0,2.7852,2.8402,2.9364,2.9622,2.9137,2.7807,2.6251,2.4525,2.2341,2.0995,2.0585,1.9648,1.9501,0.0,0.0,0.0,0.0,0.0,0.0,0.0,0.0,0.0,0.0,0.0,0.0,0.0,0.0,0.0,0.0,0.0,0.0,0.0,0.0,0.0,0.0,0.0,2.0458,0.0,0.0,0.0,0.0,0.0,0.0,0.0,0.0,0.0,2.0372,2.0563,2.0942,2.1625,2.2094,2.2513,2.2947,0.0,0.0,0.0,0.0,0.0,0.0,0.0,2.2731,2.1849,2.2956,2.3958,2.3954,2.4837,2.563,2.5869,0.0,0.0,2.2885,2.2069,2.1491,2.148,2.1728,2.187,2.1718,2.189,2.2237,0.0,0.0,0.0,0.0,0.0,0.0,0.0,0.0,2.9118,2.9584,0.0,2.9654,0.0,0.0,0.0,0.0,2.8153,3.0568,0.0,0.0,2.961,2.939,2.7487,2.7699,2.7403,2.6854,2.8676,2.8227,2.5726,2.4773,0.0,0.0,0.0,0.0,0.0,0.0,2.7216,2.7323,2.8734,2.8723,2.7365,2.758,2.6683,2.4457,2.2286,2.0653,1.9591,2.0059,2.0246,1.9938,2.0544,0.0,0.0,0.0,0.0,0.0,0.0,0.0,0.0,0.0,0.0,0.0,0.0,0.0,0.0,0.0,0.0,0.0,0.0,0.0,0.0,2.0289,0.0,0.0,0.0,0.0,0.0,0.0,0.0,0.0,0.0,0.0,2.1665,2.1191,2.146,2.3325,0.0,0.0,0.0,0.0,2.2916,2.3519,2.4197,2.4618,2.4559,2.5083,2.5064,2.3804,0.0,0.0,2.4709,2.4197,2.4062,2.4544,2.3652,2.3007,2.4352,2.3335,2.2464,2.2482,2.2388,2.2587,2.3043,2.2465,2.2002,3.6096,0.0,0.0,0.0,0.0,3.4381,3.4978,3.6152,3.4309,3.3527,3.3408,3.1545,0.0,0.0,0.0,0.0,0.0,0.0,3.0432,2.9473,3.0613,3.0801,3.0204,3.0316,3.0029,2.9415,2.952,2.8723,2.7058,2.627,2.5696,2.5274,0.0,0.0,0.0,0.0,2.7484,2.808,2.9325,2.9281,2.7858,2.7304,2.571,2.3004,2.1485,2.0782,2.0933,1.9621,1.928,2.0131,1.9655,0.0,0.0,0.0,0.0,0.0,0.0,0.0,0.0,0.0,0.0,0.0,0.0,0.0,0.0,0.0,0.0,0.0,0.0,0.0,2.029,2.0037,1.9812,0.0,0.0,0.0,0.0,0.0,0.0,0.0,0.0,0.0,2.2892,2.2528,2.2498,0.0,0.0,2.2692,2.349,2.3082,2.2916,2.3513,2.3777,0.0,2.4537,2.4769,2.4754,2.4365,2.5274,2.6183,2.6659,2.6581,2.6351,2.6004,2.4839,2.3912,2.3674,2.2359,2.1435,2.1716,2.2081,2.2496,2.3012,2.347,2.413,3.8792,3.7241,3.7047,3.7229,3.7613,3.7144,3.7398,3.7988,3.6017,3.5111,3.4942,3.3005,3.1325,2.9875,2.9491,0.0,0.0,0.0,3.147,3.1061,3.1559,3.1957,3.217,3.1727,3.1421,3.1271,3.0643,2.9804,2.8753,2.8111,2.7416,2.6676,0.0,0.0,2.6957,2.7655,2.8158,2.8444,2.9649,2.9458,2.7779,2.6483,2.4903,2.2994,2.1632,2.098,2.107,1.9759,1.9363,2.0017,1.9444,1.928,0.0,0.0,0.0,0.0,0.0,0.0,0.0,0.0,0.0,0.0,0.0,1.9723,1.9723,0.0,0.0,0.0,1.9912,2.0054,2.0054,1.9854,0.0,0.0,0.0,0.0,0.0,0.0,0.0,2.2613,2.2348,2.2562,2.3819,2.3674,2.3595,2.3943,2.3011,2.2618,2.3475,0.0,2.2598,2.3473,2.3618,2.3866,2.4496,2.5053,2.5468,2.5749,2.6435,2.6954,2.71,2.7165,2.6904,2.616,2.5162,2.4284,2.3837,2.2566,2.1696,2.2069,2.2756,2.3452,2.3973,2.4816,2.5686,4.0778,4.0184,3.9664,3.9341,3.9167,3.9285,3.8524,3.7015,3.5546,3.513,3.5488,3.3979,3.2947,3.2262,3.1598,0.0,3.0444,3.2431,3.2971,3.2397,3.2465,3.2825,3.3335,3.2168,3.1899,3.2497,3.1809,3.1241,3.0731,3.0132,2.9518,2.8904,2.8219,2.7973,2.8176,2.896,2.907,2.8463,2.9734,2.9346,2.7174,2.5374,2.424,2.3712,2.2292,2.1126,2.0348,2.0263,2.008,1.9735,1.9723,1.9675,1.963,0.0,0.0,0.0,0.0,0.0,0.0,0.0,0.0,0.0,0.0,0.0,0.0,0.0,0.0,0.0,1.9723,0.0,1.9723,1.9723,0.0,0.0,0.0,2.0793,2.0862,2.144,2.2109,2.2767,0.0,0.0,2.453,2.4679,2.4683,2.4679,2.309,2.2398,2.3665,2.2765,2.2291,2.3549,2.3727,2.3973,2.4659,2.5648,2.6539,2.7138,2.7472,2.7123,2.6654,2.6416,2.6135,2.5439,2.4766,2.4237,2.4207,2.3473,2.3105,2.3201,2.4026,2.4929,2.5473,2.6034,2.6424,4.304,4.4,4.3318,4.2061,4.0627,4.1846,4.1463,3.9919,3.8455,3.7025,3.5504,3.4099,3.305,3.2364,3.2187,3.2301,3.2646,3.3139,3.3328,3.3216,3.3231,3.3066,3.2736,3.2407,3.2347,3.2437,3.1809,3.1929,3.2721,3.2123,3.1749,3.1599,3.1894,3.0846,2.8614,2.9637,2.9676,2.8572,2.9829,2.9159,2.6509,2.4873,2.3539,2.2479,2.1241,2.0509,2.0306,2.0,1.98,1.9717,1.9723,1.9506,1.9114,1.908,0.0,0.0,0.0,0.0,0.0,0.0,0.0,0.0,0.0,2.0234,1.9753,0.0,2.0806,0.0,1.9723,1.9723,1.9723,1.9723,0.0,0.0,2.1057,2.1665,2.2169,2.2757,2.3389,2.4066,2.4141,2.4451,2.5262,2.5364,2.5364,2.5349,2.453,2.4391,2.563,2.4302,2.3436,2.4168,2.4346,2.4609,2.5213,2.5591,2.6066,2.6734,2.6388,2.61,2.6423,2.6028,2.5439,2.4738,2.4451,2.4074,2.3514,2.3228,2.3461,2.4173,2.4628,2.5105,2.6072,2.6399,2.6612,4.3097,4.3635,4.3946,4.3167,4.1901,4.366,4.3494,4.1919,4.0456,3.8583,3.6399,3.4697,3.3713,3.333,3.3345,3.3543,3.3908,3.4197,3.4363,3.4367,3.4084,3.3919,3.3798,3.3215,3.311,3.335,3.2721,3.2781,3.3455,3.311,3.2946,3.2961,3.3604,3.2886,3.0881,3.1195,3.0882,2.9909,2.9363,2.8469,2.7089,2.4776,2.3229,2.2614,2.1118,2.0357,2.0484,1.9978,1.9723,1.9699,1.947,1.9207,1.8912,1.8669,1.8535,0.0,0.0,0.0,0.0,0.0,0.0,0.0,0.0,0.0,0.0,0.0,2.0507,1.9768,1.9968,2.0139,2.0154,2.0432,2.0737,2.1101,2.1749,2.2288,2.2658,2.3246,2.3958,2.4918,2.4784,2.5094,2.6288,2.6213,2.6168,2.6437,2.5914,2.5516,2.5573,2.4691,2.4182,2.453,2.4605,2.4844,2.5498,2.5313,2.534,2.5905,2.5749,2.5497,2.5522,2.5189,2.4667,2.3943,2.3767,2.3634,2.3198,2.3095,2.3409,2.4139,2.444,2.4958,2.6197,2.6298,2.6243,4.2404,4.1976,4.3353,4.3614,4.3258,4.484,4.4585,4.2991,4.1578,3.9692,3.7446,3.5647,3.4817,3.4757,3.4742,3.4697,3.4667,3.5235,3.5489,3.5459,3.4876,3.4892,3.531,3.4188,3.3934,3.4459,3.3829,3.3605,3.3754,3.3664,3.3664,3.3784,3.4353,3.4338,3.3739,3.3006,3.2183,3.1241,2.8957,2.784,2.7956,2.4898,2.3276,2.3225,2.1293,2.0336,2.0537,1.9949,1.9593,1.9584,1.9071,1.8779,1.8703,1.8239,1.7997,0.0,1.7993,0.0,0.0,0.0,0.0,0.0,0.0,0.0,0.0,1.9461,1.9872,1.9947,2.0473,2.0832,2.0832,2.1341,2.1749,2.1839,2.2333,2.2748,2.2942,2.34,2.4253,2.5585,2.5214,2.5558,2.7106,2.6956,2.6824,2.7046,2.6659,2.5899,2.4903,2.4605,2.4545,2.4504,2.447,2.4619,2.5174,2.4838,2.4657,2.5296,2.5209,2.494,2.4453,2.4234,2.3901,2.3305,2.3168,2.3138,2.3095,2.3095,2.3323,2.3929,2.3979,2.4418,2.5845,2.5996,2.5829,4.3567,4.4175,4.4489,4.4948,4.5467,4.4732,4.3484,4.1945,4.1105,3.9511,3.7449,3.7023,3.6582,3.6134,3.6134,3.582,3.5325,3.5444,3.5489,3.5489,3.537,3.5085,3.4682,3.4428,3.4368,3.4458,3.3829,3.4068,3.5099,3.4562,3.4592,3.513,3.525,3.5235,3.507,0.0,0.0,0.0,2.9872,2.8877,2.6941,2.5117,2.3741,2.2828,2.0882,0.0,1.986,1.933,1.9052,1.9034,1.8545,0.0,0.0,0.0,0.0,0.0,0.0,0.0,0.0,0.0,0.0,0.0,1.9369,1.9726,1.9003,1.9879,2.0728,2.127,2.144,2.1515,2.1515,2.163,2.1904,2.2448,2.2628,2.3086,2.4092,2.4335,2.493,2.6228,2.6285,2.6333,2.6704,2.6659,2.6437,2.6108,2.5884,2.5483,2.4713,2.4605,2.438,2.3939,2.3838,2.4048,2.4679,2.418,2.4163,2.501,2.4421,2.3933,2.4143,2.3736,2.335,2.3095,2.3095,2.3095,2.3095,2.3095,2.3283,2.3879,2.3612,2.3775,2.5398,2.5674,2.5778,4.3877,4.4062,4.4082,4.4343,0.0,4.4003,4.306,4.1983,4.1071,3.964,3.7901,3.7554,3.706,3.6508,3.6508,3.6133,3.5504,3.5489,3.5489,3.5489,3.5489,3.5325,3.4996,3.4996,3.4997,3.4997,3.4651,3.483,3.5459,3.516,3.5176,3.5489,3.5489,3.5489,3.5476,3.45,3.269,3.0072,2.9701,2.8552,2.6569,2.4591,2.3294,2.2664,2.0756,0.0,0.0,0.0,0.0,0.0,0.0,0.0,0.0,1.7068,0.0,1.6898,1.6898,1.7175,1.7763,1.7821,1.7826,1.788,1.9127,1.9887,1.9788,2.0651,2.1326,2.1665,2.1989,2.2194,2.2209,2.2443,2.2772,2.3097,2.3141,2.355,2.4395,2.4605,2.5128,2.6282,2.629,2.6162,2.6551,2.6251,2.596,2.566,2.56,2.5334,2.4754,2.4605,2.435,2.3719,2.3584,2.3714,2.3989,2.376,2.3608,2.4192,2.3753,2.3406,2.3642,2.3395,2.3095,2.3095,2.3095,2.3095,2.3095,2.3095,2.3211,2.3487,2.3562,2.3863,2.4983,2.5193,2.5473,4.4072,4.3469,4.3489,4.3429,4.3309,4.3175,4.2791,4.2154,0.0,0.0,0.0,3.7985,3.7419,3.6853,3.6838,3.6462,3.5863,3.5848,3.5757,3.5684,3.5804,3.5697,3.5503,3.5624,3.5593,3.5504,3.5489,3.5489,3.5489,3.5489,3.5489,3.5489,3.5489,3.5428,3.5298,3.4668,3.3124,3.0744,2.9661,2.8402,2.6876,2.4474,2.3092,2.2868,2.0825,1.9733,1.97,1.9017,1.8419,1.7963,1.7442,1.717,1.7136,1.6731,1.6513,1.6513,1.6513,1.6513,1.6513,1.66,1.7005,1.7808,1.9224,2.0264,2.071,2.1433,2.1884,2.1869,2.2468,2.2853,2.2868,2.3291,2.3584,2.3584,2.3584,2.3894,2.4649,2.4644,2.5076,2.61,2.5887,2.5606,2.5945,2.5614,2.5304,2.5238,2.5136,2.5091,2.4575,2.4365,2.4186,2.3714,2.3719,2.3797,2.3626,2.3549,2.343,2.3496,2.3191,2.3002,2.3083,2.3095,2.3095,2.3095,2.3095,2.3095,2.3095,2.3095,2.3095,2.3108,2.3574,2.4152,2.4653,2.4876,2.531,4.4781,4.4162,4.4147,4.3833,4.326,4.275,4.2152,4.1497,4.0773,3.9982,3.9275,3.9167,3.8748,3.8155,3.8123,3.7764,3.7165,3.715,3.6866,3.6404,3.6881,3.6567,3.5564,3.6088,3.6059,3.5534,3.5504,3.5489,3.5504,3.5504,3.5489,3.5504,3.5489,3.522,3.4638,3.3982,3.2886,3.1399,3.1241,3.0241,2.8342,2.6276,2.4631,2.3449,2.1125,1.9609,1.9061,1.8082,1.7493,1.7401,1.6911,1.6605,1.6616,1.6552,1.6513,1.6513,1.6513,1.6513,1.6525,1.6997,1.7952,1.9488,2.0333,2.0784,2.0905,2.1912,2.2553,2.2583,2.3097,2.3475,2.3475,2.355,2.3599,2.3629,2.3599,2.4077,2.5242,2.4865,2.4809,2.562,2.5606,2.507,2.4437,2.4502,2.4519,2.4059,2.4088,2.3894,2.3853,2.3744,2.3714,2.371,2.4103,2.4204,2.3725,2.3614,2.3438,2.3417,2.2847,2.2633,2.3045,2.3095,2.3095,2.3095,2.3095,2.3095,2.3095,2.3095,2.3095,2.3133,2.3587,2.4155,2.4704,2.5143,2.5686,4.5469,4.4825,4.4451,4.4132,4.3803,4.3165,4.2526,4.1946,4.1613,4.1119,4.0502,4.0487,3.9903,3.8975,3.8945,3.8377,3.7387,3.7387,3.727,3.703,3.7285,3.7105,3.6596,3.6836,3.6836,3.6535,3.6537,3.652,3.6507,3.6207,3.6043,3.6028,3.5684,3.516,3.4503,3.3844,3.3021,3.2033,3.105,2.9728,2.8064,2.6081,2.4442,2.3135,2.1269,1.9891,1.8978,1.8203,1.7651,1.7365,1.6813,1.6513,1.6513,1.6513,1.6513,1.6513,1.6799,1.6997,1.6986,1.8144,1.9291,2.0412,2.1342,2.2036,2.2344,2.2855,2.3201,2.3176,2.3445,2.3744,2.4092,2.3808,2.3879,2.4612,2.4043,2.4107,2.517,2.4896,2.4626,2.493,2.4933,2.4596,2.3789,2.3868,2.3934,2.362,2.3584,2.3584,2.3584,2.3584,2.3584,2.3592,2.36,2.3467,2.3195,2.2763,2.2641,2.28,2.2552,2.2554,2.2982,2.3095,2.3095,2.3095,2.3095,2.3095,2.3095,2.3095,2.3095,2.3158,2.3587,2.4139,2.4704,2.546,2.613,4.6121,4.5469,4.4969,4.4601,4.4252,4.3594,4.3025,4.2616,4.2601,4.2316,4.1818,4.1538,4.0726,3.9675,3.9616,3.8973,3.7941,3.7851,3.7793,3.7659,3.7776,3.7701,3.7432,3.7539,3.7554,3.7402,3.7387,3.7387,3.7327,3.6943,3.6628,3.6449,3.5818,3.5235,3.4743,3.4069,3.3395,3.2662,3.0941,2.9368,2.8049,2.6083,2.4361,2.2956,2.1494,2.0194,1.9057,1.8479,1.8013,1.7584,1.7149,1.6876,1.69,1.6887,1.6887,1.6925,1.7324,1.7718,1.8041,1.9227,2.0367,2.1244,2.2147,2.2953,2.3508,2.3584,2.3584,2.3599,2.3744,2.4062,2.4455,2.4332,2.4421,2.5201,2.4406,2.4173,2.4994,2.4591,2.4257,2.4405,2.4445,2.425,2.3848,2.3739,2.3744,2.365,2.3584,2.3584,2.3584,2.3508,2.3414,2.3485,2.3274,2.3038,2.2746,2.2408,2.2247,2.2424,2.2335,2.2567,2.2932,2.3095,2.3095,2.3095,2.3095,2.3095,2.3095,2.3095,2.317,2.3321,2.3822,2.4415,2.5172,2.5854,2.6449,4.6809,4.6256,4.6076,4.5403,4.4237,4.3594,4.3294,4.3205,4.3205,4.3205,4.2965,4.1927,4.1059,4.0367,4.0337,3.9918,3.9212,3.9212,3.8901,3.8454,3.896,3.8584,3.7642,3.8063,3.7988,3.7522,3.7477,3.7507,3.7507,3.736,3.703,3.6462,3.5833,3.5474,3.5325,3.4711,3.4084,3.341,3.2033,3.0717,2.9401,2.741,2.545,2.3663,2.1775,2.0231,1.9124,1.8468,1.8187,1.8129,1.8053,1.8016,1.8028,1.8028,1.8016,1.8016,1.8091,1.8578,1.9608,1.992,2.0741,2.2309,2.2657,2.3005,2.3564,2.3603,2.3599,2.3712,2.4175,2.4489,2.4634,2.5004,2.5059,2.4755,2.4457,2.4454,2.4427,2.3851,2.3687,2.4432,2.4391,2.4224,2.3918,2.418,2.4257,2.3861,2.3683,2.365,2.3651,2.3171,2.304,2.3468,2.3884,2.3639,2.2826,2.2923,2.2721,2.2391,2.2304,2.2558,2.2907,2.3095,2.3095,2.3095,2.3095,2.3095,2.3095,2.312,2.3283,2.3725,2.4277,2.498,2.5979,2.6298,2.6348,4.716,4.6815,4.6031,4.494,4.3803,4.3818,4.3668,4.3305,4.3305,4.3305,4.3245,4.2741,4.2177,4.1583,4.1583,4.1014,4.0019,3.9989,3.984,3.9604,3.9888,3.9903,3.9783,3.9589,3.9424,3.9122,3.8778,3.8569,3.8449,3.7791,3.709,3.6493,3.5833,3.5504,3.5443,3.4832,3.4369,3.4053,3.2268,3.0895,2.9856,2.7697,2.5542,2.3625,2.2043,2.0885,2.0015,1.9156,1.8657,1.8644,1.8368,1.8192,1.8192,1.8192,1.8192,1.8217,1.8506,1.92,2.0387,2.0787,2.1511,2.2649,2.34,2.3951,2.416,2.4159,2.4133,2.4168,2.441,2.4736,2.5047,2.5048,2.4941,2.4892,2.4334,2.3933,2.4295,2.3652,2.339,2.3822,2.4177,2.4417,2.4386,2.4805,2.5045,2.4679,2.4203,2.3753,2.3979,2.3286,2.2916,2.3273,2.3632,2.3379,2.2615,2.2259,2.2301,2.2322,2.2307,2.2495,2.2932,2.3095,2.3095,2.3095,2.3095,2.3095,2.3095,2.3133,2.3283,2.3876,2.4377,2.4904,2.5025,2.5272,2.5536,4.7309,4.713,4.6052,4.5014,4.4177,4.4416,4.4192,4.3604,4.3579,4.3504,4.3305,4.3305,4.3055,4.2676,4.2485,4.1747,4.0771,4.0666,4.0666,4.0666,4.0685,4.092,4.1313,4.0924,4.0681,4.0576,3.996,3.9571,3.9302,3.824,3.736,3.6731,3.6088,3.5684,3.5458,3.4981,3.454,3.3972,3.233,3.0875,2.9518,2.7636,2.5646,2.3758,2.2439,2.1504,2.092,1.9987,1.9459,1.9447,1.8945,1.8643,1.8643,1.8643,1.8706,1.8944,1.9597,2.0448,2.1509,2.2161,2.2807,2.3475,2.4404,2.4794,2.4596,2.4515,2.449,2.4456,2.452,2.4732,2.504,2.4927,2.4884,2.5011,2.4111,2.3758,2.3893,2.3545,2.3601,2.3923,2.4708,2.5028,2.5183,2.5244,2.5165,2.5044,2.4283,2.3715,2.3962,2.3264,2.2732,2.3196,2.3172,2.2939,2.2609,2.2403,2.2187,2.232,2.2558,2.2694,2.3032,2.3083,2.3095,2.3095,2.3095,2.3095,2.3095,2.3145,2.3296,2.3863,2.4365,2.4653,2.4594,2.4641,2.4992,4.7309,4.7204,4.654,4.6166,4.6106,4.5514,4.4885,4.4252,4.4222,4.3893,4.3399,4.3305,4.3275,4.319,4.269,4.2051,4.1418,4.1358,4.1358,4.1358,4.1358,4.1373,4.1403,4.1358,4.1358,4.1298,4.0681,4.0053,3.9436,3.8691,3.8018,3.7345,3.6686,3.6103,3.5563,3.5381,3.4679,3.3376,3.2423,3.0757,2.8237,2.7266,2.601,2.4362,2.296,2.2015,2.1482,2.0918,2.0603,2.0617,2.0038,1.9698,1.9748,1.9736,1.9987,2.0583,2.1679,2.267,2.3345,2.3975,2.4614,2.5227,2.5266,2.5221,2.4576,2.4496,2.445,2.4428,2.4334,2.4376,2.4461,2.486,2.4887,2.4412,2.4267,2.3862,2.3263,2.3826,2.4524,2.5148,2.5765,2.6146,2.6354,2.5353,2.4832,2.4574,2.3931,2.3497,2.3503,2.2924,2.2747,2.2986,2.2877,2.2531,2.2929,2.2843,2.2887,2.296,2.2895,2.302,2.307,2.3095,2.3095,2.3095,2.3095,2.3095,2.3095,2.3208,2.3409,2.3822,2.4302,2.449,2.4189,2.4578,2.4842,4.7055,4.6674,4.6854,4.645,4.5708,4.5837,4.5574,4.493,4.4481,4.4177,4.3893,4.3504,4.3305,4.3294,4.307,4.2611,4.2062,4.2051,4.2051,4.2032,4.2032,4.2256,4.2566,4.2241,4.2032,4.1927,4.1373,4.0681,3.9978,3.8945,3.8063,3.7419,3.6776,3.6163,3.5511,3.4856,3.4228,3.3552,3.2016,3.0321,2.8852,2.7398,2.6129,2.5122,2.3614,2.2558,2.2033,2.1493,2.1219,2.1206,2.0652,2.054,2.0841,2.0892,2.1185,2.1874,2.2352,2.3094,2.4083,2.4083,2.4273,2.4808,2.4843,2.4776,2.4512,2.4406,2.4367,2.4278,2.3821,2.3591,2.3716,2.4246,2.438,2.3721,2.3543,2.3469,2.335,2.3811,2.4581,2.5315,2.6027,2.6487,2.6309,2.5673,2.511,2.4989,2.4122,2.3648,2.3683,2.3062,2.2571,2.2985,2.2985,2.2869,2.302,2.3098,2.3095,2.3083,2.3083,2.307,2.3095,2.3095,2.3095,2.3095,2.3095,2.3058,2.3045,2.3248,2.3449,2.3358,2.3876,2.3948,2.3757,2.396,2.4164,4.704,4.6719,4.713,4.68,4.6052,4.6441,4.6241,4.5603,4.5134,4.482,4.4541,4.3923,4.3624,4.3579,4.3379,4.3235,4.299,4.281,4.269,4.2705,4.2705,4.2895,4.3175,4.2895,4.269,4.2556,4.1807,4.1059,4.0337,3.9275,3.827,3.7404,3.6971,3.616,3.5117,3.4327,3.3774,3.2884,3.1294,3.0066,2.9231,2.7817,2.6663,2.5866,2.4766,2.3766,2.2897,2.2309,2.192,2.1719,2.1243,2.1118,2.1469,2.1896,2.2334,2.2828,2.3514,2.4142,2.4779,2.4678,2.4641,2.4769,2.4753,2.4668,2.4422,2.4326,2.418,2.387,2.3471,2.3095,2.32,2.3617,2.3691,2.32,2.3095,2.3095,2.314,2.3824,2.4581,2.5287,2.5797,2.6095,2.6055,2.5467,2.5078,2.5049,2.401,2.3552,2.3643,2.3218,2.2644,2.302,2.3088,2.3058,2.3095,2.3095,2.3095,2.3095,2.3095,2.3095,2.3095,2.3095,2.3095,2.3095,2.3058,2.2995,2.3085,2.3261,2.3173,2.2945,2.302,2.3211,2.3158,2.3195,2.3587,4.7309,4.7264,4.7309,4.7264,4.713,4.7189,4.689,4.6345,4.6211,4.5792,4.5259,4.4616,4.4296,4.4192,4.3788,4.3713,4.3953,4.3564,4.3369,4.3429,4.328,4.326,4.3384,4.328,4.3205,4.313,4.1983,4.107,4.0472,3.966,3.8658,3.7597,3.7257,3.6104,3.4058,3.3839,3.2978,3.163,3.071,2.991,2.8981,2.831,2.7544,2.6688,2.6373,2.5607,2.4117,2.3424,2.2847,2.2385,2.1794,2.152,2.1717,2.259,2.3339,2.3642,2.5215,2.5917,2.5563,2.5876,2.5739,2.537,2.5273,2.4785,2.426,2.4153,2.3914,2.338,2.3183,2.3095,2.3095,2.317,2.3198,2.3095,2.3095,2.3095,2.323,2.3796,2.4581,2.5217,2.5453,2.5398,2.5245,2.4752,2.4321,2.4135,2.3644,2.3159,2.3278,2.3082,2.307,2.3095,2.3095,2.3095,2.3095,2.3095,2.3095,2.3095,2.3095,2.3095,2.3095,2.3095,2.3095,2.3083,2.2882,2.2822,2.2621,2.2759,2.2684,2.2533,2.2571,2.2746,2.2945,2.3133,2.3333,4.7309,4.7309,4.7309,4.7309,4.7309,4.7309,4.7174,4.6929,4.6525,4.6181,4.5882,4.5289,4.499,4.496,4.4751,4.4521,4.4282,4.4087,4.4237,4.442,4.3723,4.3544,4.3798,4.3499,4.3305,4.31,4.1998,4.1313,4.0924,3.9945,3.8718,3.7558,3.6754,3.5601,3.396,3.2753,3.1669,3.1209,3.0403,2.9625,2.8976,2.8743,2.8279,2.7657,2.7248,2.6582,2.5728,2.4443,2.3675,2.3452,2.256,2.2058,2.2204,2.2779,2.3425,2.4026,2.4935,2.5734,2.5891,2.5676,2.5503,2.5086,2.4398,2.378,2.3529,2.3526,2.3407,2.3123,2.3095,2.3095,2.3095,2.3095,2.3145,2.3108,2.3095,2.3145,2.3271,2.3833,2.4581,2.5175,2.4951,2.4667,2.4509,2.3987,2.356,2.3531,2.326,2.311,2.3095,2.3095,2.3095,2.3095,2.3095,2.3095,2.3095,2.3095,2.3095,2.3095,2.3095,2.2982,2.2995,2.3095,2.3095,2.3032,2.2819,2.2583,2.2383,2.2245,2.2194,2.2345,2.2508,2.2746,2.3007,2.3183,2.3321,4.7309,4.7309,4.7309,4.7309,4.7309,4.7309,4.7309,4.7249,4.6875,4.6659,4.654,4.5978,4.5678,4.5618,4.5424,4.495,4.4352,4.4103,4.4216,4.4535,4.4097,4.37,4.3663,4.3448,4.3454,4.3399,4.2391,4.1662,4.1343,4.0274,3.8901,3.7299,3.6383,3.5053,3.3369,3.1941,3.1068,3.0658,3.0101,2.9616,2.9308,2.9233,2.8988,2.843,2.8041,2.7525,2.6801,2.5565,2.4736,2.4255,2.3414,2.2874,2.2698,2.3382,2.409,2.4596,2.5335,2.5951,2.604,2.5681,2.5238,2.4895,2.4205,2.3665,2.3509,2.3421,2.3386,2.3145,2.3323,2.3349,2.3183,2.3547,2.3609,2.3434,2.3461,2.3524,2.3711,2.3976,2.4309,2.4581,2.4262,2.3953,2.3721,2.3529,2.3095,2.3095,2.3095,2.3095,2.3095,2.3095,2.3095,2.3095,2.3095,2.3095,2.3095,2.3095,2.3095,2.3095,2.3095,2.2895,2.2757,2.2995,2.3095,2.307,2.292,2.2445,2.2194,2.1995,2.1907,2.2171,2.2282,2.2395,2.2533,2.2995,2.317,4.7251,4.7186,4.7186,4.7099,4.7084,4.7099,4.7142,4.7309,4.7243,4.7234,4.7115,4.6614,4.636,4.6211,4.5675,4.4991,4.4361,4.3615,4.3399,4.3656,4.3849,4.3838,4.3223,4.3375,4.3723,4.3958,4.293,4.2081,4.1553,4.0498,3.9143,3.7126,3.6098,3.4607,3.2509,3.1452,3.0717,3.0011,2.983,2.9767,2.9729,2.9741,2.9528,2.8969,2.8831,2.8355,2.7537,2.6839,2.5954,2.4917,2.4214,2.3725,2.3546,2.4417,2.4947,2.5046,2.6206,2.6308,2.6023,2.5816,2.5547,2.501,2.4771,2.4603,2.4101,2.4014,2.3863,2.3484,2.3763,2.3853,2.3609,2.4061,2.4415,2.4192,2.4092,2.4243,2.4641,2.4337,2.427,2.4097,2.358,2.3188,2.3329,2.3228,2.311,2.3095,2.3095,2.3095,2.3095,2.3095,2.3095,2.3095,2.3095,2.3095,2.3095,2.3095,2.3095,2.3095,2.3095,2.2945,2.2744,2.2945,2.3095,2.307,2.2844,2.2383,2.1956,2.1707,2.152,2.1518,2.1644,2.1782,2.2245,2.2859,2.3098,4.6748,4.5928,4.5906,4.5906,4.5891,4.5891,4.6469,4.7244,4.7309,4.7309,4.7249,4.7108,4.6967,4.6902,4.5845,4.5029,4.4169,4.3197,4.274,4.2949,4.391,4.4467,4.4385,4.4158,4.4117,4.4132,4.3061,4.2321,4.1974,4.0191,3.8649,3.7494,3.5427,3.3682,3.2086,3.1203,3.0455,2.9881,2.9804,2.9792,2.9779,2.9779,2.9729,2.9566,2.9145,2.8794,2.8442,2.7959,2.6741,2.4992,2.4678,2.454,2.4371,2.4703,2.4947,2.5058,2.555,2.5955,2.5786,2.5721,2.5586,2.5397,2.5093,2.477,2.4644,2.4591,2.4515,2.439,2.4528,2.4544,2.4415,2.4612,2.4854,2.5109,2.487,2.4704,2.4804,2.4691,2.4591,2.454,2.4104,2.3791,2.3625,2.3358,2.312,2.3095,2.3095,2.3095,2.3095,2.3095,2.3095,2.3095,2.3095,2.3095,2.3095,2.3095,2.3095,2.3095,2.3095,2.3083,2.2957,2.3007,2.3083,2.3095,2.2633,2.2157,2.1681,2.1294,2.1143,2.1155,2.1731,2.2253,2.2615,2.3098,2.3128,4.6062,4.5358,4.4826,4.4909,4.538,4.5403,4.6107,4.7142,4.7309,4.7309,4.7309,4.7309,4.6997,4.6425,4.5719,4.4526,4.3254,4.246,4.214,4.2436,4.3998,4.523,4.5688,4.5224,4.4721,4.4534,4.3186,4.2211,4.1404,3.9714,3.8225,3.6713,3.5063,3.3506,3.2137,3.1353,3.0683,3.0244,3.0131,3.0055,2.9817,2.9779,2.9779,2.9761,2.9428,2.9195,2.8894,2.8367,2.7268,2.5912,2.5498,2.5322,2.4879,2.503,2.5146,2.5155,2.5649,2.6013,2.5979,2.5967,2.5979,2.5942,2.5653,2.541,2.5222,2.5146,2.5121,2.4788,2.4992,2.5005,2.4892,2.4992,2.5398,2.5804,2.5703,2.5511,2.5515,2.5293,2.5155,2.4954,2.449,2.3991,2.3979,2.3487,2.3195,2.3095,2.3095,2.3095,2.3095,2.3108,2.3095,2.3095,2.3095,2.3095,2.3095,2.3095,2.3095,2.3095,2.3095,2.3095,2.3058,2.3032,2.2995,2.2882,2.242,2.1983,2.1557,2.1268,2.1319,2.1588,2.2223,2.2582,2.2816,2.3218,2.3245,4.5252,4.4895,4.3773,4.4046,4.5047,4.5207,4.5928,4.7142,4.7309,4.7164,4.7019,4.7077,4.6255,4.5207,4.4711,4.3797,4.197,4.1868,4.2066,4.2921,4.4534,4.6182,4.6828,4.5897,4.5204,4.4706,4.3308,4.1917,4.0634,3.9312,3.7747,3.6215,3.5125,3.3796,3.2557,3.1779,3.1231,3.0771,3.0538,3.0324,3.0005,2.9867,2.9779,2.9767,2.9754,2.9471,2.9082,2.8568,2.7833,2.6809,2.6713,2.6214,2.5419,2.5674,2.5774,2.5854,2.6193,2.6411,2.6461,2.6399,2.6449,2.6399,2.6411,2.6298,2.5841,2.5703,2.5561,2.5205,2.5435,2.5473,2.5268,2.546,2.5866,2.6285,2.6399,2.6461,2.6399,2.6034,2.5703,2.5611,2.4745,2.4205,2.4004,2.3637,2.323,2.3697,2.3574,2.3424,2.3323,2.3195,2.3158,2.3095,2.3095,2.3095,2.3095,2.3095,2.3095,2.3095,2.3095,2.3095,2.3032,2.2982,2.2895,2.2681,2.2282,2.1933,2.1595,2.1469,2.1457,2.1678,2.2082,2.2401,2.2689,2.3234,2.3442,4.4233,4.2374,4.2133,4.2738,4.3811,4.3952,4.5184,4.7179,4.7266,4.6646,4.5973,4.5787,4.507,4.3858,4.317,4.2558,4.2786,4.2266,4.2568,4.4757,4.6107,4.6931,4.7116,4.632,4.5306,4.4186,4.3103,4.1689,4.0099,3.8515,3.7431,3.6753,3.5028,3.3714,3.2978,3.2378,3.1775,3.126,3.0851,3.0625,3.0407,3.003,2.9829,2.9804,2.9779,2.9741,2.9641,2.9503,2.9089,2.8486,2.7971,2.7557,2.7218,2.6979,2.6896,2.6809,2.6587,2.6512,2.6499,2.6512,2.6487,2.6487,2.6487,2.6453,2.6361,2.6273,2.6218,2.613,2.6231,2.6172,2.6042,2.6185,2.6323,2.6449,2.6487,2.6487,2.6461,2.6373,2.626,2.6047,2.5351,2.4779,2.5109,2.4293,2.4064,2.429,2.4083,2.3835,2.3584,2.3315,2.3135,2.3005,2.3095,2.3095,2.3095,2.3095,2.3095,2.302,2.2982,2.2932,2.2897,2.2809,2.2656,2.2458,2.2209,2.1859,2.1433,2.1358,2.127,2.1605,2.1991,2.2512,2.2986,2.3399,2.3501,4.3657,4.1579,4.0944,4.1588,4.2895,4.3379,4.4387,4.5757,4.6305,4.5697,4.4697,4.4503,4.3773,4.2703,4.2533,4.2689,4.2762,4.3313,4.4069,4.5494,4.6616,4.6931,4.6396,4.6028,4.5128,4.3802,4.2049,4.0634,3.9276,3.7826,3.6732,3.6473,3.5195,3.4337,3.3592,3.3131,3.2579,3.188,3.1524,3.124,3.0934,3.0457,2.9993,2.9842,2.9779,2.9779,2.9767,2.9767,2.9616,2.934,2.9019,2.8593,2.8154,2.7846,2.7695,2.76,2.7173,2.6901,2.6864,2.665,2.6487,2.6487,2.6487,2.6487,2.6487,2.6487,2.6487,2.6487,2.6474,2.6487,2.6487,2.6474,2.6487,2.6487,2.6487,2.6487,2.6487,2.6487,2.6487,2.6336,2.5716,2.5435,2.5197,2.4641,2.4453,2.4493,2.3494,2.3257,2.3521,2.3257,2.2968,2.2871,2.3035,2.3095,2.3095,2.3095,2.3095,2.2957,2.2782,2.2681,2.2583,2.2483,2.2357,2.2184,2.1995,2.152,2.1169,2.1119,2.1271,2.1631,2.213,2.2763,2.3272,2.3541,2.3473,4.315,4.1232,4.021,4.0837,4.2343,4.3069,4.3715,4.4418,4.4864,4.441,4.3466,4.3361,4.2965,4.2108,4.293,4.281,4.3146,4.4456,4.5801,4.6018,4.6425,4.6322,4.5615,4.4895,4.4224,4.3669,4.1554,3.984,3.8512,3.73,3.6501,3.5814,3.5542,3.4979,3.4324,3.3997,3.3508,3.2645,3.2365,3.2014,3.1524,3.0997,3.0495,3.008,2.9993,2.9892,2.9829,2.9779,2.9767,2.9779,2.9779,2.9264,2.8649,2.8217,2.8217,2.821,2.772,2.7356,2.716,2.6884,2.665,2.6537,2.6487,2.6487,2.6487,2.6487,2.6487,2.6487,2.6487,2.6487,2.6487,2.6487,2.6487,2.6487,2.6487,2.6487,2.6487,2.6487,2.6487,2.6399,2.5908,2.5544,2.5252,2.4834,2.474,2.4448,2.3412,2.2813,2.309,2.2973,2.2534,2.2488,2.2583,2.2975,2.3035,2.3005,2.302,2.287,2.2647,2.2454,2.2241,2.1895,2.1771,2.1945,2.1746,2.1295,2.1144,2.1307,2.1499,2.1772,2.2166,2.2725,2.3205,2.3631,2.3446,4.2237,4.0019,4.0265,4.117,4.2297,4.2558,4.3256,4.4108,4.3927,4.3098,4.2144,4.2978,4.2689,4.2217,4.2954,4.3858,4.484,4.5995,4.666,4.6447,4.6174,4.538,4.4803,4.3419,4.2439,4.1938,4.0852,3.9548,3.8066,3.7132,3.6708,3.6243,3.5782,3.5355,3.5104,3.4803,3.4214,3.3458,3.3093,3.2641,3.2102,3.1549,3.1009,3.0545,3.047,3.0256,2.9905,2.9804,2.9779,2.9779,2.9779,2.9679,2.9377,2.8982,2.8806,2.8668,2.8273,2.7821,2.7419,2.7223,2.6909,2.6637,2.6487,2.6487,2.6487,2.6487,2.6487,2.6452,2.6435,2.6435,2.6487,2.6233,2.6418,2.6435,2.6285,2.6319,2.6366,2.6267,2.6198,2.6027,2.5695,2.535,2.4915,2.4548,2.432,2.3884,2.3041,2.2688,2.2918,2.2406,2.1677,2.178,2.2032,2.2522,2.2959,2.2914,2.2871,2.2732,2.2514,2.2255,2.1909,2.1292,2.1144,2.1419,2.1469,2.1168,2.1193,2.1369,2.1359,2.1325,2.1948,2.2622,2.2859,2.3098,2.3276,4.2642,3.9812,4.0287,4.1006,4.1865,4.2565,4.2757,4.2728,4.2828,4.2054,4.136,4.1887,4.2204,4.2204,4.3717,4.5161,4.6166,4.6166,4.6366,4.604,4.507,4.3975,4.3598,4.2084,4.1281,4.0741,4.0232,3.9595,3.8127,3.7436,3.711,3.6771,3.6232,3.582,3.552,3.5219,3.4653,3.4073,3.3655,3.3241,3.2667,3.2102,3.1562,3.116,3.0984,3.0746,3.0324,3.0218,3.0068,2.9874,2.9779,2.9779,2.9704,2.9578,2.9346,2.9245,2.8819,2.8267,2.7745,2.7499,2.7052,2.6587,2.6499,2.6487,2.6487,2.6487,2.6383,2.6361,2.5868,2.5716,2.5664,2.5359,2.5252,2.5529,2.537,2.5317,2.5446,2.524,2.5152,2.517,2.5072,2.469,2.4223,2.3936,2.3763,2.3259,2.2564,2.2506,2.2622,2.1739,2.0791,2.0992,2.1243,2.1542,2.2036,2.2144,2.231,2.2308,2.2223,2.1955,2.175,2.1223,2.0991,2.1031,2.0981,2.0954,2.0967,2.1055,2.0968,2.0994,2.1689,2.2243,2.2363,2.2535,2.2719,4.2763,3.9735,4.0261,4.0813,4.1413,4.2356,4.2237,4.1551,4.1815,4.117,4.0044,4.1294,4.2095,4.2582,4.4186,4.5906,4.677,4.5598,4.507,4.4757,4.3717,4.2533,4.1862,4.1194,4.0693,4.0019,3.984,3.9434,3.873,3.8065,3.7537,3.711,3.6695,3.6268,3.5843,3.5707,3.5027,3.4525,3.4073,3.3781,3.314,3.2616,3.2114,3.1625,3.1557,3.1273,3.0613,3.0525,3.0249,2.9942,2.9779,2.9779,2.9779,2.9779,2.9779,2.9716,2.9321,2.8831,2.8317,2.7971,2.7575,2.706,2.6776,2.6601,2.6154,2.5926,2.577,2.5844,2.5415,2.4883,2.4827,2.4285,2.4224,2.4335,2.42,2.3869,2.4288,2.4217,2.3734,2.3843,2.4156,2.3927,2.3301,2.3069,2.2856,2.2307,2.1626,2.1746,2.1699,2.073,2.0051,2.0215,2.0386,2.0542,2.0846,2.1069,2.1306,2.1549,2.1537,2.1399,2.137,2.125,2.108,2.092,2.0792,2.0792,2.0766,2.0726,2.0717,2.093,2.152,2.1757,2.1696,2.1945,2.227,4.1124,3.9747,4.0261,4.0813,4.1279,4.1518,4.1477,4.1255,4.0952,4.0343,4.0006,4.2108,4.3194,4.374,4.4688,4.5457,4.5275,4.4373,4.3717,4.3527,4.2436,4.1715,4.1356,4.0364,4.0134,3.9697,3.9697,3.9409,3.9007,3.8705,3.809,3.7411,3.711,3.6796,3.623,3.6155,3.5979,3.533,3.4803,3.4085,3.3291,3.3014,3.2638,3.2277,3.2051,3.17,3.0939,3.0789,3.0487,2.9942,2.9817,2.9792,2.9779,2.9779,2.9779,2.9779,2.9679,2.9421,2.8819,2.858,2.8138,2.7588,2.7294,2.6743,2.5907,2.4926,2.4485,2.4446,2.4307,2.4288,2.4337,2.4355,2.4238,2.3929,2.3612,2.349,2.3645,2.3102,2.2619,2.2432,2.2694,2.2582,2.2178,2.2065,2.1866,2.1297,2.0882,2.1024,2.0789,1.9887,1.9379,1.9549,1.9612,1.9734,1.9699,1.9928,2.0317,2.0671,2.0755,2.0788,2.0849,2.088,2.108,2.0912,2.0733,2.0566,2.0548,2.0516,2.0494,2.0654,2.0967,2.0954,2.0855,2.1243,2.1769,4.0198,3.9735,4.0248,4.0625,4.0876,4.1164,4.1127,4.0838,4.0626,4.0616,4.1085,4.2641,4.421,4.5267,4.5629,4.5403,4.4978,4.33,4.2423,4.2168,4.1244,4.0567,4.0389,3.9981,3.9723,3.9697,3.9685,3.9634,3.9321,3.8969,3.8429,3.7751,3.7312,3.6896,3.6482,3.643,3.6031,3.5418,3.4703,3.4035,3.3583,3.3266,3.2968,3.2717,3.2692,3.2194,3.1626,3.1491,3.1052,3.0462,3.0236,3.008,2.9692,2.9255,2.8819,2.8779,2.8211,2.8205,2.8736,2.8837,2.8256,2.745,2.6918,2.6334,2.5373,2.4619,2.4176,2.455,2.4011,2.3727,2.3467,2.3065,2.302,2.2894,2.2794,2.2705,2.252,2.1987,2.1527,2.1366,2.1251,2.1355,2.1413,2.1336,2.1288,2.1019,2.0564,2.0466,2.0117,1.934,1.8997,1.8931,1.8936,1.8954,1.8826,1.8844,1.9299,1.9661,1.9911,1.9993,2.0243,2.0389,2.062,2.0523,2.0152,2.0103,2.023,2.0405,2.0515,2.0418,2.0314,2.0335,2.0393,2.0754,2.1319,3.9697,3.9735,4.0149,4.0388,4.0524,4.0938,4.0876,4.0524,4.0499,4.0901,4.1784,4.2978,4.4757,4.595,4.5078,4.4139,4.4163,4.2133,4.1319,4.0743,4.03,3.9839,3.9813,3.9723,3.9697,3.9697,3.9697,3.9659,3.9546,3.9296,3.8843,3.8216,3.7713,3.7185,3.672,3.6431,3.6117,3.5483,3.4653,3.4123,3.3796,3.3341,3.3153,3.3077,3.3018,3.2685,3.1944,3.2081,3.1629,2.9776,3.0044,2.9783,2.8838,2.8226,2.7844,2.7664,2.7128,2.7183,2.7814,2.7994,2.7594,2.6849,2.5935,2.537,2.4567,2.4316,2.4138,2.3972,2.353,2.3114,2.2818,2.2159,2.213,2.2008,2.1627,2.1541,2.1445,2.1223,2.104,2.0963,2.0886,2.0789,2.0809,2.0722,2.0654,2.0615,2.038,2.0087,1.9618,1.9072,1.8862,1.8809,1.8577,1.8532,1.8357,1.8303,1.858,1.8787,1.9061,1.934,1.9666,1.9981,2.0266,2.0023,1.9647,1.9707,1.9872,2.022,2.0463,1.9867,1.9483,1.9849,2.007,2.0366,2.0762,3.9697,3.9697,3.9747,4.0049,4.0462,4.0524,4.0524,4.045,4.0502,4.1068,4.2099,4.3026,4.4442,4.4757,4.3466,4.2241,4.1936,4.0453,4.0121,3.9955,3.9723,3.9697,3.9697,3.9697,3.9697,3.9697,3.9697,3.9697,3.9685,3.9609,3.9258,3.8818,3.8241,3.7676,3.7086,3.6582,3.6193,3.5547,3.4719,3.4175,3.3716,3.3208,3.2804,3.2869,3.285,3.2321,3.0714,3.1373,3.0846,2.8203,2.9059,2.889,2.7745,2.72,2.6925,2.6571,2.6171,2.6167,2.6438,2.6834,2.6699,2.6144,2.5295,2.4274,2.3726,2.2686,2.2435,2.294,2.2917,2.2642,2.2515,2.2378,2.2119,2.1736,2.147,2.1313,2.1193,2.0896,2.0731,2.0634,2.0596,2.0596,2.0596,2.0596,2.0596,2.0595,2.0273,1.998,1.9833,1.9375,1.9044,1.8815,1.8414,1.8235,1.8118,1.8168,1.8303,1.8445,1.867,1.8944,1.9215,1.9528,1.9624,1.9612,1.9307,1.9422,1.9377,1.9257,1.9054,1.8711,1.8672,1.9158,1.9425,1.9608,2.0049,3.9697,3.9697,3.9697,3.981,4.0011,4.0011,4.0011,4.0154,4.085,4.2286,4.3858,4.448,4.4918,4.4572,4.2858,4.1604,4.1419,4.03,3.9839,3.9697,3.9697,3.9697,3.9697,3.9697,3.9697,3.9697,3.9697,3.9697,3.9697,3.9697,3.9622,3.9245,3.8793,3.8002,3.7361,3.6683,3.6268,3.5658,3.4559,3.3557,3.3339,3.1704,3.0952,3.1177,3.0893,3.0562,2.9916,3.0206,2.9357,2.8606,2.866,2.7889,2.6813,2.6378,2.5894,2.5433,2.4978,2.4659,2.4914,2.5557,2.6203,2.5284,2.4313,2.3448,2.3218,2.2778,2.2695,2.2861,2.2849,2.2674,2.2762,2.2685,2.2384,2.1904,2.1572,2.1347,2.1113,2.0879,2.0703,2.0732,2.0654,2.0596,2.0596,2.0596,2.0596,2.0566,2.0214,1.9912,1.9795,1.9647,1.9297,1.8975,1.8584,1.8213,1.8076,1.8037,1.8008,1.8168,1.8337,1.8529,1.8721,1.8526,1.8632,1.8759,1.884,1.8685,1.8434,1.8013,1.7857,1.7937,1.821,1.8618,1.8806,1.8941,1.9335,3.9697,3.9697,3.9697,3.9697,3.9697,3.9697,3.9697,3.9929,4.1045,4.2762,4.4803,4.4826,4.4572,4.374,4.2108,4.0982,4.0718,4.0109,3.9813,3.9697,3.9697,3.9697,3.9697,3.9697,3.9697,3.9697,3.9697,3.9697,3.9697,3.9697,3.9659,3.9546,3.9308,3.8517,3.7513,3.6571,3.6207,3.5821,3.425,3.3041,3.2936,3.1249,2.9914,3.0161,2.9973,2.9525,2.9333,2.9326,2.8696,2.8,2.7667,2.7411,2.6428,2.5488,2.4863,2.4229,2.3659,2.3123,2.3582,2.4231,2.5115,2.4265,2.3725,2.3226,2.3101,2.3101,2.3003,2.3033,2.3084,2.3074,2.3025,2.2781,2.2488,2.206,2.1971,2.1776,2.1445,2.1192,2.0996,2.085,2.0752,2.0615,2.0596,2.0576,2.0449,2.0478,2.04,2.0107,1.9922,1.9727,1.9443,1.9131,1.8826,1.8447,1.8125,1.8066,1.8008,1.8025,1.8151,1.811,1.8151,1.8018,1.8008,1.8274,1.8248,1.789,1.7701,1.7586,1.7502,1.7461,1.7665,1.7816,1.8455,1.8617,1.8708,3.9697,3.9697,3.9697,3.9697,3.9697,3.9697,3.9697,3.9852,4.1044,4.2471,4.3787,4.374,4.2954,4.1874,4.0681,4.0134,4.0032,3.9813,3.9697,3.9697,3.9697,3.9697,3.9697,3.9697,3.9697,3.9697,3.9697,3.9697,3.9697,3.9697,3.9697,3.9597,3.9346,3.8843,3.7877,3.6346,3.5906,3.5918,3.3799,3.296,3.2215,3.0887,2.9884,2.9642,2.9347,2.8763,2.8376,2.8457,2.7683,2.6471,2.7011,2.6439,2.4842,2.4757,2.4243,2.3464,2.33,2.313,2.3157,2.3244,2.3365,2.3452,2.3178,2.3135,2.3101,2.3101,2.3101,2.3101,2.3091,2.2937,2.2849,2.2791,2.2537,2.2422,2.2332,2.2147,2.1826,2.1494,2.1299,2.1055,2.0801,2.0625,2.0615,2.0547,2.0351,2.0312,2.0439,2.0322,2.0117,1.9835,1.96,1.9326,1.9014,1.8584,1.8235,1.8076,1.8008,1.8008,1.8027,1.8057,1.804,1.804,1.803,1.8001,1.7959,1.7874,1.7591,1.7292,1.7153,1.6975,1.6746,1.6969,1.7716,1.8199,1.8175,3.9697,3.9697,3.9697,3.9697,3.9697,3.9697,3.9723,3.9929,4.1094,4.2786,4.4046,4.3146,4.2108,4.1269,4.0389,3.9697,3.9697,3.9697,3.9697,3.9697,3.9697,3.9697,3.9697,3.9697,3.9697,3.9697,3.9697,3.9697,3.9697,3.9697,3.9697,3.9609,3.8969,3.8417,3.7776,3.67,3.596,3.4872,3.3129,3.1771,3.1033,2.9475,2.8448,2.855,2.8136,2.7668,2.7199,2.7414,2.6583,2.5599,2.6398,2.5749,2.4708,2.4736,2.4375,2.375,2.3513,2.3396,2.323,2.3135,2.3113,2.3101,2.3101,2.3101,2.3101,2.3101,2.3101,2.3101,2.3101,2.2996,2.2994,2.2994,2.2869,2.2801,2.2693,2.2479,2.2197,2.1875,2.1611,2.1288,2.1035,2.0781,2.0674,2.0605,2.0429,2.039,2.0508,2.0537,2.0381,2.0059,1.9775,1.9503,1.9181,1.8705,1.8364,1.8254,1.8303,1.841,1.8283,1.8137,1.8127,1.8044,1.7937,1.7847,1.7903,1.792,1.7559,1.7178,1.6738,1.6469,1.6487,1.6602,1.7251,1.7497,1.7362,3.9697,3.9697,3.9697,3.9697,3.9697,3.9697,4.0121,4.1007,4.1936,4.3266,4.3999,4.2509,4.1294,4.0819,4.0173,3.9697,3.9697,3.9697,3.9697,3.9697,3.9697,3.9697,3.9697,3.9697,3.9697,3.9697,3.9697,3.9697,3.9697,3.9697,3.9559,3.9132,3.8279,3.7481,3.6922,3.6107,3.5516,3.4281,3.2771,3.1199,3.0073,2.8746,2.7695,2.7632,2.7338,2.6883,2.6578,2.6206,2.5854,2.5776,2.564,2.5415,2.5078,2.4766,2.4437,2.3848,2.3535,2.3367,2.3181,2.3101,2.3101,2.3101,2.3101,2.3101,2.3101,2.3101,2.3101,2.3101,2.3101,2.3091,2.3081,2.3101,2.304,2.2962,2.2884,2.2682,2.251,2.2168,2.1906,2.1595,2.11,2.0877,2.0703,2.0644,2.0547,2.0556,2.0586,2.0596,2.0556,2.0195,1.9922,1.9708,1.9348,1.8854,1.858,1.8488,1.8586,1.8783,1.8523,1.8134,1.8056,1.7945,1.7833,1.7737,1.7828,1.7794,1.7451,1.7077,1.6813,1.6666,1.6672,1.6796,1.6975,1.7002,1.7005,3.9697,3.9697,3.9697,3.9749,3.9813,4.0173,4.148,4.3419,4.3347,4.3409,4.3419,4.2133,4.0882,3.9942,3.9697,3.9697,3.9697,3.9697,3.9697,3.9697,3.9697,3.9697,3.9697,3.9697,3.9697,3.9697,3.9697,3.9697,3.9697,3.9534,3.9308,3.8756,3.7851,3.6751,3.5905,3.538,3.4727,3.3343,3.2128,3.0669,2.942,2.8687,2.8025,2.7819,2.7575,2.7236,2.6924,2.6533,2.6098,2.5874,2.5689,2.5201,2.4791,2.4469,2.3913,2.3474,2.3298,2.322,2.3132,2.3101,2.3101,2.3101,2.3101,2.3101,2.3101,2.3101,2.3101,2.3101,2.3101,2.3101,2.3101,2.3047,2.3003,2.2984,2.2996,2.2853,2.2727,2.2472,2.2231,2.1805,2.1156,2.0833,2.0664,2.0596,2.0489,2.0596,2.0596,2.0596,2.0498,2.0166,1.9961,1.9951,1.9543,1.8993,1.8736,1.8446,1.8162,1.8147,1.8201,1.7943,1.7886,1.76,1.7324,1.7261,1.7668,1.7707,1.7581,1.7341,1.7047,1.695,1.6871,1.6735,1.6807,1.7093,1.72,3.9697,3.9697,3.9697,4.0224,4.1269,4.2978,4.421,4.4642,4.3061,4.2568,4.3371,4.1194,4.0121,3.971,3.9697,3.9697,3.9697,3.9697,3.9697,3.9697,3.9697,3.9697,3.9697,3.9697,3.9697,3.9697,3.9697,3.9685,3.9584,3.9383,3.873,3.8215,3.7157,3.5966,3.5003,3.4618,3.3235,3.2051,3.0993,3.0087,2.9164,2.8469,2.8164,2.8066,2.7848,2.7536,2.709,2.666,2.623,2.5835,2.5728,2.5454,2.5411,2.5298,2.4957,2.4137,2.3786,2.3474,2.3191,2.3101,2.3101,2.3101,2.3101,2.3101,2.3101,2.3101,2.3101,2.3101,2.3069,2.3069,2.2862,2.2753,2.2359,2.2041,2.2107,2.2186,2.2016,2.1699,2.1472,2.1001,2.0396,2.0158,2.0093,2.0391,2.0304,2.0489,2.0547,2.0469,2.0333,1.9966,1.9822,1.9812,1.9231,1.8545,1.8332,1.8071,1.7702,1.744,1.7577,1.7436,1.6865,1.6586,1.6562,1.6792,1.7212,1.7611,1.7883,1.7624,1.7321,1.7145,1.7047,1.6816,1.6703,1.7064,1.7357,3.9697,3.9762,4.0262,4.1455,4.3122,4.421,4.4886,4.4918,4.3218,4.2641,4.2461,4.063,3.9697,3.9697,3.9697,3.9697,3.9697,3.9697,3.9697,3.9697,3.9697,3.9697,3.9697,3.9697,3.9697,3.9697,3.9697,3.9697,3.9355,3.8272,3.7452,3.7082,3.6136,3.441,3.3149,3.2395,3.1469,3.054,2.9781,2.9365,2.883,2.8301,2.8301,2.8242,2.8005,2.7702,2.7256,2.6826,2.6416,2.5971,2.5874,2.5591,2.5454,2.5249,2.4908,2.415,2.3896,2.3503,2.321,2.3101,2.3101,2.3101,2.3101,2.3101,2.3101,2.3101,2.3101,2.3101,2.3047,2.295,2.2633,2.2271,2.1467,2.0733,2.0989,2.1244,2.0989,2.0643,2.0236,1.98,1.9474,1.9194,1.9306,1.972,1.9942,1.9825,1.9776,1.9756,1.9698,1.9537,1.9462,1.947,1.8692,1.79,1.7759,1.7568,1.7245,1.7047,1.7251,1.6957,1.6069,1.5863,1.6074,1.6404,1.6768,1.7085,1.7351,1.7724,1.7617,1.7323,1.7141,1.7181,1.71,1.7227,1.749,3.9762,4.0006,4.1219,4.2954,4.4886,4.4022,4.4093,4.4918,4.3598,4.2689,4.1555,4.0287,3.9697,3.9697,3.9697,3.9697,3.9697,3.9697,3.9697,3.9697,3.9697,3.9697,3.9697,3.9697,3.9697,3.9697,3.9608,3.9442,3.8719,3.7553,3.631,3.57,3.3823,3.2249,3.122,3.0979,3.025,2.9207,2.926,2.9276,2.8628,2.8301,2.8301,2.8301,2.8193,2.8054,2.7614,2.7187,2.6771,2.6332,2.5932,2.5513,2.5264,2.4957,2.4498,2.4228,2.4154,2.376,2.3445,2.3288,2.3181,2.3152,2.3101,2.3101,2.3101,2.3101,2.3101,2.2611,2.2425,2.1898,2.1489,2.1145,2.0508,1.9966,1.9929,1.9883,1.9588,1.931,1.9075,1.866,1.8335,1.8141,1.8363,1.8738,1.8829,1.8849,1.8849,1.8849,1.872,1.8665,1.8663,1.8718,1.8222,1.7428,1.6987,1.6805,1.6693,1.6665,1.6677,1.6054,1.4915,1.511,1.5687,1.5854,1.5983,1.6324,1.6627,1.7027,1.7216,1.6932,1.6927,1.7418,1.7516,1.7366,1.7607,4.0275,4.1269,4.2509,4.3456,4.3868,4.3646,4.3074,4.2509,4.2217,4.1862,4.1394,4.0338,3.9697,3.9697,3.9697,3.9697,3.9697,3.9697,3.9697,3.9697,3.9697,3.9697,3.9697,3.9697,3.9697,3.9697,3.9531,3.8946,3.763,3.641,3.5137,3.3919,3.2371,3.1199,3.0188,3.0094,2.9487,2.8424,2.8601,2.8873,2.8424,2.8301,2.8301,2.8301,2.8242,2.793,2.751,2.7139,2.6547,2.5966,2.5791,2.565,2.5576,2.5425,2.5162,2.4887,2.4695,2.4281,2.387,2.3603,2.3484,2.3208,2.3108,2.311,2.3101,2.3101,2.2775,2.2129,2.1489,2.0877,2.0282,1.9943,1.9534,1.9131,1.8772,1.8457,1.8157,1.8011,1.785,1.7552,1.7201,1.7224,1.7408,1.7561,1.7656,1.7698,1.7698,1.7617,1.735,1.7241,1.718,1.7257,1.7565,1.7025,1.6418,1.598,1.5791,1.5415,1.5232,1.4518,1.3796,1.4129,1.4581,1.4888,1.5119,1.5455,1.586,1.6375,1.6477,1.6292,1.6378,1.6742,1.7053,1.7013,1.7494,4.044,4.1728,4.2965,4.349,4.3409,4.2906,4.2241,4.1579,4.1007,4.0769,4.0693,4.0057,3.9697,3.9697,3.9697,3.9697,3.9697,3.9697,3.9697,3.9697,3.9697,3.9697,3.9697,3.9697,3.9697,3.9672,3.9294,3.8421,3.6516,3.5081,3.3814,3.2316,3.1277,3.0266,2.946,2.9365,2.9138,2.8354,2.8301,2.8301,2.8301,2.8301,2.8301,2.8301,2.8184,2.791,2.7764,2.7422,2.6924,2.6303,2.5957,2.5713,2.5669,2.564,2.5459,2.519,2.4965,2.4799,2.431,2.3949,2.3748,2.3379,2.2691,2.2505,2.1952,2.1876,2.1654,2.1056,2.0598,1.9988,1.9131,1.8634,1.7971,1.7467,1.7257,1.703,1.6889,1.6807,1.6613,1.6394,1.6088,1.5885,1.609,1.6394,1.6512,1.6636,1.6628,1.6659,1.6337,1.6044,1.5933,1.5888,1.6237,1.6008,1.5234,1.4921,1.4817,1.4384,1.4109,1.3837,1.3606,1.3397,1.3453,1.384,1.4222,1.4575,1.5013,1.5556,1.5772,1.5651,1.5764,1.5948,1.6245,1.6507,1.68,4.0718,4.1936,4.2858,4.3228,4.305,4.1887,4.1344,4.1157,4.0224,3.9736,3.9813,3.9774,3.9697,3.9697,3.9697,3.9697,3.9697,3.9697,3.9697,3.9697,3.9697,3.9697,3.9697,3.9697,3.9609,3.9242,3.8763,3.7241,3.5406,3.3868,3.2258,3.0715,2.949,2.8318,2.8301,2.8318,2.8301,2.8301,2.8301,2.8301,2.8301,2.8301,2.8301,2.8301,2.8291,2.8262,2.8132,2.7809,2.7353,2.6904,2.6245,2.5888,2.5728,2.5698,2.5542,2.5322,2.5264,2.498,2.4553,2.4052,2.3769,2.3292,2.2332,2.1503,2.0902,2.0463,2.0237,1.992,1.9465,1.8902,1.8018,1.7358,1.6669,1.6251,1.6109,1.5991,1.5944,1.5903,1.5745,1.5537,1.5284,1.5039,1.5127,1.541,1.5425,1.5579,1.5651,1.5645,1.5577,1.5333,1.5156,1.4986,1.5042,1.4628,1.4222,1.4271,1.4328,1.425,1.4063,1.3728,1.3427,1.323,1.3042,1.2948,1.3305,1.3976,1.4289,1.4712,1.4839,1.4939,1.5077,1.5189,1.5303,1.5563,1.5842,4.1985,4.3074,4.2339,4.1972,4.1777,4.063,4.007,4.0032,3.9865,3.9697,3.9697,3.9697,3.9697,3.9697,3.9697,3.9697,3.9697,3.9697,3.9697,3.9697,3.9697,3.9697,3.9697,3.9685,3.9421,3.8789,3.7768,3.5916,3.4228,3.2419,3.0626,2.9043,2.8853,2.8301,2.8301,2.8301,2.8301,2.8301,2.8301,2.8301,2.8301,2.8301,2.8301,2.8301,2.8291,2.8076,2.7809,2.7363,2.7148,2.6875,2.6504,2.605,2.5825,2.5708,2.5601,2.5407,2.5372,2.4976,2.4501,2.349,2.2931,2.2245,2.1179,2.0117,1.9476,1.8741,1.8542,1.8334,1.7902,1.7483,1.6803,1.6497,1.5967,1.5967,1.5872,1.5872,1.5849,1.5849,1.5782,1.5554,1.5336,1.5131,1.5012,1.4979,1.46,1.4768,1.4956,1.4963,1.4936,1.4668,1.4487,1.4321,1.4188,1.4156,1.413,1.4152,1.4166,1.413,1.4035,1.3808,1.3494,1.3072,1.2896,1.2921,1.3237,1.3842,1.4056,1.4059,1.4026,1.4127,1.4298,1.4417,1.4507,1.4613,1.4882]},{"header":{"parameterUnit":"m.s-1","parameterCategory":1,"la1":31.0,"la2":29.5877,"lo1":-88.7671,"lo2":-86.6584,"dy":0.0162,"dx":0.0185,"nx":115,"ny":88,"refTime":"2023-11-11T18:00:00:Z","depth":0,"parameterNumber":3,"parameterNumberName":"V-component_of_WINDS"},"data":[0.0,0.0,0.0,0.0,0.0,0.0,0.0,0.0,0.0,0.0,0.0,0.0,0.0,0.0,0.0,0.0,0.0,0.0,0.0,0.0,0.0,0.0,0.0,0.0,0.0,0.0,0.0,0.0,0.0,0.0,0.0,0.0,0.0,0.0,0.0,0.0,0.0,0.0,0.0,0.0,0.0,0.0,0.0,0.0,0.0,0.0,0.0,0.0,0.0,0.0,0.0,0.0,0.0,0.0,0.0,0.0,0.0,0.0,0.0,0.0,0.0,0.0,0.0,0.0,0.0,0.0,0.0,0.0,0.0,0.0,0.0,0.0,0.0,0.0,0.0,0.0,0.0,0.0,0.0,0.0,0.0,0.0,0.0,0.0,0.0,0.0,0.0,0.0,0.0,0.0,0.0,0.0,0.0,0.0,0.0,0.0,0.0,0.0,0.0,0.0,0.0,0.0,0.0,0.0,0.0,0.0,0.0,0.0,0.0,0.0,0.0,0.0,0.0,0.0,0.0,0.0,0.0,0.0,0.0,0.0,0.0,0.0,0.0,0.0,0.0,0.0,0.0,0.0,0.0,0.0,0.0,0.0,0.0,0.0,0.0,0.0,0.0,0.0,0.0,0.0,0.0,0.0,0.0,0.0,0.0,0.0,0.0,0.0,0.0,0.0,0.0,0.0,0.0,0.0,0.0,0.0,0.0,0.0,0.0,0.0,0.0,0.0,0.0,0.0,0.0,0.0,0.0,0.0,0.0,0.0,0.0,0.0,0.0,0.0,0.0,0.0,0.0,0.0,0.0,0.0,0.0,0.0,0.0,0.0,0.0,0.0,0.0,0.0,0.0,0.0,0.0,0.0,0.0,0.0,0.0,0.0,0.0,0.0,0.0,0.0,0.0,0.0,0.0,0.0,0.0,0.0,0.0,0.0,0.0,0.0,0.0,0.0,0.0,0.0,0.0,0.0,0.0,0.0,0.0,0.0,0.0,0.0,0.0,0.0,0.0,0.0,0.0,0.0,0.0,0.0,0.0,0.0,0.0,0.0,0.0,0.0,0.0,0.0,0.0,0.0,0.0,0.0,0.0,0.0,0.0,0.0,0.0,0.0,0.0,0.0,0.0,0.0,0.0,0.0,0.0,0.0,0.0,0.0,0.0,0.0,0.0,0.0,0.0,0.0,0.0,0.0,0.0,0.0,0.0,0.0,0.0,0.0,0.0,0.0,0.0,0.0,0.0,0.0,0.0,0.0,0.0,0.0,0.0,0.0,0.0,0.0,0.0,0.0,0.0,0.0,0.0,0.0,0.0,0.0,0.0,0.0,0.0,0.0,0.0,0.0,0.0,0.0,0.0,0.0,0.0,0.0,0.0,0.0,0.0,0.0,0.0,0.0,0.0,0.0,0.0,0.0,0.0,0.0,0.0,0.0,0.0,0.0,0.0,0.0,0.0,0.0,0.0,0.0,0.0,0.0,0.0,0.0,0.0,0.0,0.0,0.0,0.0,0.0,0.0,0.0,0.0,0.0,0.0,0.0,0.0,0.0,0.0,0.0,0.0,0.0,0.0,0.0,0.0,0.0,0.0,0.0,0.0,0.0,0.0,0.0,0.0,0.0,0.0,0.0,0.0,0.0,0.0,0.0,0.0,0.0,0.0,0.0,0.0,0.0,0.0,0.0,0.0,0.0,0.0,0.0,0.0,0.0,0.0,0.0,0.0,0.0,0.0,0.0,0.0,0.0,0.0,0.0,0.0,0.0,0.0,0.0,0.0,0.0,0.0,0.0,0.0,0.0,0.0,0.0,0.0,0.0,0.0,0.0,0.0,0.0,0.0,0.0,0.0,0.0,0.0,0.0,0.0,0.0,0.0,0.0,0.0,0.0,0.0,0.0,0.0,0.0,0.0,0.0,0.0,0.0,0.0,0.0,0.0,0.0,0.0,0.0,0.0,0.0,0.0,0.0,0.0,0.0,0.0,0.0,0.0,0.0,0.0,0.0,0.0,0.0,0.0,0.0,0.0,0.0,0.0,0.0,0.0,0.0,0.0,0.0,0.0,0.0,0.0,0.0,0.0,0.0,0.0,0.0,0.0,0.0,0.0,0.0,0.0,0.0,0.0,0.0,0.0,0.0,0.0,0.0,0.0,0.0,0.0,0.0,0.0,0.0,0.0,0.0,0.0,0.0,0.0,0.0,0.0,0.0,0.0,0.0,0.0,0.0,0.0,0.0,0.0,0.0,0.0,0.0,0.0,0.0,0.0,0.0,0.0,0.0,0.0,0.0,0.0,0.0,0.0,0.0,0.0,0.0,0.0,0.0,0.0,0.0,0.0,0.0,0.0,0.0,0.0,0.0,0.0,0.0,0.0,0.0,0.0,0.0,0.0,0.0,0.0,0.0,0.0,0.0,0.0,0.0,0.0,0.0,0.0,0.0,0.0,0.0,0.0,0.0,0.0,0.0,0.0,0.0,0.0,0.0,0.0,0.0,0.0,0.0,0.0,0.0,0.0,0.0,0.0,0.0,0.0,0.0,0.0,0.0,0.0,0.0,0.0,0.0,0.0,0.0,0.0,0.0,0.0,0.0,0.0,0.0,0.0,0.0,0.0,0.0,0.0,0.0,0.0,0.0,0.0,0.0,0.0,0.0,0.0,0.0,0.0,0.0,0.0,0.0,0.0,0.0,0.0,0.0,0.0,0.0,0.0,0.0,0.0,0.0,0.0,0.0,0.0,0.0,0.0,0.0,0.0,0.0,0.0,0.0,0.0,0.0,0.0,0.0,0.0,0.0,0.0,0.0,0.0,0.0,0.0,0.0,0.0,0.0,0.0,0.0,0.0,0.0,0.0,0.0,0.0,0.0,0.0,0.0,0.0,0.0,0.0,0.0,0.0,0.0,0.0,0.0,0.0,0.0,0.0,0.0,0.0,0.0,0.0,0.0,0.0,0.0,0.0,0.0,0.0,0.0,0.0,0.0,0.0,0.0,0.0,0.0,0.0,0.0,0.0,0.0,0.0,0.0,0.0,0.0,0.0,0.0,0.0,0.0,0.0,0.0,0.0,0.0,0.0,0.0,0.0,0.0,0.0,0.0,0.0,0.0,0.0,0.0,0.0,0.0,0.0,0.0,0.0,0.0,0.0,0.0,0.0,0.0,0.0,0.0,0.0,0.0,0.0,0.0,0.0,0.0,0.0,0.0,0.0,0.0,0.0,0.0,0.0,0.0,0.0,0.0,0.0,0.0,0.0,0.0,0.0,0.0,0.0,0.0,0.0,0.0,0.0,0.0,0.0,0.0,0.0,0.0,0.0,0.0,0.0,0.0,0.0,0.0,0.0,0.0,0.0,0.0,0.0,0.0,0.0,0.0,0.0,0.0,0.0,0.0,0.0,0.0,0.0,0.0,0.0,0.0,0.0,0.0,0.0,0.0,0.0,0.0,0.0,0.0,0.0,0.0,0.0,0.0,0.0,0.0,0.0,0.0,0.0,0.0,0.0,0.0,0.0,0.0,0.0,0.0,0.0,0.0,0.0,0.0,0.0,0.0,0.0,0.0,0.0,0.0,0.0,0.0,0.0,0.0,0.0,0.0,0.0,0.0,0.0,0.0,0.0,0.0,0.0,0.0,0.0,0.0,0.0,0.0,0.0,0.0,0.0,0.0,0.0,0.0,0.0,0.0,0.0,0.0,0.0,0.0,0.0,0.0,0.0,0.0,0.0,0.0,0.0,0.0,0.0,0.0,0.0,0.0,0.0,0.0,0.0,0.0,0.0,0.0,0.0,0.0,0.0,0.0,0.0,0.0,0.0,0.0,0.0,0.0,0.0,0.0,0.0,0.0,0.0,0.0,0.0,0.0,0.0,0.0,0.0,0.0,0.0,0.0,0.0,0.0,0.0,0.0,0.0,0.0,0.0,0.0,0.0,0.0,0.0,0.0,0.0,0.0,0.0,0.0,0.0,0.0,0.0,0.0,0.0,0.0,0.0,0.0,0.0,0.0,0.0,0.0,0.0,0.0,0.0,0.0,0.0,0.0,0.0,0.0,0.0,0.0,0.0,0.0,0.0,0.0,0.0,0.0,0.0,0.0,0.0,0.0,0.0,0.0,0.0,0.0,0.0,0.0,0.0,0.0,0.0,0.0,0.0,0.0,0.0,0.0,0.0,0.0,0.0,0.0,0.0,0.0,0.0,0.0,0.0,0.0,0.0,0.0,0.0,0.0,0.0,0.0,0.0,0.0,0.0,0.0,0.0,0.0,0.0,0.0,0.0,0.0,0.0,0.0,0.0,0.0,0.0,0.0,0.8316,0.0,0.0,0.0,0.0,0.0,0.0,0.0,0.0,0.0,0.0,0.0,0.0,0.0,0.0,0.0,0.0,0.0,0.0,0.0,0.0,0.0,0.0,0.0,0.0,0.0,0.0,0.0,0.0,0.0,0.0,0.0,0.0,0.0,0.0,0.0,0.0,0.0,0.0,0.0,0.0,0.0,0.0,0.0,0.0,0.0,0.0,0.0,0.0,0.0,0.0,0.0,0.0,0.0,0.0,0.0,0.0,0.0,0.0,0.0,0.0,0.0,0.0,0.0,0.0,0.0,0.0,0.0,0.0,0.0,0.0,0.0,0.0,0.0,0.0,0.0,0.0,0.0,0.0,0.0,0.0,0.0,0.0,0.0,0.0,0.0,0.0,0.0,0.0,0.0,0.0,0.0,0.0,0.0,0.0,0.0,0.0,0.0,0.0,0.0,0.0,0.0,0.0,0.0,0.0,0.0,0.0,0.0,0.0,0.0,0.0,0.8684,0.8784,0.8543,0.8389,0.8402,0.0,0.0,0.0,0.0,0.0,0.0,0.0,0.0,0.0,0.0,0.0,0.0,0.0,0.0,0.0,0.0,0.0,0.0,0.0,0.0,0.0,0.0,0.0,0.0,0.0,0.0,0.0,0.0,0.0,0.0,0.0,0.0,0.0,0.0,0.0,0.0,0.0,0.0,0.0,0.0,0.0,0.0,0.0,0.0,0.0,0.0,0.0,0.0,0.0,0.0,0.0,0.0,0.0,0.0,0.0,0.0,0.0,0.0,0.0,0.0,0.0,0.0,0.0,0.0,0.0,0.0,0.0,0.0,0.0,0.0,0.0,0.0,0.0,0.0,0.0,0.0,0.0,0.0,0.0,0.0,0.0,0.0,0.0,0.0,0.0,0.0,0.0,0.0,0.0,0.0,0.0,0.0,0.0,0.0,0.0,0.0,0.0,0.0,0.0,0.0,0.0,0.0,0.0,0.0,0.0,0.0,0.0,0.0,0.0,0.0,0.0,0.0,0.8931,0.8751,0.871,0.0,0.0,0.0,0.0,0.0,0.0,0.0,0.0,0.0,0.0,0.0,0.0,0.0,0.0,0.0,0.0,0.0,0.0,0.0,0.0,0.0,0.0,0.0,0.0,0.0,0.0,0.0,0.0,0.0,0.0,0.0,0.0,0.0,0.0,0.0,0.0,0.0,0.0,0.0,0.0,0.0,0.0,0.0,0.0,0.0,0.0,0.0,0.0,0.0,0.0,0.0,0.0,0.0,0.0,0.0,0.0,0.0,0.0,0.0,0.0,0.0,0.0,0.0,0.0,0.0,0.0,0.0,0.0,0.0,0.0,0.0,0.0,0.0,0.0,0.0,0.0,0.0,0.0,0.0,0.0,0.0,0.0,0.0,0.0,0.0,0.0,0.0,0.0,0.0,0.0,0.0,0.0,0.0,0.0,0.0,0.0,0.0,0.0,0.0,0.0,0.0,0.0,0.0,0.0,0.0,0.0,0.0,0.0,0.0,0.0,0.9312,1.0392,1.01,0.0,0.9574,0.0,0.0,0.0,0.0,0.0,0.0,0.0,0.0,0.0,0.0,0.0,0.0,0.0,0.0,0.0,0.0,0.0,0.0,0.0,0.0,0.0,0.0,0.0,0.0,0.0,0.0,0.0,0.0,0.0,0.0,0.0,0.0,0.0,0.0,0.0,0.0,0.0,0.0,0.0,0.0,0.0,0.0,0.0,0.0,0.0,0.0,0.0,0.0,0.0,0.0,0.0,0.0,0.0,0.0,0.0,0.0,0.0,0.0,0.0,0.0,0.0,0.0,0.0,0.0,0.0,0.0,0.0,0.0,0.0,0.0,0.0,0.0,0.0,0.0,0.0,0.0,0.0,0.0,0.0,0.0,0.0,0.0,0.0,0.0,0.0,0.0,0.0,0.0,0.0,0.0,0.0,0.0,0.0,0.0,0.0,0.0,0.0,0.0,0.0,0.0,0.0,0.0,0.0,0.0,0.0,0.0,0.0,0.0,0.0,0.0,0.9445,1.0289,1.0035,0.9646,0.0,0.0,0.0,0.0,0.0,0.0,0.0,0.0,0.0,0.0,0.0,0.0,0.0,0.0,0.0,0.0,0.0,0.0,0.0,0.0,0.0,0.0,0.0,0.0,0.0,0.0,0.0,0.0,0.0,0.0,0.0,0.0,0.0,0.0,0.0,0.0,0.0,0.0,0.0,0.0,0.0,0.0,0.0,0.0,0.0,0.0,0.0,0.0,0.0,0.0,0.0,0.0,0.0,0.0,0.0,0.0,0.0,0.0,0.0,0.0,0.0,0.0,0.0,0.0,0.0,0.0,0.0,0.0,0.0,0.0,0.0,0.0,0.0,0.0,0.0,0.0,0.0,0.0,0.0,0.0,0.0,0.0,0.0,0.0,0.0,0.0,0.0,0.0,0.0,0.0,0.0,0.0,0.0,0.0,0.0,0.0,0.0,0.0,0.0,0.0,0.0,0.0,0.0,0.0,0.0,0.0,0.0,0.0,0.0,0.0,0.9405,0.9632,1.0167,0.9654,0.9186,0.8804,0.0,0.0,0.0,0.0,0.0,0.0,0.0,0.0,0.0,0.0,0.0,0.0,0.0,0.0,0.0,0.0,0.0,0.0,0.0,0.0,0.0,0.0,0.0,0.0,0.0,0.0,0.0,0.0,0.0,0.0,0.0,0.0,0.0,0.0,0.0,0.0,0.0,0.0,0.0,0.0,0.0,0.0,0.0,0.0,0.0,0.0,0.0,0.0,0.0,0.0,0.0,0.0,0.0,0.0,0.0,0.0,0.0,0.0,0.0,0.0,0.0,0.0,0.0,0.0,0.0,0.0,0.0,0.0,0.0,0.0,0.0,0.0,0.0,0.0,0.0,0.0,0.0,0.0,0.0,0.0,0.0,0.0,0.0,0.0,0.0,0.0,0.0,0.0,0.0,0.0,0.0,0.0,0.0,0.0,0.0,0.0,0.0,0.0,0.0,0.0,0.0,0.0,0.0,0.0,0.0,0.0,0.0,0.0,1.1096,1.02,0.9955,1.0521,0.9206,0.8576,0.0,0.0,0.0,0.0,0.0,0.0,0.0,0.0,0.0,0.0,0.0,0.0,0.0,0.0,0.0,0.0,0.0,0.0,0.0,0.0,0.0,0.0,0.0,0.0,0.0,0.0,0.0,0.0,0.0,0.0,0.0,0.0,0.0,0.0,0.0,0.0,0.0,0.0,0.0,0.0,0.0,0.0,0.0,0.0,0.0,0.0,0.0,0.0,0.0,0.0,0.0,0.0,0.0,0.0,0.0,0.0,0.0,0.0,0.0,0.0,0.0,0.0,0.0,0.0,0.0,0.0,0.0,0.0,0.0,0.0,0.0,0.0,0.0,0.0,0.0,0.0,0.0,0.0,0.0,0.0,0.0,0.0,0.0,0.0,0.0,0.0,0.0,0.0,0.0,0.0,0.0,0.0,0.0,0.0,0.0,0.0,0.0,0.0,0.0,0.0,0.0,0.0,0.0,0.0,0.0,0.0,0.0,0.0,0.0,0.9426,0.9419,0.9665,1.0207,0.9218,0.8784,0.0,0.0,0.0,0.0,0.0,0.0,0.0,0.0,0.0,0.0,0.0,0.0,0.0,0.0,0.0,0.0,0.0,0.0,0.0,0.0,0.0,0.0,0.0,0.0,0.0,0.0,0.0,0.0,0.0,0.0,0.0,0.0,0.0,0.0,0.0,0.0,0.0,0.0,0.0,0.0,0.0,0.0,0.0,0.0,0.0,0.0,0.0,0.0,0.0,0.0,0.0,0.0,0.0,0.0,0.0,0.0,0.0,0.0,0.0,0.0,0.0,0.0,0.0,0.0,0.0,0.0,0.0,0.0,0.0,0.0,0.0,0.0,0.0,0.0,0.0,0.0,0.0,0.0,0.0,0.0,0.0,0.0,0.0,0.0,0.0,0.0,0.0,0.0,0.0,0.0,0.0,0.0,0.0,0.0,0.0,0.0,0.0,0.0,0.0,0.0,0.0,0.0,0.0,0.0,0.0,0.0,0.0,0.0,0.0,0.8945,0.0,0.969,0.9778,0.9058,0.8701,0.0,0.0,0.0,0.0,0.0,0.0,0.0,0.0,0.0,0.0,0.0,0.0,0.0,0.0,0.0,0.0,0.0,0.0,0.0,0.0,0.0,0.0,0.0,0.0,0.0,0.0,0.0,0.0,0.0,0.0,0.0,0.0,0.0,0.0,0.0,0.0,0.0,0.0,0.0,0.0,0.0,0.0,0.0,0.0,0.0,0.0,0.0,0.0,0.0,0.0,0.0,0.0,0.0,0.0,0.0,0.0,0.0,0.0,0.0,0.0,0.0,0.0,0.0,0.0,0.0,0.0,0.0,0.0,0.0,0.0,0.0,0.0,0.0,0.0,0.0,0.0,0.0,0.0,0.0,0.0,0.0,0.0,0.0,0.0,0.0,0.0,0.0,0.0,0.0,0.0,0.0,0.0,0.0,0.0,0.0,0.0,0.0,0.0,0.0,0.0,0.0,0.0,0.0,0.0,0.0,0.0,0.0,0.0,0.8945,0.9998,1.0367,1.0112,0.9244,0.871,0.8279,0.0,0.0,0.0,0.0,0.0,0.0,0.0,0.0,0.0,0.0,0.0,0.0,0.0,0.0,0.0,0.0,0.0,0.0,0.0,0.0,0.0,0.0,0.0,0.0,0.0,0.0,0.0,0.0,0.0,0.0,0.0,0.0,0.0,0.0,0.0,0.0,0.0,0.0,0.0,0.0,0.0,0.0,0.0,0.0,0.0,0.0,0.0,0.0,0.0,0.0,0.0,0.0,0.0,0.0,0.0,0.0,0.0,0.0,0.0,0.0,0.0,0.0,0.0,0.0,0.0,0.0,0.0,0.0,0.0,0.0,0.0,0.0,0.0,0.0,0.0,0.0,0.0,0.0,0.0,0.0,0.0,0.0,0.0,0.0,0.0,0.0,0.0,0.0,0.0,0.0,0.0,0.0,0.0,0.0,0.0,0.0,0.0,0.0,0.0,0.0,0.0,0.0,0.0,0.0,0.0,0.0,0.0,0.0,0.0,0.8951,0.9665,0.9988,0.9809,0.8945,0.8975,0.0,0.0,0.0,0.0,0.0,0.0,0.0,0.0,0.0,0.0,0.0,0.0,0.0,0.0,0.0,0.0,0.0,0.0,0.0,0.0,0.0,0.0,0.0,0.0,0.0,0.0,0.0,0.0,0.0,0.0,0.0,0.0,0.0,0.0,0.0,0.0,0.0,0.0,0.0,0.0,0.0,0.0,0.0,0.0,0.0,0.0,0.0,0.0,0.0,0.0,0.0,0.0,0.0,0.0,0.0,0.0,0.0,0.0,0.0,0.0,0.0,0.0,0.0,0.0,0.0,0.0,0.0,0.0,0.0,0.0,0.0,0.0,0.0,0.0,0.0,0.0,0.0,0.0,0.0,0.0,0.0,0.0,0.0,0.0,0.0,0.0,0.0,0.0,0.0,0.0,0.0,0.0,0.0,0.0,0.0,0.0,0.0,0.0,0.0,0.0,0.0,0.0,0.0,0.0,0.0,0.0,0.0,0.0,0.0,0.9843,1.029,1.0471,1.0319,0.9854,1.0033,1.091,0.0,0.0,0.0,0.0,0.0,0.0,0.0,0.0,0.0,0.0,0.0,0.0,0.0,0.0,0.0,0.0,0.0,0.0,0.0,0.0,0.0,0.0,0.0,0.0,0.0,0.0,0.0,0.0,0.0,0.0,0.0,0.0,0.0,0.0,0.0,0.0,0.0,0.0,0.0,0.0,0.0,0.0,0.0,0.0,0.0,0.0,0.0,0.0,0.0,0.0,0.0,0.0,0.0,0.0,0.0,0.0,0.0,0.0,0.0,0.0,0.0,0.0,0.0,0.0,0.0,0.0,0.0,0.0,0.0,0.0,0.0,0.0,0.0,0.0,0.0,0.0,0.0,0.0,0.0,0.0,0.0,0.0,0.0,0.0,0.0,0.0,0.0,0.0,0.0,0.0,0.0,0.0,0.0,0.0,0.0,0.0,0.0,0.0,0.0,0.0,0.0,0.0,0.0,0.0,0.0,0.0,0.0,0.0,1.2205,1.2104,1.1669,1.0927,1.1323,1.1365,0.0,0.0,0.0,0.0,0.0,0.0,0.0,0.0,0.0,0.0,0.0,0.0,0.0,0.0,0.0,0.0,0.0,0.0,0.0,0.0,0.0,0.0,0.0,0.0,0.0,0.0,0.0,0.0,0.0,0.0,0.0,0.0,0.0,0.0,0.0,0.0,0.0,0.0,0.0,0.0,0.0,0.0,0.0,0.0,0.0,0.0,0.0,0.0,0.0,0.0,0.0,0.0,0.0,0.0,0.0,0.0,0.0,0.0,0.0,0.0,0.0,0.0,0.0,0.0,0.0,0.0,0.0,0.0,0.0,0.0,0.0,0.0,0.0,0.0,0.0,0.0,0.0,0.0,0.0,0.0,0.0,0.0,0.0,0.0,0.0,0.0,0.0,0.0,0.0,0.0,0.0,0.0,0.0,0.0,0.0,0.0,0.0,0.0,0.0,0.0,0.0,0.0,0.0,0.0,0.0,0.0,0.0,0.0,0.0,1.2505,1.4103,1.4286,1.2901,1.2543,1.2332,0.0,0.0,0.0,0.0,0.0,0.0,0.0,0.0,0.0,0.0,0.0,0.0,0.0,0.0,0.0,0.0,0.0,0.0,0.0,0.0,0.0,0.0,0.0,0.0,0.0,0.0,0.0,0.0,0.0,0.0,0.0,0.0,0.0,0.0,0.0,0.0,0.0,0.0,0.0,0.0,0.0,0.0,0.0,0.0,0.0,0.0,0.0,0.0,0.0,0.0,0.0,0.0,0.0,0.0,0.0,0.0,0.0,0.0,0.0,0.0,0.0,0.0,0.0,0.0,0.0,0.0,0.0,0.0,0.0,0.0,0.0,0.0,0.0,0.0,0.0,0.0,0.0,0.0,0.0,0.0,0.0,0.0,0.0,0.0,0.0,0.0,0.0,0.0,0.0,0.0,0.0,0.0,0.0,0.0,0.0,0.0,0.0,0.0,0.0,0.0,0.0,0.0,0.0,0.0,0.0,0.0,0.0,0.0,1.3028,1.4347,1.5805,1.6205,1.5484,1.4762,1.3955,0.0,0.0,0.0,0.0,0.0,0.0,0.0,0.0,0.0,0.0,0.0,0.0,0.0,0.0,0.0,0.0,0.0,0.0,0.0,0.0,0.0,0.0,0.0,0.0,0.0,0.0,0.0,0.0,0.0,0.0,0.0,0.0,0.0,0.0,0.0,0.0,0.0,0.0,0.0,0.0,0.0,0.0,0.0,0.0,0.0,0.0,0.0,0.0,0.0,0.0,0.0,0.0,0.0,0.0,0.0,0.0,0.0,0.0,0.0,0.0,0.0,0.0,0.0,0.0,0.0,0.0,0.0,0.0,0.0,0.0,0.0,0.0,0.0,0.0,0.0,0.0,0.0,0.0,0.0,0.0,0.0,0.0,0.0,0.0,0.0,0.0,0.0,0.0,0.0,0.0,0.0,0.0,0.0,0.0,0.0,0.0,0.0,0.0,0.0,0.0,0.0,0.0,0.0,0.0,0.0,0.0,0.0,0.0,1.4189,1.6813,1.726,1.7652,1.7998,1.7158,1.5689,0.0,0.0,0.0,0.0,0.0,0.0,0.0,0.0,0.0,0.0,0.0,0.0,0.0,0.0,0.0,0.0,0.0,0.0,0.0,0.0,0.0,0.0,0.0,0.0,0.0,0.0,0.0,0.0,0.0,0.0,0.0,0.0,0.0,0.0,0.0,0.0,0.0,0.0,0.0,0.0,0.0,0.0,0.0,0.0,0.0,0.0,0.0,0.0,0.0,0.0,0.0,0.0,0.0,0.0,0.0,0.0,0.0,0.0,0.0,0.0,0.0,0.0,0.0,0.0,0.0,0.0,0.0,0.0,0.0,0.0,0.0,0.0,0.0,0.0,0.0,0.0,0.0,0.0,0.0,0.0,0.0,0.0,0.0,0.0,0.0,0.0,0.0,0.0,0.0,0.0,0.0,0.0,0.0,0.0,0.0,0.0,0.0,0.0,0.0,0.0,0.0,0.0,0.0,0.0,0.0,0.0,0.0,0.0,1.5599,1.7383,1.8663,1.9049,1.8481,1.7171,1.5697,0.0,0.0,0.0,0.0,0.0,0.0,0.0,0.0,0.0,0.0,0.0,0.0,0.0,0.0,0.0,0.0,0.0,0.0,0.0,0.0,0.0,0.0,0.0,0.0,0.0,0.0,0.0,0.0,0.0,0.0,0.0,0.0,0.0,0.0,0.0,0.0,0.0,0.0,0.0,0.0,0.0,0.0,0.0,0.0,0.0,0.0,0.0,0.0,1.6667,0.0,0.0,0.0,0.0,0.0,0.0,0.0,0.0,0.0,0.0,0.0,0.0,0.0,0.0,0.0,0.0,0.0,0.0,0.0,0.0,0.0,0.0,0.0,0.0,0.0,0.0,0.0,0.0,0.0,0.0,0.0,0.0,0.0,0.0,0.0,0.0,0.0,0.0,0.0,0.0,0.0,0.0,0.0,0.0,0.0,0.0,0.0,0.0,0.0,0.0,0.0,0.0,0.0,0.0,0.0,0.0,0.0,0.0,0.0,1.6243,1.8331,1.9192,1.9307,1.8603,1.7436,1.6213,0.0,0.0,0.0,0.0,0.0,0.0,0.0,0.0,0.0,0.0,0.0,0.0,0.0,0.0,0.0,0.0,0.0,0.0,0.0,0.0,0.0,0.0,0.0,0.0,0.0,0.0,0.0,0.0,0.0,0.0,0.0,0.0,0.0,0.0,0.0,0.0,0.0,0.0,0.0,0.0,0.0,0.0,0.0,0.0,0.0,0.0,0.0,0.0,0.0,0.0,0.0,0.0,0.0,0.0,0.0,0.0,0.0,0.0,0.0,0.0,0.0,0.0,0.0,0.0,0.0,0.0,0.0,0.0,0.0,0.0,0.0,0.0,0.0,0.0,0.0,0.0,0.0,0.0,0.0,0.0,0.0,0.0,0.0,0.0,0.0,0.0,0.0,0.0,0.0,0.0,0.0,0.0,0.0,0.0,0.0,0.0,0.0,0.0,0.0,0.0,0.0,0.0,0.0,0.0,0.0,0.0,0.0,1.4784,1.6647,1.9359,1.9442,1.9132,1.8605,1.7674,1.6697,1.5741,0.0,0.0,0.0,0.0,0.0,0.0,0.0,0.0,0.0,0.0,0.0,0.0,0.0,0.0,0.0,0.0,0.0,0.0,0.0,0.0,0.0,0.0,0.0,0.0,0.0,0.0,0.0,0.0,0.0,0.0,0.0,0.0,0.0,0.0,0.0,0.0,0.0,0.0,1.5541,1.7071,0.0,0.0,0.0,0.0,0.0,0.0,0.0,0.0,1.7312,0.0,0.0,0.0,0.0,0.0,0.0,0.0,0.0,0.0,0.0,0.0,0.0,0.0,0.0,0.0,0.0,0.0,0.0,0.0,0.0,0.0,0.0,0.0,0.0,0.0,0.0,0.0,0.0,0.0,0.0,0.0,0.0,0.0,0.0,0.0,0.0,0.0,0.0,0.0,0.0,0.0,0.0,0.0,0.0,0.0,0.0,0.0,0.0,0.0,0.0,0.0,0.0,0.0,0.0,0.0,0.0,1.5515,1.5925,1.7499,2.0283,2.0,1.9425,1.8613,1.7262,1.6283,1.5724,0.0,0.0,0.0,0.0,0.0,0.0,0.0,0.0,0.0,0.0,0.0,0.0,0.0,0.0,0.0,0.0,0.0,0.0,0.0,0.0,0.0,0.0,0.0,0.0,0.0,0.0,0.0,0.0,0.0,0.0,0.0,0.0,0.0,0.0,0.0,0.0,0.0,0.0,0.0,1.712,1.7807,0.0,0.0,0.0,0.0,0.0,0.0,0.0,0.0,1.6581,0.0,0.0,0.0,0.0,0.0,0.0,0.0,0.0,0.0,0.0,0.0,0.0,0.0,0.0,0.0,0.0,0.0,0.0,0.0,0.0,0.0,0.0,0.0,0.0,0.0,0.0,0.0,0.0,0.0,0.0,0.0,0.0,0.0,0.0,0.0,0.0,0.0,0.0,0.0,0.0,0.0,0.0,0.0,0.0,0.0,0.0,0.0,0.0,0.0,0.0,0.0,0.0,0.0,0.0,0.0,1.518,1.6347,1.7964,2.0137,1.9805,1.9064,1.7998,1.6713,1.568,0.0,0.0,0.0,0.0,0.0,0.0,0.0,0.0,0.0,0.0,0.0,0.0,0.0,0.0,0.0,0.0,0.0,0.0,0.0,0.0,0.0,0.0,0.0,0.0,0.0,0.0,0.0,0.0,0.0,0.0,0.0,0.0,0.0,0.0,0.0,0.0,0.0,0.0,0.0,0.0,1.7238,1.7537,1.6979,0.0,0.0,0.0,0.0,0.0,0.0,1.6482,1.6393,0.0,0.0,0.0,0.0,0.0,0.0,0.0,0.0,0.0,0.0,0.0,0.0,0.0,0.0,0.0,0.0,0.0,0.0,0.0,0.0,0.0,0.0,0.0,0.0,0.0,0.0,0.0,0.0,0.0,0.0,0.0,0.0,0.0,0.0,0.0,0.0,0.0,0.0,0.0,0.0,0.0,0.0,0.0,0.0,0.0,0.0,0.0,0.0,0.0,0.0,0.0,0.0,0.0,0.0,0.0,1.4866,1.6616,1.8279,1.9806,1.9424,1.8562,1.7292,1.6134,1.5026,0.0,0.0,0.0,0.0,0.0,0.0,0.0,0.0,0.0,0.0,0.0,0.0,0.0,0.0,0.0,0.0,0.0,0.0,0.0,0.0,0.0,0.0,0.0,0.0,0.0,0.0,0.0,0.0,0.0,0.0,0.0,0.0,0.0,0.0,0.0,0.0,0.0,0.0,0.0,0.0,0.0,1.74,1.7175,1.7241,0.0,0.0,0.0,0.0,1.6651,1.6785,0.0,0.0,0.0,0.0,0.0,0.0,0.0,0.0,0.0,0.0,0.0,0.0,0.0,0.0,0.0,0.0,0.0,0.0,0.0,0.0,0.0,0.0,0.0,0.0,0.0,0.0,0.0,0.0,0.0,0.0,0.0,0.0,0.0,0.0,0.0,0.0,0.0,0.0,0.0,0.0,0.0,0.0,0.0,0.0,0.0,0.0,0.0,0.0,0.0,0.0,0.0,0.0,0.0,0.0,0.0,0.0,1.5526,1.7121,1.8566,1.9786,1.9095,1.8061,1.6804,1.5561,1.4472,0.0,0.0,0.0,0.0,0.0,0.0,0.0,0.0,0.0,0.0,0.0,0.0,0.0,0.0,0.0,0.0,0.0,0.0,0.0,0.0,0.0,0.0,0.0,0.0,0.0,0.0,0.0,0.0,0.0,0.0,0.0,0.0,0.0,0.0,0.0,0.0,0.0,0.0,0.0,0.0,0.0,1.7743,1.6734,1.706,1.7188,0.0,0.0,1.6676,1.72,1.7689,0.0,0.0,0.0,0.0,0.0,0.0,0.0,0.0,0.0,0.0,0.0,0.0,0.0,0.0,0.0,0.0,0.0,0.0,0.0,0.0,0.0,0.0,0.0,0.0,0.0,0.0,0.0,0.0,0.0,0.0,0.0,0.0,0.0,0.0,0.0,0.0,0.0,0.0,0.0,0.0,0.0,0.0,0.0,0.0,0.0,0.0,0.0,0.0,0.0,0.0,0.0,0.0,0.0,0.0,0.0,1.4169,1.5716,1.7712,1.9022,1.9503,1.8919,1.7883,1.6387,1.4863,1.3887,0.0,0.0,0.0,0.0,0.0,0.0,0.0,0.0,0.0,0.0,0.0,0.0,0.0,0.0,0.0,0.0,0.0,0.0,0.0,0.0,0.0,0.0,0.0,0.0,0.0,0.0,0.0,0.0,0.0,0.0,0.0,0.0,0.0,0.0,0.0,0.0,0.0,0.0,0.0,0.0,0.0,0.0,1.7085,1.7488,0.0,0.0,0.0,1.7904,1.7853,0.0,0.0,0.0,0.0,0.0,0.0,0.0,0.0,0.0,0.0,0.0,0.0,0.0,0.0,0.0,0.0,0.0,0.0,0.0,0.0,0.0,0.0,0.0,0.0,0.0,0.0,0.0,0.0,0.0,0.0,0.0,0.0,0.0,0.0,0.0,0.0,0.0,0.0,0.0,0.0,0.0,0.0,0.0,0.0,0.0,0.0,0.0,0.0,0.0,0.0,0.0,0.0,0.0,0.0,0.0,0.0,0.0,1.595,1.8049,1.9121,1.912,1.8461,1.7366,1.5826,1.4189,0.0,0.0,0.0,0.0,0.0,0.0,0.0,0.0,0.0,0.0,0.0,0.0,0.0,0.0,0.0,0.0,0.0,0.0,0.0,0.0,0.0,0.0,0.0,0.0,0.0,0.0,0.0,1.4164,0.0,0.0,0.0,0.0,0.0,0.0,0.0,0.0,0.0,0.0,0.0,0.0,0.0,0.0,1.755,1.7412,1.7978,1.8255,0.0,0.0,1.8819,1.8267,1.888,1.9035,0.0,0.0,0.0,0.0,0.0,0.0,0.0,0.0,0.0,0.0,0.0,0.0,0.0,0.0,0.0,0.0,0.0,0.0,0.0,0.0,0.0,0.0,0.0,0.0,0.0,0.0,0.0,0.0,0.0,0.0,0.0,0.0,0.0,0.0,0.0,0.0,0.0,0.0,0.0,0.0,0.0,0.0,0.0,0.0,0.0,0.0,0.0,0.0,0.0,0.0,0.0,0.0,0.0,0.0,1.5137,1.6618,1.7966,1.8646,1.8607,1.7457,1.6215,1.4916,1.3616,1.2932,0.0,0.0,0.0,0.0,0.0,0.0,0.0,0.0,0.0,0.0,0.0,0.0,0.0,0.0,0.0,0.0,0.0,0.0,0.0,0.0,0.0,0.0,0.0,0.0,0.0,0.0,0.0,0.0,0.0,0.0,0.0,0.0,0.0,0.0,0.0,0.0,0.0,0.0,0.0,0.0,0.0,1.7978,1.7475,1.828,1.8933,0.0,1.8958,1.8807,1.828,1.9486,1.9616,1.7042,0.0,0.0,0.0,0.0,0.0,0.0,0.0,0.0,0.0,0.0,0.0,0.0,0.0,0.0,0.0,0.0,0.0,0.0,0.0,0.0,0.0,0.0,0.0,0.0,0.0,0.0,0.0,0.0,0.0,0.0,0.0,0.0,0.0,0.0,0.0,0.0,0.0,0.0,0.0,0.0,0.0,0.0,0.0,0.0,0.0,0.0,0.0,0.0,0.0,0.0,0.0,0.0,0.0,1.5844,1.6707,1.7954,1.8598,1.8549,1.736,1.6088,1.4838,1.3278,1.2469,0.0,0.0,0.0,0.0,0.0,0.0,0.0,0.0,0.0,0.0,0.0,0.0,0.0,0.0,0.0,0.0,0.0,0.0,0.0,0.0,0.0,0.0,0.0,0.0,0.0,0.0,0.0,0.0,1.3827,1.4702,1.5279,0.0,0.0,0.0,0.0,0.0,0.0,0.0,0.0,0.0,0.0,1.8732,1.8869,1.956,0.0,0.0,1.9798,1.9723,1.8844,1.9486,1.9526,1.7828,1.826,0.0,0.0,0.0,0.0,0.0,0.0,0.0,0.0,0.0,0.0,0.0,0.0,0.0,0.0,0.0,0.0,0.0,0.0,0.0,0.0,0.0,0.0,0.0,0.0,0.0,0.0,0.0,0.0,0.0,0.0,0.0,0.0,0.0,0.0,0.0,0.0,0.0,0.0,0.0,0.0,0.0,0.0,0.0,0.0,0.0,0.0,0.0,0.0,0.0,0.0,0.0,0.0,1.6698,1.7096,1.8221,1.8732,1.861,1.7104,1.5766,1.46,1.2917,1.2067,0.0,0.0,0.0,0.0,0.0,0.0,0.0,0.0,0.0,0.0,0.0,0.0,0.0,0.0,0.0,0.0,0.0,0.0,0.0,0.0,0.0,0.0,0.0,0.0,0.0,0.0,0.0,0.0,1.4243,1.5228,1.5652,0.0,0.0,0.0,0.0,0.0,0.0,0.0,0.0,0.0,0.0,1.9133,1.9509,2.0213,2.0616,2.0351,2.0653,2.0603,1.9647,1.9808,1.9577,1.8193,0.0,0.0,0.0,0.0,0.0,0.0,0.0,0.0,0.0,0.0,0.0,0.0,0.0,0.0,0.0,0.0,0.0,0.0,0.0,0.0,0.0,0.0,0.0,0.0,0.0,0.0,0.0,1.1872,0.0,0.0,1.3002,0.0,0.0,0.0,0.0,0.0,0.0,0.0,0.0,0.0,0.0,0.0,0.0,0.0,0.0,0.0,0.0,0.0,0.0,0.0,0.0,0.0,0.0,1.7541,1.798,1.8793,1.9034,1.8584,1.6533,1.502,1.412,1.2502,1.1798,1.2205,0.0,0.0,0.0,0.0,0.0,0.0,0.0,0.0,0.0,0.0,0.0,0.0,0.0,0.0,0.0,0.0,0.0,0.0,0.0,0.0,0.0,0.0,0.0,0.0,0.0,0.0,1.4585,1.5263,1.5673,0.0,0.0,0.0,0.0,0.0,0.0,0.0,0.0,0.0,1.7423,1.8343,1.9008,1.9033,1.9974,2.083,2.1331,2.1419,2.1256,2.0654,2.0566,1.9863,0.0,0.0,0.0,0.0,0.0,0.0,0.0,0.0,0.0,0.0,0.0,0.0,0.0,0.0,0.0,0.0,0.0,0.0,0.0,0.0,0.0,0.0,0.0,0.0,0.0,0.0,0.0,1.4347,1.5065,0.0,0.0,0.0,0.0,0.0,0.0,0.0,0.0,0.0,0.0,0.0,1.75,1.9053,0.0,0.0,0.0,0.0,0.0,0.0,0.0,0.0,0.0,0.0,0.0,0.0,1.719,1.8459,1.8191,1.843,1.9101,1.6709,1.4972,1.411,1.273,1.2069,1.2194,0.0,0.0,0.0,0.0,0.0,0.0,0.0,0.0,0.0,0.0,0.0,0.0,0.0,0.0,0.0,0.0,0.0,0.0,0.0,0.0,0.0,0.0,0.0,0.0,0.0,1.4801,0.0,0.0,0.0,0.0,0.0,0.0,0.0,0.0,0.0,0.0,0.0,1.7398,1.7398,1.8318,1.9008,1.9008,1.9635,2.0175,0.0,0.0,0.0,0.0,0.0,0.0,0.0,0.0,0.0,0.0,0.0,0.0,0.0,0.0,2.1248,1.9384,1.9161,1.9271,1.9259,0.0,0.0,0.0,0.0,0.0,0.0,0.0,0.0,0.0,0.0,0.0,0.0,0.0,0.0,1.581,0.0,1.6337,0.0,0.0,0.0,0.0,0.0,0.0,0.0,0.0,1.7776,1.9158,1.9763,2.1028,2.1399,0.0,2.1097,2.025,0.0,0.0,0.0,0.0,0.0,0.0,0.0,0.0,1.7786,1.891,1.8684,1.8826,1.9285,1.6936,1.5156,1.4124,1.2866,1.2229,1.2308,1.2233,1.2574,0.0,0.0,0.0,0.0,0.0,0.0,0.0,0.0,0.0,0.0,0.0,0.0,0.0,0.0,0.0,0.0,0.0,0.0,0.0,0.0,0.0,0.0,0.0,1.5399,0.0,0.0,0.0,0.0,0.0,0.0,0.0,0.0,0.0,1.7075,1.7274,1.7612,1.8165,1.8518,1.887,1.9233,0.0,0.0,0.0,0.0,0.0,0.0,0.0,1.9095,1.8354,1.9284,2.0125,2.01,2.084,2.1506,2.1707,0.0,0.0,1.9937,2.0002,2.0283,2.0295,2.161,2.2946,2.3571,2.4391,2.544,0.0,0.0,0.0,0.0,0.0,0.0,0.0,0.0,1.5421,1.6525,0.0,1.7424,0.0,0.0,0.0,0.0,1.3428,1.5723,0.0,0.0,1.9808,2.1353,2.1572,2.2682,2.2917,2.2508,2.3982,2.3606,2.142,1.8499,0.0,0.0,0.0,0.0,0.0,0.0,1.9324,1.9444,2.012,2.0136,1.9317,1.7192,1.5425,1.4085,1.2883,1.2348,1.2541,1.2933,1.3432,1.4123,1.4519,0.0,0.0,0.0,0.0,0.0,0.0,0.0,0.0,0.0,0.0,0.0,0.0,0.0,0.0,0.0,0.0,0.0,0.0,0.0,0.0,1.5621,0.0,0.0,0.0,0.0,0.0,0.0,0.0,0.0,0.0,0.0,1.8179,1.7801,1.8027,1.9572,0.0,0.0,0.0,0.0,2.0521,1.9888,2.1197,2.19,2.0836,2.1094,2.1055,1.9974,0.0,0.0,2.0779,2.0326,2.0213,2.0732,2.1134,2.1407,2.2339,2.2509,2.2587,2.2679,2.3747,2.4893,2.5508,2.5786,2.6105,2.084,0.0,0.0,0.0,0.0,1.9551,1.9764,2.0506,2.0564,2.0722,2.0876,2.0707,0.0,0.0,0.0,0.0,0.0,0.0,1.8671,2.0185,2.2395,2.3448,2.3519,2.488,2.5226,2.4682,2.477,2.4048,2.2629,2.1344,1.9963,1.8511,0.0,0.0,0.0,0.0,1.9923,2.1088,2.0296,1.9843,1.9871,1.7082,1.4844,1.3281,1.2973,1.3034,1.3416,1.3691,1.4234,1.5118,1.5322,0.0,0.0,0.0,0.0,0.0,0.0,0.0,0.0,0.0,0.0,0.0,0.0,0.0,0.0,0.0,0.0,0.0,0.0,0.0,1.5587,1.5974,1.6314,0.0,0.0,0.0,0.0,0.0,0.0,0.0,0.0,0.0,1.9208,1.8882,1.8857,0.0,0.0,1.902,1.971,1.9649,1.9572,1.9774,2.0218,0.0,2.068,2.083,2.0817,2.049,2.1231,2.197,2.2345,2.2255,2.2407,2.3133,2.3366,2.3679,2.4355,2.3613,2.3087,2.3466,2.4849,2.6224,2.6913,2.7754,2.8757,2.383,2.344,2.1959,2.1494,2.1688,2.1445,2.1592,2.2015,2.2451,2.2856,2.3183,2.2976,2.2577,2.198,2.0435,0.0,0.0,0.0,2.1452,2.3168,2.4161,2.5051,2.5819,2.627,2.6424,2.6268,2.5741,2.5008,2.4073,2.3562,2.2625,2.1338,0.0,0.0,1.9184,2.0185,2.1147,2.19,2.0857,2.0104,1.9746,1.6589,1.4523,1.3799,1.3517,1.3739,1.4481,1.4637,1.5094,1.5905,1.5993,1.616,0.0,0.0,0.0,0.0,0.0,0.0,0.0,0.0,0.0,0.0,0.0,1.6513,1.6513,0.0,0.0,0.0,1.616,1.5952,1.5952,1.6293,0.0,0.0,0.0,0.0,0.0,0.0,0.0,1.8933,1.8732,1.8932,1.9987,1.9887,1.9798,2.0113,1.9309,1.8957,1.9698,0.0,1.9493,1.9761,2.0194,2.0564,2.0669,2.1069,2.1394,2.1606,2.2157,2.2844,2.3454,2.3588,2.3855,2.4555,2.4998,2.5367,2.5815,2.5228,2.4849,2.5276,2.6644,2.7949,2.8633,2.9608,3.0612,2.7247,2.7876,2.4426,2.2914,2.2784,2.2738,2.2298,2.1668,2.232,2.364,2.5284,2.4574,2.4658,2.5263,2.3461,0.0,2.2195,2.3481,2.4593,2.5597,2.5479,2.6345,2.7941,2.7022,2.6826,2.7268,2.6751,2.6273,2.5787,2.5256,2.4741,2.4227,2.2598,2.1295,2.0565,2.2222,2.2814,2.2163,2.1777,2.0812,1.9249,1.5932,1.4493,1.5088,1.4373,1.4469,1.5543,1.5654,1.5919,1.6468,1.6513,1.6509,1.6563,0.0,0.0,0.0,0.0,0.0,0.0,0.0,0.0,0.0,0.0,0.0,0.0,0.0,0.0,0.0,1.6513,0.0,1.6513,1.6513,0.0,0.0,0.0,1.7486,1.7525,1.799,1.8531,1.9083,0.0,0.0,2.0629,2.0754,2.078,2.0754,1.9397,1.8794,1.9836,1.9986,1.9961,1.9913,2.0785,2.1303,2.0899,2.1545,2.2245,2.2746,2.3077,2.3397,2.4105,2.4366,2.4667,2.5356,2.6041,2.6508,2.6562,2.7032,2.7627,2.7649,2.8665,2.9743,3.0357,3.0957,3.1421,2.9168,2.8676,2.7497,2.6378,2.5356,2.4742,2.4698,2.5126,2.5695,2.6258,2.6815,2.7003,2.6407,2.5228,2.4754,2.4702,2.5022,2.5343,2.6215,2.7412,2.7424,2.744,2.7469,2.7223,2.7173,2.7278,2.6751,2.6851,2.7457,2.6984,2.664,2.6515,2.6467,2.5343,2.3197,2.4322,2.449,2.3527,2.3174,2.1601,1.8735,1.6172,1.5032,1.5396,1.5256,1.5297,1.5599,1.6051,1.6358,1.6489,1.6513,1.6678,1.7097,1.7105,0.0,0.0,0.0,0.0,0.0,0.0,0.0,0.0,0.0,1.6997,1.6538,0.0,1.7439,0.0,1.6513,1.6513,1.6513,1.6513,0.0,0.0,1.7688,1.8179,1.8581,1.9095,1.9648,2.0239,2.0302,2.054,2.1245,2.1306,2.1306,2.1294,2.0629,2.049,2.1506,2.0596,2.0016,2.0392,2.0725,2.1018,2.1273,2.1521,2.1897,2.2408,2.2964,2.3553,2.4185,2.478,2.5384,2.6068,2.6364,2.6708,2.7229,2.7499,2.7991,2.8873,2.9383,2.9952,3.1002,3.1391,3.1645,3.1528,3.1485,3.0914,3.0121,2.9068,2.669,2.6134,2.6931,2.7514,2.7872,2.8025,2.8317,2.7853,2.687,2.6852,2.7011,2.7305,2.7569,2.8107,2.8837,2.8568,2.843,2.8391,2.7901,2.7783,2.7984,2.7457,2.7507,2.8041,2.7814,2.7675,2.7688,2.8197,2.7595,2.5912,2.6176,2.5942,2.5096,2.3356,2.109,1.8272,1.6496,1.5891,1.6524,1.595,1.5851,1.6385,1.645,1.6513,1.6511,1.6721,1.6993,1.7291,1.7524,1.7666,0.0,0.0,0.0,0.0,0.0,0.0,0.0,0.0,0.0,0.0,0.0,1.7188,1.655,1.6737,1.6898,1.6911,1.7126,1.74,1.7726,1.823,1.8681,1.897,1.9484,2.0125,2.0955,2.0842,2.108,2.2058,2.1995,2.1958,2.2184,2.1744,2.1458,2.1482,2.0741,2.0314,2.0629,2.0691,2.0893,2.1419,2.1787,2.2174,2.2743,2.362,2.4515,2.5162,2.5605,2.6108,2.6826,2.6982,2.7098,2.7524,2.7585,2.7959,2.88,2.9159,2.9744,3.1152,3.1271,3.1241,3.3881,3.4564,3.3909,3.3315,3.2524,2.8635,2.7422,2.822,2.871,2.9037,2.9223,2.9222,2.9183,2.9132,2.912,2.9082,2.9057,2.9566,2.9779,2.9754,2.9264,2.9245,2.9628,2.8656,2.8442,2.885,2.8355,2.8166,2.8323,2.8247,2.8217,2.8348,2.8794,2.8781,2.831,2.7695,2.7035,2.6243,2.2956,2.0297,1.8416,1.7152,1.7008,1.7922,1.6524,1.6194,1.7213,1.6851,1.6605,1.6616,1.7115,1.7435,1.7517,1.7943,1.8214,0.0,1.819,0.0,0.0,0.0,0.0,0.0,0.0,0.0,0.0,1.688,1.6638,1.6701,1.7198,1.75,1.75,1.7927,1.823,1.8305,1.8719,1.9045,1.9208,1.9635,2.0351,2.1468,2.1181,2.1469,2.2694,2.2569,2.2483,2.2644,2.2345,2.1732,2.0943,2.0691,2.0641,2.0629,2.0578,2.0704,2.1288,2.1975,2.2643,2.3333,2.4477,2.5657,2.6309,2.6563,2.6837,2.7408,2.7549,2.7575,2.7585,2.7585,2.7827,2.8517,2.8577,2.9101,3.0733,3.0913,3.0747,3.524,3.4475,3.4292,3.3526,3.2282,3.0707,3.0519,3.1215,3.087,3.08,3.0905,3.0929,3.0696,3.0287,3.0287,3.0023,2.9641,2.9741,2.9779,2.9779,2.9679,2.944,2.907,2.8856,2.8806,2.8881,2.8355,2.8586,2.9484,2.9001,2.8994,2.9478,2.9578,2.9566,2.9428,0.0,0.0,0.0,2.2638,2.1392,2.1382,1.9338,1.8403,1.8734,1.7195,0.0,1.6683,1.6971,1.7136,1.7157,1.7656,0.0,0.0,0.0,0.0,0.0,0.0,0.0,0.0,0.0,0.0,0.0,1.9411,1.8822,1.7451,1.7262,1.7412,1.7828,1.799,1.8053,1.8053,1.8129,1.838,1.8795,1.8945,1.9371,2.0238,2.0465,2.0942,2.2008,2.2031,2.2096,2.2383,2.2345,2.2184,2.1907,2.1719,2.1407,2.0805,2.0691,2.0503,2.0087,2.0025,2.0201,2.0754,2.1511,2.2458,2.3297,2.4662,2.5806,2.6435,2.7036,2.7369,2.7585,2.7585,2.7585,2.7585,2.7585,2.7809,2.8457,2.8171,2.8366,3.0268,3.0597,3.0687,3.625,3.5403,3.5379,3.4957,0.0,3.3803,3.368,3.3657,3.1944,3.1426,3.1767,3.1512,3.1097,3.06,3.06,3.0319,2.9792,2.9779,2.9779,2.9779,2.9779,2.9641,2.9365,2.9365,2.9333,2.9333,2.9076,2.9258,2.9754,2.9503,2.9484,2.9779,2.9779,2.9779,2.9735,2.8187,2.6295,2.4189,2.3179,2.2207,2.1253,1.9692,1.8905,1.8933,1.7378,0.0,0.0,0.0,0.0,0.0,0.0,0.0,0.0,1.9165,0.0,1.929,1.929,1.9306,1.93,1.93,1.9561,2.0143,2.0002,1.9415,1.8272,1.7952,1.7914,1.8179,1.843,1.8581,1.8594,1.8832,1.9108,1.9359,1.9397,1.9761,2.0515,2.0691,2.1131,2.2126,2.2628,2.2717,2.2353,2.2644,2.2443,2.1651,2.1481,2.1281,2.0817,2.0691,2.0478,1.9924,1.9811,1.9899,2.0331,2.1772,2.2873,2.3645,2.5278,2.6572,2.6988,2.7331,2.7585,2.7585,2.7585,2.7585,2.7585,2.7585,2.7692,2.8021,2.8111,2.847,2.9774,3.0057,3.0357,3.7022,3.6556,3.6532,3.6482,3.6381,3.6268,3.5906,3.5176,0.0,0.0,0.0,3.1909,3.1399,3.0889,3.0876,3.0595,3.0093,3.008,3.0037,2.9942,3.0043,2.9987,2.9824,2.9892,2.9899,2.9792,2.9779,2.9779,2.9779,2.9779,2.9779,2.9779,2.9779,2.9761,2.952,2.7793,2.5937,2.4128,2.4046,2.3025,2.0927,1.993,1.9334,1.9146,1.763,1.7192,1.7992,1.7753,1.7787,1.822,1.8746,1.9048,1.9052,1.946,1.9723,1.9723,1.9723,1.9723,1.9723,1.9828,2.0176,2.0827,2.0369,1.9784,1.9144,1.8631,1.8343,1.833,1.8832,1.9133,1.9146,1.9522,1.9811,1.9811,1.9811,2.0049,2.0729,2.0978,2.1464,2.2341,2.3029,2.3081,2.2281,2.2513,2.251,2.1484,2.1091,2.1054,2.0666,2.049,2.0339,1.9899,1.9924,2.0013,2.0425,2.2056,2.3636,2.4119,2.5926,2.7382,2.757,2.7585,2.7585,2.7585,2.7585,2.7585,2.7585,2.7585,2.7585,2.76,2.8126,2.8815,2.9413,2.9711,3.0163,3.7575,3.7097,3.7085,3.6821,3.638,3.5832,3.533,3.4743,3.3873,3.3327,3.2955,3.2901,3.255,3.198,3.1989,3.1687,3.1185,3.1173,3.0934,3.0512,3.0947,3.0683,2.9842,3.0281,3.0224,2.9817,2.9792,2.9779,2.9792,2.9792,2.9779,2.9792,2.9779,2.9553,2.9001,2.8263,2.729,2.6085,2.4823,2.3947,2.3468,2.1951,2.0691,1.9698,1.8567,1.7773,1.7447,1.824,1.8698,1.8784,1.9304,1.9593,1.9584,1.9639,1.9723,1.9723,1.9723,1.9723,1.9738,2.0234,2.0858,2.1455,2.101,2.0202,1.9135,1.8943,1.8882,1.8907,1.9359,1.9698,1.9698,1.9761,1.9824,1.9849,1.9824,2.0226,2.1298,2.1975,2.2535,2.3094,2.3284,2.2973,2.1955,2.1441,2.1034,2.0278,2.0213,2.0049,2.0037,1.9924,1.9899,1.9873,2.0225,2.0741,2.1199,2.2556,2.3903,2.5085,2.6023,2.7003,2.7525,2.7585,2.7585,2.7585,2.7585,2.7585,2.7585,2.7585,2.7585,2.763,2.8141,2.8786,2.9473,2.9997,3.0612,3.8153,3.7613,3.7299,3.7072,3.6796,3.6219,3.5644,3.5119,3.4879,3.4465,3.3985,3.3972,3.3483,3.2704,3.2679,3.2202,3.1406,3.1406,3.1273,3.1072,3.1286,3.1135,3.0708,3.0909,3.0909,3.069,3.0658,3.0678,3.0633,3.0382,3.0244,3.0231,2.9942,2.9503,2.8888,2.8367,2.7708,2.6909,2.5341,2.4181,2.3496,2.1909,2.0853,2.0334,1.9256,1.8876,1.9249,1.9371,1.9561,1.9867,1.9751,1.9723,1.9723,1.9723,1.9723,1.9723,2.0043,2.0234,2.0243,2.0872,2.1238,2.1206,2.0972,2.0415,1.9488,1.9434,1.9447,1.9447,1.9673,1.9924,2.0238,2.0,2.0037,2.0652,2.0808,2.1328,2.2367,2.319,2.3703,2.3865,2.3947,2.3366,2.1798,2.142,2.0874,2.004,1.9811,1.9811,1.9811,1.9811,1.9811,1.9862,2.0335,2.0784,2.1231,2.259,2.3911,2.4937,2.5943,2.679,2.745,2.7585,2.7585,2.7585,2.7585,2.7585,2.7585,2.7585,2.7585,2.766,2.8141,2.88,2.9473,3.0342,3.1106,3.8743,3.8153,3.7776,3.7425,3.7173,3.662,3.6143,3.5719,3.5707,3.5468,3.509,3.4816,3.4173,3.3329,3.3278,3.2738,3.1871,3.1796,3.1712,3.1599,3.1733,3.167,3.1444,3.1499,3.1512,3.1419,3.1406,3.1406,3.1356,3.0964,3.0701,3.055,3.0055,2.9566,2.9088,2.8555,2.8021,2.7437,2.5963,2.4616,2.3484,2.2179,2.1364,2.0943,2.0308,2.0216,2.0843,2.0524,2.0494,2.0863,2.0438,2.0157,2.0163,2.0148,2.0148,2.0193,2.0623,2.0929,2.0961,2.1401,2.1438,2.0877,2.0811,2.0509,1.9901,1.9811,1.9811,1.9824,1.9924,2.0213,2.0566,2.0439,2.0606,2.1619,2.1903,2.2419,2.3486,2.4298,2.4631,2.4485,2.4472,2.3753,2.2166,2.1563,2.103,2.0066,1.9811,1.9811,1.9811,1.9901,2.0042,2.0348,2.0795,2.146,2.1656,2.3052,2.4331,2.5014,2.595,2.6805,2.739,2.7585,2.7585,2.7585,2.7585,2.7585,2.7585,2.7585,2.7675,2.7854,2.8453,2.9129,2.9998,3.0777,3.1451,3.9321,3.8856,3.8705,3.814,3.716,3.662,3.6369,3.6293,3.6293,3.6293,3.6092,3.5142,3.4414,3.3872,3.3847,3.3495,3.2939,3.2939,3.2641,3.2231,3.2692,3.2411,3.162,3.1938,3.1876,3.152,3.1482,3.1507,3.1507,3.1348,3.1072,3.0595,3.0068,2.9767,2.9641,2.9126,2.8537,2.8034,2.6909,2.5804,2.4698,2.4197,2.3194,2.1588,2.2086,2.1886,2.11,2.1315,2.1555,2.1605,2.1515,2.1495,2.1485,2.1485,2.1495,2.1495,2.156,2.1608,2.161,2.1668,2.1431,2.0895,2.0807,2.051,1.9926,1.9849,1.9824,1.9963,2.0353,2.0617,2.0717,2.1097,2.1664,2.2535,2.2658,2.3004,2.4241,2.5052,2.5207,2.4458,2.4498,2.3779,2.2061,2.1275,2.0649,2.0088,2.0027,2.0066,2.0155,2.05,2.1112,2.1599,2.2127,2.2953,2.387,2.4798,2.5429,2.6159,2.6464,2.6914,2.736,2.7585,2.7585,2.7585,2.7585,2.7585,2.7585,2.7615,2.7809,2.8306,2.8964,2.9803,3.0927,3.1271,3.1331,3.9572,3.9283,3.8668,3.7751,3.6796,3.6808,3.6683,3.6417,3.6417,3.6417,3.6367,3.5904,3.5391,3.4853,3.4853,3.4377,3.3617,3.3592,3.3467,3.3232,3.347,3.3483,3.3382,3.3219,3.3081,3.2864,3.2575,3.2399,3.2298,3.1746,3.1122,3.0588,3.0068,2.9792,2.9773,2.9195,2.8775,2.8574,2.7988,2.7303,2.6443,2.5048,2.4186,2.391,2.3509,2.3272,2.305,2.2603,2.2309,2.2269,2.1914,2.1704,2.1704,2.1704,2.1704,2.1734,2.2079,2.2283,2.2273,2.1928,2.144,2.0845,2.0771,2.0615,2.0431,2.1002,2.1445,2.1406,2.101,2.108,2.2063,2.221,2.268,2.3933,2.4334,2.4702,2.5573,2.6326,2.6351,2.5268,2.471,2.389,2.2419,2.1539,2.1108,2.0846,2.0832,2.0992,2.1355,2.1738,2.2519,2.3709,2.4259,2.4368,2.4815,2.5187,2.5825,2.6397,2.6614,2.6839,2.739,2.7585,2.7585,2.7585,2.7585,2.7585,2.7585,2.763,2.7809,2.8485,2.9084,2.9713,2.979,3.0118,3.0432,3.9697,3.9546,3.8642,3.7813,3.711,3.7311,3.7122,3.6669,3.6607,3.6545,3.6417,3.6417,3.6168,3.5769,3.5571,3.4992,3.4211,3.4123,3.4123,3.4123,3.4101,3.4336,3.4628,3.4301,3.4135,3.4048,3.3567,3.3241,3.3014,3.2123,3.1348,3.0821,3.0281,2.9942,2.9786,2.9352,2.9208,2.9272,2.8951,2.8634,2.8196,2.663,2.5702,2.5701,2.4948,2.4629,2.4821,2.3819,2.3216,2.3201,2.2577,2.2218,2.2218,2.2218,2.2293,2.2501,2.292,2.3112,2.2965,2.2282,2.162,2.1068,2.0958,2.1013,2.1333,2.2073,2.2738,2.3031,2.2272,2.2416,2.335,2.35,2.4082,2.5479,2.58,2.6099,2.674,2.7176,2.6764,2.5654,2.4816,2.3933,2.2675,2.2017,2.178,2.177,2.2009,2.2309,2.2814,2.3112,2.3824,2.5342,2.5707,2.5785,2.5555,2.5943,2.6383,2.6629,2.6914,2.7106,2.751,2.757,2.7585,2.7585,2.7585,2.7585,2.7585,2.7645,2.7824,2.847,2.9069,2.9413,2.931,2.9398,2.9817,3.9697,3.9609,3.9095,3.8781,3.873,3.8191,3.7663,3.7173,3.7148,3.6871,3.6457,3.6417,3.6392,3.6281,3.5782,3.5207,3.4715,3.4665,3.4665,3.4665,3.4665,3.4678,3.4703,3.4665,3.4665,3.4615,3.4135,3.3608,3.3128,3.2466,3.1901,3.1336,3.0783,3.0294,2.9874,2.9787,2.9947,3.0184,2.9808,2.9669,3.0017,2.94,2.8168,2.6791,2.6442,2.612,2.5573,2.4874,2.45,2.4489,2.3827,2.3501,2.3509,2.352,2.3793,2.4287,2.437,2.4099,2.3473,2.2801,2.2138,2.1618,2.1603,2.1804,2.2471,2.2818,2.3406,2.4295,2.4334,2.4403,2.4595,2.4914,2.5464,2.6293,2.6454,2.6794,2.7418,2.693,2.627,2.5508,2.4772,2.388,2.2584,2.2455,2.2655,2.2791,2.3185,2.3652,2.3839,2.4262,2.4933,2.5612,2.623,2.6732,2.7265,2.7133,2.7275,2.7393,2.7345,2.7495,2.7555,2.7585,2.7585,2.7585,2.7585,2.7585,2.7585,2.772,2.7959,2.8453,2.8994,2.9219,2.8859,2.9324,2.9638,3.9484,3.9208,3.9359,3.9019,3.8354,3.8504,3.8241,3.7701,3.7324,3.711,3.6871,3.6545,3.6417,3.6369,3.618,3.5755,3.5255,3.5207,3.5207,3.523,3.523,3.5418,3.5717,3.5406,3.523,3.5142,3.4678,3.4135,3.3545,3.2679,3.1938,3.1399,3.0859,3.0344,2.9996,3.04,3.0785,3.0947,3.1428,3.1674,3.1418,3.0967,3.0157,2.9091,2.7863,2.6914,2.6258,2.5615,2.5232,2.5244,2.4612,2.4451,2.481,2.487,2.4749,2.4562,2.45,2.4019,2.3055,2.3055,2.2884,2.2361,2.2989,2.346,2.3904,2.4566,2.5315,2.5724,2.6253,2.646,2.6426,2.6287,2.6403,2.7049,2.7203,2.7267,2.7369,2.6943,2.6216,2.5481,2.4753,2.4086,2.3846,2.4046,2.4382,2.4423,2.4654,2.5002,2.5425,2.5754,2.6108,2.6705,2.7091,2.7315,2.7495,2.7557,2.7585,2.757,2.757,2.7555,2.7585,2.7585,2.7585,2.7585,2.7585,2.754,2.7525,2.7737,2.7976,2.7899,2.8485,2.8603,2.8406,2.8618,2.883,3.9471,3.9245,3.9546,3.927,3.8642,3.8969,3.8843,3.8266,3.7914,3.765,3.7374,3.6896,3.6645,3.6607,3.648,3.6318,3.6033,3.5882,3.5782,3.5794,3.5794,3.5994,3.6268,3.5994,3.5782,3.5669,3.5042,3.4414,3.3847,3.2955,3.2148,3.1386,3.1022,3.068,3.0426,3.0908,3.1426,3.2104,3.2797,3.2955,3.2787,3.239,3.1705,3.0792,2.9548,2.8323,2.7318,2.6587,2.6123,2.5884,2.5289,2.5139,2.5558,2.558,2.5355,2.4885,2.4563,2.4168,2.3514,2.3676,2.3743,2.3582,2.4272,2.4857,2.5152,2.5973,2.6533,2.6891,2.724,2.7585,2.7496,2.7139,2.7074,2.7496,2.7585,2.7585,2.7547,2.6958,2.6216,2.5536,2.5021,2.4709,2.4752,2.5328,2.5631,2.5769,2.5974,2.6416,2.6753,2.6916,2.7046,2.7495,2.7515,2.754,2.7585,2.7585,2.7585,2.7585,2.7585,2.7585,2.7585,2.7585,2.7585,2.7585,2.754,2.7465,2.7542,2.7752,2.7647,2.7405,2.7495,2.7692,2.766,2.7705,2.8141,3.9697,3.9659,3.9697,3.9659,3.9546,3.9597,3.9346,3.8931,3.8818,3.8467,3.7977,3.7437,3.721,3.7122,3.6783,3.672,3.6921,3.6595,3.6431,3.6482,3.6356,3.638,3.6444,3.6356,3.6293,3.623,3.5228,3.4462,3.396,3.3316,3.2474,3.1582,3.147,3.1316,3.1175,3.1384,3.2231,3.3367,3.3477,3.3621,3.4272,3.3739,3.2826,3.1735,3.1361,3.0449,2.8742,2.7946,2.7258,2.6677,2.5974,2.5618,2.5681,2.5702,2.5582,2.5436,2.4833,2.4783,2.5176,2.4798,2.4883,2.5204,2.5439,2.5807,2.6301,2.6532,2.6852,2.7344,2.7537,2.7585,2.7585,2.7522,2.7524,2.7585,2.7585,2.7585,2.7471,2.6956,2.6216,2.5605,2.537,2.5398,2.555,2.6055,2.6484,2.66,2.696,2.7327,2.7405,2.7417,2.7555,2.7585,2.7585,2.7585,2.7585,2.7585,2.7585,2.7585,2.7585,2.7585,2.7585,2.7585,2.7585,2.757,2.733,2.7228,2.6988,2.7153,2.7063,2.6884,2.6929,2.7138,2.7405,2.763,2.7869,3.9697,3.9697,3.9697,3.9697,3.9697,3.9697,3.9584,3.9421,3.9082,3.8793,3.8542,3.8002,3.7751,3.7726,3.755,3.7399,3.7198,3.7034,3.716,3.7397,3.6769,3.6619,3.6832,3.6581,3.6417,3.6205,3.524,3.4628,3.4301,3.3555,3.2525,3.1689,3.2056,3.1915,3.1426,3.2433,3.3518,3.3947,3.4515,3.4724,3.4532,3.4293,3.3739,3.2961,3.2437,3.1645,3.0628,2.9131,2.8246,2.7949,2.6886,2.6288,2.6344,2.6701,2.6711,2.6277,2.642,2.6302,2.6147,2.6358,2.6525,2.6813,2.689,2.6997,2.7216,2.7244,2.7346,2.7587,2.7585,2.7585,2.7585,2.7585,2.7645,2.76,2.7585,2.7645,2.7641,2.7028,2.6216,2.5646,2.5837,2.6108,2.6283,2.6787,2.7163,2.7188,2.7446,2.7572,2.7585,2.7585,2.7585,2.7585,2.7585,2.7585,2.7585,2.7585,2.7585,2.7585,2.7585,2.745,2.7465,2.7585,2.7585,2.751,2.7255,2.6944,2.6704,2.6539,2.6479,2.6659,2.6854,2.7138,2.748,2.769,2.7854,3.9697,3.9697,3.9697,3.9697,3.9697,3.9697,3.9697,3.9647,3.9333,3.9195,3.9095,3.858,3.8329,3.8278,3.8115,3.8222,3.8469,3.8338,3.8862,3.9445,3.7537,3.7159,3.7623,3.6822,3.6543,3.6457,3.5531,3.4881,3.4653,3.3831,3.3005,3.2531,3.2652,3.2831,3.2614,3.3476,3.4129,3.4576,3.5166,3.5295,3.4967,3.4877,3.4547,3.3919,3.3455,3.2766,3.1869,3.0433,2.9446,2.8906,2.7904,2.726,2.7051,2.7316,2.7348,2.7079,2.7169,2.7287,2.7201,2.754,2.7999,2.8201,2.8309,2.8203,2.8079,2.7974,2.7902,2.7645,2.7827,2.7857,2.769,2.8124,2.8199,2.7989,2.7991,2.8066,2.8164,2.7733,2.7206,2.6855,2.6828,2.6896,2.7049,2.7216,2.7585,2.7585,2.7585,2.7585,2.7585,2.7585,2.7585,2.7585,2.7585,2.7585,2.7585,2.7585,2.7585,2.7585,2.7585,2.7345,2.718,2.7465,2.7585,2.7555,2.7375,2.6779,2.6479,2.6213,2.6108,2.6422,2.6584,2.6719,2.6884,2.7465,2.7675,3.9736,3.9813,3.9813,3.9916,3.9904,3.9916,3.9865,3.9697,3.9685,3.9634,3.9534,3.9158,3.8944,3.8818,3.8666,3.9282,4.0428,4.0317,4.1005,4.1473,3.9568,3.8108,3.8452,3.721,3.6769,3.6885,3.5983,3.5232,3.4828,3.4322,3.3952,3.3723,3.3515,3.3639,3.4445,3.4361,3.4681,3.5294,3.5472,3.5474,3.5429,3.5444,3.519,3.4563,3.4398,3.3829,3.2781,3.1914,3.0897,2.9728,2.8889,2.8306,2.7844,2.7659,2.7736,2.7725,2.7555,2.7997,2.8368,2.8609,2.8876,2.9445,2.9391,2.9353,2.8755,2.865,2.847,2.8049,2.8351,2.8427,2.8199,2.8738,2.9129,2.8831,2.8712,2.8891,2.9398,2.8939,2.851,2.8401,2.807,2.7634,2.7618,2.7652,2.7572,2.7585,2.7585,2.7585,2.7585,2.7585,2.7585,2.7585,2.7585,2.7585,2.7585,2.7585,2.7585,2.7585,2.7585,2.7405,2.7165,2.7405,2.7585,2.7555,2.7285,2.6704,2.6195,2.5869,2.5618,2.5644,2.5794,2.5959,2.6539,2.7273,2.7557,4.0236,4.1082,4.1107,4.1107,4.1094,4.1094,4.0529,3.9774,3.9697,3.9697,3.9647,3.9572,3.9497,3.9574,4.0293,4.0767,4.1098,4.1669,4.2138,4.2483,4.0946,3.9168,3.8371,3.7465,3.706,3.7072,3.6252,3.5433,3.5299,3.5247,3.4952,3.4508,3.5311,3.5378,3.5131,3.558,3.5659,3.5532,3.5519,3.5504,3.5489,3.5489,3.5429,3.5235,3.4772,3.4353,3.3934,3.332,3.1869,2.9817,2.9443,2.9279,2.9013,2.8988,2.8984,2.9018,2.9392,2.9661,2.986,2.9916,3.0057,3.0166,2.9937,2.952,2.937,2.9338,2.9249,2.9099,2.9264,2.925,2.9129,2.9397,2.9653,2.9924,2.9639,2.9473,2.9593,2.9458,2.9338,2.9279,2.8727,2.8353,2.8186,2.7899,2.7615,2.7585,2.7585,2.7585,2.7585,2.7585,2.7585,2.7585,2.7585,2.7585,2.7585,2.7585,2.7585,2.7585,2.7585,2.757,2.742,2.748,2.757,2.7585,2.7003,2.6435,2.5839,2.5349,2.5169,2.5184,2.567,2.62,2.6892,2.7557,2.7532,4.0932,4.1654,4.2168,4.2108,4.1629,4.1604,4.0882,3.9865,3.9697,3.9697,3.9697,3.9697,4.0006,4.0579,4.1256,4.2116,4.2785,4.3491,4.3828,4.3514,4.1935,4.0281,3.8892,3.7989,3.7525,3.7535,3.713,3.6734,3.647,3.6711,3.6752,3.6593,3.6949,3.6928,3.6605,3.6588,3.6567,3.6043,3.5908,3.5818,3.5534,3.5489,3.5489,3.5428,3.507,3.4832,3.4473,3.3844,3.2497,3.0881,3.0387,3.0178,2.9683,2.9862,2.9968,3.0012,3.0567,3.0898,3.0927,3.0912,3.0927,3.0882,3.0538,3.0283,3.0058,2.9968,2.9939,2.9606,2.9817,2.9832,2.9698,2.9817,3.0268,3.0717,3.0598,3.0402,3.0373,3.0177,3.0012,2.9773,2.9219,2.8592,2.8577,2.8021,2.7705,2.7585,2.7585,2.7585,2.7585,2.76,2.7585,2.7585,2.7585,2.7585,2.7585,2.7585,2.7585,2.7585,2.7585,2.7585,2.754,2.751,2.7465,2.733,2.6749,2.6198,2.5663,2.5319,2.5379,2.5586,2.602,2.6382,2.6952,2.7456,2.7458,4.1739,4.2095,4.3204,4.2954,4.1961,4.1789,4.1082,3.9865,3.9697,3.9839,3.9981,3.9942,4.0743,4.1789,4.229,4.318,4.4958,4.4947,4.4815,4.3915,4.2307,4.0501,3.9511,3.8555,3.8225,3.8267,3.8739,3.8326,3.8016,3.8632,3.9003,3.8708,3.8333,3.8241,3.8077,3.7789,3.7178,3.6671,3.6434,3.6179,3.5759,3.5594,3.5489,3.5474,3.5459,3.5161,3.4697,3.4084,3.317,3.1914,3.1765,3.124,3.0326,3.0597,3.0717,3.0777,3.1181,3.1406,3.1466,3.1391,3.1451,3.1391,3.1406,3.1271,3.0762,3.0598,3.0462,3.0072,3.0313,3.0357,3.0147,3.0342,3.0792,3.1256,3.1391,3.1466,3.1391,3.0957,3.0598,3.0522,2.949,2.8846,2.8607,2.8201,2.7777,2.8304,2.8126,2.7946,2.7827,2.7705,2.766,2.7585,2.7585,2.7585,2.7585,2.7585,2.7585,2.7585,2.7585,2.7585,2.751,2.745,2.7345,2.7091,2.6584,2.6138,2.5708,2.5558,2.5543,2.5663,2.5884,2.6228,2.6624,2.7083,2.7265,4.2762,4.4604,4.4886,4.4256,4.3194,4.305,4.1813,3.9852,3.9749,4.0326,4.1032,4.1181,4.1936,4.3146,4.3834,4.4456,4.421,4.4734,4.4419,4.2241,4.0882,4.0083,3.9623,3.9083,3.9038,3.9221,3.9024,3.9089,3.9448,3.9971,4.0271,4.0153,3.9941,3.9605,3.9128,3.8586,3.7868,3.7255,3.6808,3.6538,3.6237,3.5789,3.5549,3.5519,3.5489,3.5444,3.5325,3.516,3.4666,3.3948,3.3335,3.2841,3.2437,3.2153,3.2018,3.1914,3.1615,3.1525,3.1511,3.1525,3.1496,3.1496,3.1496,3.1421,3.1346,3.1241,3.1211,3.1106,3.1226,3.1122,3.1002,3.1137,3.1301,3.1451,3.1496,3.1496,3.1466,3.1361,3.1227,3.0972,3.0179,2.9563,2.9924,2.8951,2.871,2.8979,2.8796,2.8468,2.8169,2.791,2.7755,2.766,2.7585,2.7585,2.7585,2.7585,2.7585,2.7495,2.745,2.739,2.7318,2.7213,2.7061,2.6794,2.6467,2.6022,2.5486,2.5397,2.5292,2.5521,2.5833,2.6416,2.6884,2.7096,2.7214,4.3847,4.5426,4.6025,4.5735,4.4809,4.3903,4.2911,4.1883,4.0923,4.1281,4.2277,4.2509,4.3204,4.4317,4.448,4.4303,4.4233,4.3693,4.293,4.1505,4.0389,4.0083,4.0554,4.0321,4.0278,4.0402,4.0918,4.1124,4.1298,4.1553,4.1746,4.1453,4.1345,4.0741,3.9989,3.9484,3.8826,3.8035,3.7569,3.7272,3.6866,3.6297,3.5744,3.5564,3.5489,3.5489,3.5474,3.5474,3.5295,3.4966,3.4622,3.4113,3.359,3.3185,3.3006,3.2856,3.2347,3.1989,3.1944,3.169,3.1496,3.1496,3.1496,3.1496,3.1496,3.1496,3.1496,3.1496,3.1481,3.1496,3.1496,3.1481,3.1496,3.1496,3.1496,3.1496,3.1496,3.1496,3.1496,3.1316,3.0613,3.0313,3.0028,2.9627,2.9402,2.9547,2.9404,2.9043,2.8501,2.8212,2.7893,2.7745,2.7635,2.7585,2.7585,2.7585,2.7585,2.742,2.721,2.7091,2.6944,2.6824,2.6674,2.6437,2.6213,2.5618,2.5173,2.5113,2.5266,2.5524,2.5997,2.6741,2.7128,2.7051,2.7212,4.4781,4.5793,4.6976,4.7029,4.6209,4.4697,4.4147,4.408,4.2668,4.2606,4.3513,4.3646,4.4008,4.4909,4.4069,4.4186,4.3858,4.2558,4.1194,4.0982,4.0579,4.0668,4.1343,4.1866,4.2151,4.1713,4.2656,4.3098,4.296,4.3194,4.2927,4.2587,4.2357,4.1733,4.0905,4.0516,3.9933,3.8948,3.8571,3.8153,3.7569,3.6941,3.6342,3.5848,3.5744,3.5624,3.5549,3.5489,3.5474,3.5489,3.5489,3.4876,3.4143,3.3664,3.3664,3.3619,3.3036,3.2602,3.2333,3.2004,3.169,3.1555,3.1496,3.1496,3.1496,3.1496,3.1496,3.1496,3.1496,3.1496,3.1496,3.1496,3.1496,3.1496,3.1496,3.1496,3.1496,3.1496,3.1496,3.1391,3.091,3.0578,3.0668,3.0531,3.028,3.009,2.9966,2.9664,2.9126,2.872,2.852,2.8082,2.7981,2.7685,2.7635,2.766,2.7648,2.7468,2.717,2.6848,2.6594,2.6093,2.5917,2.6153,2.5887,2.5322,2.5143,2.5337,2.5508,2.5661,2.6069,2.6696,2.6902,2.6946,2.721,4.4949,4.7063,4.7827,4.7465,4.6463,4.6038,4.5383,4.4446,4.3688,4.3905,4.4849,4.4022,4.4303,4.478,4.4046,4.3146,4.2181,4.1007,4.0338,4.0554,4.0806,4.1629,4.2193,4.3561,4.4381,4.4533,4.4582,4.4261,4.4081,4.4056,4.3698,4.3145,4.269,4.2182,4.1882,4.1523,4.0819,3.9873,3.9439,3.8901,3.8257,3.7599,3.6956,3.6402,3.6312,3.6058,3.5639,3.5519,3.5489,3.5489,3.5489,3.537,3.5011,3.4578,3.4368,3.4203,3.3694,3.3155,3.2677,3.2407,3.2033,3.1675,3.1496,3.1496,3.1496,3.1496,3.1496,3.1524,3.1539,3.1539,3.1496,3.1682,3.1553,3.1539,3.1639,3.161,3.1596,3.1653,3.171,3.175,3.124,3.0992,3.1393,3.1705,3.1659,3.1623,3.164,3.0979,3.0173,2.9802,2.9564,2.9002,2.8391,2.803,2.7698,2.7735,2.7745,2.7607,2.7281,2.6759,2.6285,2.5375,2.5143,2.5498,2.5558,2.5199,2.5229,2.5438,2.537,2.5246,2.5869,2.6604,2.6735,2.6865,2.7253,4.5479,4.7341,4.8012,4.8172,4.7791,4.7169,4.6969,4.6783,4.5627,4.5493,4.5784,4.5115,4.4766,4.4766,4.3289,4.1838,4.0844,4.0844,4.0617,4.0957,4.1936,4.3026,4.3409,4.4932,4.5697,4.61,4.6028,4.5599,4.5287,4.4566,4.4177,4.3773,4.318,4.2735,4.2425,4.2066,4.1343,4.0606,4.0064,3.9571,3.8931,3.8257,3.7614,3.7135,3.6926,3.6641,3.6179,3.6013,3.5833,3.5563,3.5489,3.5489,3.54,3.525,3.5012,3.4892,3.4383,3.3724,3.3066,3.2736,3.2168,3.1615,3.1511,3.1496,3.1496,3.1496,3.1582,3.1626,3.198,3.2078,3.212,3.2385,3.2394,3.2202,3.2327,3.2368,3.2242,3.2379,3.2448,3.2434,3.2163,3.2212,3.2735,3.2945,3.3046,3.3141,3.3217,3.2404,3.1316,3.0939,3.0644,2.9601,2.8938,2.8717,2.8364,2.828,2.8174,2.7951,2.7443,2.6931,2.6239,2.5433,2.5016,2.5008,2.4948,2.4945,2.496,2.5064,2.4933,2.4937,2.5705,2.6362,2.6593,2.6856,2.7136,4.6008,4.7354,4.8034,4.8693,4.9082,4.8244,4.8322,4.8811,4.7471,4.6894,4.7041,4.5711,4.4895,4.4433,4.281,4.1107,4.0211,4.1419,4.1936,4.2241,4.3289,4.448,4.5138,4.5801,4.6299,4.696,4.7061,4.6943,4.6106,4.5313,4.4685,4.4177,4.3683,4.3175,4.2716,4.2601,4.1743,4.1145,4.0606,4.0214,3.9451,3.8871,3.8272,3.7689,3.7567,3.727,3.6523,3.6419,3.6089,3.5684,3.5489,3.5489,3.5489,3.5489,3.5489,3.5415,3.4982,3.4398,3.3784,3.3335,3.2826,3.2213,3.1839,3.1807,3.1975,3.2159,3.2109,3.2201,3.2639,3.3096,3.321,3.3657,3.3533,3.3113,3.3309,3.3618,3.3124,3.3103,3.3427,3.3349,3.3172,3.3313,3.3706,3.3842,3.3845,3.4186,3.4275,3.3526,3.2552,3.2113,3.155,3.0254,2.9524,2.944,2.9225,2.9065,2.8892,2.8662,2.791,2.7176,2.6449,2.5664,2.5374,2.5126,2.4724,2.4724,2.472,2.4728,2.4634,2.4889,2.5618,2.5929,2.5827,2.6153,2.6569,4.6126,4.7369,4.8034,4.8693,4.9194,4.9044,4.9104,4.9112,4.8321,4.7761,4.6997,4.4909,4.3811,4.3266,4.2315,4.1517,4.1715,4.2617,4.3289,4.348,4.4572,4.5275,4.5629,4.6638,4.6887,4.7309,4.7309,4.6914,4.6435,4.6076,4.5343,4.4536,4.4177,4.3803,4.313,4.304,4.2831,4.2152,4.1523,4.0621,3.9631,3.9302,3.8853,3.8467,3.8197,3.7778,3.6913,3.6733,3.6374,3.5684,3.5534,3.5504,3.5489,3.5489,3.5489,3.5489,3.537,3.5101,3.4459,3.4099,3.3832,3.3171,3.2781,3.2805,3.3122,3.338,3.3585,3.4311,3.4433,3.4447,3.4556,3.5067,3.4696,3.4293,3.4156,3.4098,3.3729,3.389,3.4215,3.4337,3.4165,3.4239,3.4479,3.4552,3.4655,3.5053,3.5143,3.435,3.3554,3.2893,3.2332,3.1059,3.0417,3.0315,3.0011,2.9859,2.9596,2.935,2.8666,2.7744,2.7109,2.6516,2.583,2.5538,2.5179,2.5115,2.5431,2.5307,2.4668,2.456,2.496,2.4945,2.4799,2.5289,2.5944,4.6807,4.7354,4.8019,4.8468,4.8768,4.9112,4.9067,4.8723,4.8416,4.7503,4.6083,4.4349,4.2786,4.1752,4.1356,4.1604,4.2035,4.3679,4.4558,4.4826,4.5756,4.641,4.6616,4.7019,4.7287,4.7309,4.7294,4.7234,4.6809,4.639,4.5747,4.499,4.4466,4.3923,4.3429,4.3319,4.294,4.2256,4.1403,4.0561,4.0023,3.9601,3.929,3.899,3.896,3.8409,3.7815,3.7571,3.7047,3.6344,3.6074,3.5848,3.574,3.5847,3.6149,3.618,3.66,3.6061,3.4782,3.4596,3.4469,3.4317,3.3992,3.4126,3.4605,3.4835,3.493,3.5265,3.5681,3.5847,3.5878,3.6161,3.5703,3.5296,3.5058,3.4672,3.4513,3.4763,3.4958,3.508,3.515,3.5063,3.5028,3.5075,3.5081,3.5243,3.5217,3.4572,3.3689,3.2833,3.2332,3.1781,3.1437,3.1312,3.091,3.0601,3.0293,3.0059,2.987,2.8989,2.8216,2.7554,2.6964,2.6867,2.7049,2.689,2.6574,2.5796,2.5081,2.4604,2.4156,2.4368,2.4574,2.4679,2.5379,4.7309,4.7354,4.7848,4.8132,4.8349,4.8843,4.8768,4.8349,4.8319,4.7207,4.545,4.4022,4.2241,4.1057,4.1898,4.2858,4.2834,4.4886,4.5689,4.6255,4.6719,4.7164,4.7186,4.7287,4.7309,4.7309,4.7309,4.7264,4.713,4.6779,4.6292,4.5544,4.4945,4.4267,4.3713,4.3369,4.2995,4.2381,4.1343,4.0666,4.0277,3.969,3.9466,3.9376,3.9349,3.9169,3.8794,3.8402,3.7736,3.7434,3.7143,3.6902,3.6458,3.6909,3.7076,3.7089,3.7338,3.7031,3.6043,3.563,3.5398,3.5429,3.5452,3.5691,3.587,3.6135,3.6512,3.6738,3.7069,3.7215,3.7191,3.7338,3.6831,3.6358,3.5949,3.5499,3.5123,3.5234,3.5321,3.5367,3.5413,3.547,3.5458,3.5532,3.5549,3.5526,3.5211,3.4704,3.3937,3.3034,3.2547,3.2171,3.1695,3.154,3.1281,3.0995,3.0808,3.0658,3.0466,3.0104,2.9259,2.8736,2.8248,2.8397,2.8587,2.8046,2.7352,2.641,2.5525,2.5201,2.4881,2.4539,2.4537,2.4596,2.4826,4.7309,4.7309,4.7369,4.7728,4.8274,4.8349,4.8349,4.8207,4.8215,4.6984,4.4998,4.3975,4.2544,4.2241,4.3513,4.4757,4.507,4.6535,4.6873,4.704,4.7287,4.7309,4.7309,4.7309,4.7309,4.7309,4.7309,4.7309,4.7294,4.7204,4.6734,4.6211,4.5574,4.49,4.4197,4.3549,4.3085,4.2505,4.1746,4.1182,4.0675,4.0106,3.9706,3.9652,3.9541,3.9471,3.9578,3.9133,3.8779,3.8729,3.8606,3.8122,3.7709,3.8176,3.8275,3.7903,3.7991,3.7851,3.7495,3.7189,3.743,3.7511,3.7501,3.7334,3.7198,3.7523,3.7991,3.8464,3.8568,3.8391,3.8511,3.8613,3.7928,3.7224,3.6678,3.6272,3.5844,3.5475,3.5549,3.5605,3.5628,3.5628,3.5628,3.5628,3.5628,3.5583,3.507,3.4562,3.4309,3.3558,3.3028,3.2506,3.1813,3.1465,3.1262,3.1075,3.0995,3.0888,3.073,3.0539,3.0161,2.9749,2.9404,2.9248,2.924,2.8693,2.8227,2.7598,2.6929,2.6142,2.5641,2.528,2.4976,2.4957,2.4981,4.7309,4.7309,4.7309,4.7444,4.7683,4.7683,4.7683,4.7537,4.6837,4.5198,4.3146,4.2533,4.207,4.2436,4.4139,4.5403,4.5598,4.6719,4.7164,4.7309,4.7309,4.7309,4.7309,4.7309,4.7309,4.7309,4.7309,4.7309,4.7309,4.7309,4.7219,4.677,4.6232,4.5289,4.4476,4.3668,4.3175,4.2921,4.2535,4.2187,4.2385,4.1552,4.1215,4.1656,4.1137,4.1067,4.1082,4.0821,4.0499,4.0244,4.0134,3.9507,3.8877,3.9338,3.9214,3.8699,3.8832,3.9035,3.8873,3.843,3.7992,3.8564,3.8861,3.9024,3.8593,3.9058,3.9309,3.9597,3.9626,3.9322,3.9474,3.9292,3.8722,3.7939,3.7364,3.7021,3.6569,3.6118,3.5814,3.5864,3.5729,3.5628,3.5628,3.5628,3.5628,3.5577,3.4968,3.4489,3.4286,3.3987,3.3423,3.2865,3.2188,3.1546,3.1309,3.1241,3.119,3.1075,3.0975,3.0838,3.0699,3.0794,3.0479,3.024,3.0005,2.9757,2.943,2.9002,2.8131,2.6844,2.628,2.6041,2.5736,2.5394,2.5513,4.7309,4.7309,4.7309,4.7309,4.7309,4.7309,4.7309,4.7062,4.5987,4.4233,4.2193,4.2168,4.2436,4.3266,4.4909,4.6018,4.6277,4.6909,4.7186,4.7309,4.7309,4.7309,4.7309,4.7309,4.7309,4.7309,4.7309,4.7309,4.7309,4.7309,4.7264,4.713,4.6794,4.5852,4.4706,4.3584,4.315,4.3166,4.3009,4.2914,4.3216,4.3011,4.2524,4.2924,4.2411,4.251,4.2382,4.2126,4.1801,4.1707,4.1554,4.0926,4.0406,4.0105,4.0129,3.983,3.9718,4.01,3.9786,3.9348,3.872,3.9259,3.9633,3.9927,4.0113,4.0113,3.9943,3.9994,4.0032,4.0015,3.9931,3.9508,3.9,3.821,3.8103,3.7765,3.7144,3.6659,3.6321,3.6113,3.5898,3.5616,3.5628,3.5594,3.5374,3.5425,3.5289,3.4827,3.4506,3.4167,3.3677,3.3136,3.2567,3.1952,3.1393,3.1292,3.119,3.1181,3.1085,3.1131,3.1085,3.1207,3.119,3.0831,3.071,3.083,3.0352,2.9559,2.8422,2.7179,2.672,2.629,2.6204,2.5921,2.6288,4.7309,4.7309,4.7309,4.7309,4.7309,4.7309,4.7309,4.7127,4.5936,4.4512,4.3218,4.3266,4.4046,4.5101,4.6336,4.6887,4.6975,4.7186,4.7309,4.7309,4.7309,4.7309,4.7309,4.7309,4.7309,4.7309,4.7309,4.7309,4.7309,4.7309,4.7309,4.7189,4.689,4.6292,4.514,4.3364,4.2791,4.3187,4.3067,4.3149,4.3586,4.406,4.3994,4.3945,4.3508,4.3663,4.3799,4.3045,4.2781,4.3038,4.307,4.2415,4.1446,4.1769,4.1414,4.0286,4.0155,4.0163,4.0058,4.0007,3.9914,3.9863,4.0045,4.007,4.0113,4.0113,4.0113,4.0113,4.0096,3.9779,3.9626,3.9525,3.9085,3.8836,3.873,3.8408,3.7804,3.7229,3.6891,3.6468,3.5983,3.5633,3.5616,3.5543,3.5205,3.5182,3.5357,3.5199,3.4844,3.4398,3.3947,3.3474,3.2933,3.2188,3.1623,3.1309,3.119,3.119,3.1224,3.1275,3.1285,3.1285,3.1268,3.1217,3.1106,3.0997,3.0506,2.9912,2.8725,2.76,2.68,2.6381,2.6357,2.6667,2.7201,4.7309,4.7309,4.7309,4.7309,4.7309,4.7309,4.7287,4.7062,4.5891,4.421,4.2954,4.3858,4.4909,4.5734,4.6616,4.7309,4.7309,4.7309,4.7309,4.7309,4.7309,4.7309,4.7309,4.7309,4.7309,4.7309,4.7309,4.7309,4.7309,4.7309,4.7309,4.7204,4.6441,4.5783,4.502,4.3883,4.3381,4.4136,4.4416,4.4799,4.5739,4.5879,4.5972,4.6024,4.5246,4.4985,4.5156,4.4085,4.3862,4.406,4.4042,4.3496,4.2635,4.2844,4.2219,4.1136,4.0777,4.0574,4.0286,4.007,4.0083,4.0113,4.0113,4.0113,4.0113,4.0113,4.0113,4.0113,4.0113,3.988,3.9926,3.9926,3.966,3.9542,3.9356,3.8983,3.8447,3.7889,3.7432,3.6919,3.6434,3.5949,3.5763,3.5645,3.534,3.5273,3.5475,3.5526,3.5256,3.4742,3.4252,3.3823,3.3264,3.2479,3.1887,3.1657,3.1742,3.1928,3.1708,3.1454,3.1437,3.153,3.1344,3.1305,3.1205,3.1038,3.0412,2.9753,2.8991,2.8064,2.7508,2.7461,2.7843,2.8172,2.8577,4.7309,4.7309,4.7309,4.7309,4.7309,4.7309,4.6873,4.5995,4.507,4.374,4.3002,4.4503,4.5711,4.6188,4.6829,4.7309,4.7309,4.7309,4.7309,4.7309,4.7309,4.7309,4.7309,4.7309,4.7309,4.7309,4.7309,4.7309,4.7309,4.7309,4.7145,4.6636,4.5669,4.5367,4.479,4.4095,4.3518,4.4325,4.4898,4.5555,4.6586,4.7256,4.7609,4.7442,4.6935,4.6386,4.5976,4.5447,4.4838,4.4702,4.4465,4.4076,4.3436,4.2895,4.2273,4.1305,4.0764,4.0523,4.0202,4.0113,4.0113,4.0113,4.0113,4.0113,4.0113,4.0113,4.0113,4.0113,4.0113,4.0096,4.0079,4.0113,4.0058,3.9922,3.9787,3.9385,3.9236,3.8689,3.8231,3.7689,3.687,3.6389,3.5814,3.5712,3.5543,3.556,3.5611,3.5628,3.556,3.4979,3.4506,3.4178,3.3596,3.2822,3.2303,3.2063,3.2232,3.2615,3.2449,3.2175,3.1995,3.2125,3.1762,3.139,3.1271,3.0976,3.0226,2.954,2.9084,2.883,2.8624,2.88,2.9328,2.9448,2.9491,4.7309,4.7309,4.7309,4.7266,4.7186,4.6829,4.5516,4.3561,4.3632,4.3598,4.3561,4.4886,4.6107,4.7077,4.7309,4.7309,4.7309,4.7309,4.7309,4.7309,4.7309,4.7309,4.7309,4.7309,4.7309,4.7309,4.7309,4.7309,4.7309,4.7115,4.6794,4.6136,4.5059,4.4981,4.4637,4.4181,4.4002,4.506,4.5671,4.6336,4.7254,4.8158,4.8298,4.8124,4.7701,4.7175,4.6633,4.5957,4.5261,4.4871,4.455,4.3704,4.2993,4.2435,4.1471,4.0709,4.0405,4.0269,4.0117,4.0113,4.0113,4.0113,4.0113,4.0113,4.0113,4.0113,4.0113,4.0113,4.0113,4.0113,4.0113,4.0121,4.0146,4.0112,4.0083,3.9985,3.9966,3.9617,3.9193,3.8491,3.7489,3.6729,3.5881,3.5628,3.5667,3.5628,3.5628,3.5628,3.5459,3.4928,3.4573,3.4556,3.3935,3.3147,3.2822,3.2896,3.3276,3.3817,3.3566,3.3306,3.3071,3.267,3.2242,3.1832,3.1429,3.098,3.049,2.9997,2.949,2.9321,2.9185,2.8949,2.911,2.9644,2.983,4.7309,4.7309,4.7309,4.6785,4.5734,4.4022,4.2786,4.2363,4.3915,4.4419,4.3608,4.5801,4.6873,4.7273,4.7309,4.7309,4.7309,4.7309,4.7309,4.7309,4.7309,4.7309,4.7309,4.7309,4.7309,4.7309,4.7309,4.7294,4.7174,4.6935,4.631,4.5493,4.4925,4.4913,4.4852,4.4459,4.543,4.6201,4.666,4.7227,4.7825,4.8695,4.8781,4.8612,4.8174,4.7633,4.6921,4.6177,4.5432,4.4804,4.4618,4.4144,4.4124,4.3873,4.3281,4.186,4.1251,4.0709,4.0218,4.0113,4.0113,4.0113,4.0113,4.0113,4.0113,4.0113,4.0113,4.0113,4.0108,4.0108,4.0204,4.0266,4.0441,4.0594,4.0558,4.0492,4.0496,4.049,4.0013,3.9135,3.8108,3.7127,3.6249,3.5723,3.575,3.5667,3.5633,3.5678,3.5576,3.5111,3.4946,3.4973,3.4605,3.3935,3.4073,3.4212,3.4602,3.4931,3.4731,3.4452,3.4105,3.3633,3.2859,3.2214,3.1659,3.1326,3.1014,3.0487,2.9963,2.9659,2.949,2.9127,2.8967,2.9593,3.01,4.7309,4.7229,4.6726,4.5539,4.3882,4.2786,4.2133,4.207,4.3787,4.4349,4.4549,4.6381,4.7309,4.7309,4.7309,4.7309,4.7309,4.7309,4.7309,4.7309,4.7309,4.7309,4.7309,4.7309,4.7309,4.7309,4.7309,4.7309,4.7162,4.679,4.6198,4.5946,4.5277,4.5457,4.5783,4.6104,4.6765,4.7423,4.795,4.8274,4.8641,4.9018,4.9018,4.8917,4.8445,4.7921,4.7208,4.6464,4.5754,4.5041,4.4871,4.4381,4.4144,4.3789,4.3196,4.183,4.139,4.076,4.0252,4.0113,4.0113,4.0113,4.0113,4.0113,4.0113,4.0113,4.0113,4.0113,4.0121,4.0154,4.0311,4.049,4.0856,4.1189,4.1082,4.0972,4.1082,4.1235,4.0587,3.9713,3.874,3.7722,3.6939,3.632,3.593,3.5996,3.6,3.6011,3.5998,3.5797,3.5704,3.5766,3.5386,3.4895,3.5186,3.5478,3.5702,3.5991,3.6067,3.5753,3.5261,3.441,3.3512,3.2632,3.1786,3.155,3.1382,3.0971,3.0514,3.0232,3.0066,2.9909,2.973,2.9837,3.0294,4.7229,4.6997,4.5779,4.4046,4.2133,4.2978,4.2906,4.207,4.3409,4.4303,4.5448,4.6704,4.7309,4.7309,4.7309,4.7309,4.7309,4.7309,4.7309,4.7309,4.7309,4.7309,4.7309,4.7309,4.7309,4.7309,4.7307,4.7319,4.7232,4.6895,4.6632,4.6683,4.6234,4.6325,4.7002,4.7138,4.7655,4.837,4.8338,4.8305,4.8783,4.9018,4.9018,4.9018,4.8832,4.8529,4.7768,4.709,4.6428,4.5667,4.4973,4.4245,4.3758,4.3281,4.2486,4.1965,4.1783,4.1153,4.0658,4.0388,4.0202,4.0151,4.0113,4.0113,4.0113,4.0113,4.0113,4.0323,4.0405,4.0648,4.0844,4.1001,4.1302,4.1567,4.1606,4.1628,4.1768,4.1768,4.1317,4.0476,3.9658,3.8628,3.7547,3.6924,3.646,3.645,3.645,3.645,3.6494,3.6435,3.648,3.6539,3.62,3.5982,3.6429,3.6664,3.6737,3.6942,3.713,3.6594,3.5786,3.496,3.4126,3.3098,3.21,3.195,3.1728,3.1359,3.1099,3.0944,3.0813,3.0785,3.0685,3.05,3.0497,4.6741,4.5734,4.4503,4.3551,4.3109,4.3361,4.3929,4.4503,4.478,4.5138,4.5621,4.666,4.7309,4.7309,4.7309,4.7309,4.7309,4.7309,4.7309,4.7309,4.7309,4.7309,4.7309,4.7309,4.7309,4.7309,4.7321,4.7298,4.7308,4.7024,4.6841,4.7009,4.6717,4.6969,4.7671,4.7754,4.8177,4.8924,4.8798,4.8592,4.8924,4.9018,4.9018,4.9018,4.8917,4.8376,4.7648,4.7005,4.6039,4.5089,4.4784,4.4482,4.4299,4.4093,4.3636,4.3051,4.2665,4.2002,4.1292,4.0882,4.0726,4.0299,4.0176,4.013,4.0113,4.0113,4.0254,4.0546,4.0844,4.1139,4.1413,4.1578,4.1771,4.1979,4.2162,4.2322,4.2452,4.2238,4.1988,4.1287,4.0524,3.9494,3.8364,3.7606,3.7172,3.7001,3.7001,3.7039,3.7208,3.7238,3.7266,3.7273,3.7086,3.7036,3.748,3.7647,3.76,3.7798,3.7998,3.7272,3.6294,3.5137,3.404,3.3244,3.2516,3.2358,3.2161,3.188,3.1652,3.1549,3.1505,3.1446,3.1367,3.1211,3.1079,4.6572,4.5289,4.4008,4.349,4.3598,4.4093,4.4757,4.5426,4.5995,4.6233,4.6299,4.6953,4.7309,4.7309,4.7309,4.7309,4.7309,4.7309,4.7309,4.7309,4.7309,4.7309,4.7309,4.7309,4.7309,4.7279,4.6984,4.6921,4.7214,4.7248,4.7133,4.763,4.7479,4.7622,4.8193,4.8274,4.8434,4.8987,4.9018,4.9018,4.9018,4.9018,4.9018,4.9018,4.8815,4.8342,4.8088,4.7496,4.6633,4.5616,4.5072,4.4649,4.4516,4.4465,4.4096,4.3575,4.3186,4.2899,4.2053,4.1585,4.134,4.0854,4.0883,4.1075,4.0642,4.066,4.0779,4.1047,4.1257,4.1556,4.1979,4.2223,4.2531,4.2761,4.2847,4.2958,4.3014,4.2941,4.2514,4.1886,4.1104,4.0261,3.9146,3.8044,3.7694,3.764,3.7622,3.7694,3.7855,3.8087,3.8112,3.8004,3.7792,3.7826,3.8124,3.8247,3.8287,3.8536,3.8699,3.7697,3.6512,3.513,3.3935,3.3567,3.3152,3.2785,3.2565,3.2569,3.2292,3.2133,3.2099,3.2074,3.2012,3.1922,3.168,4.6277,4.507,4.4139,4.375,4.3952,4.5115,4.5666,4.5861,4.6785,4.7251,4.7186,4.7244,4.7309,4.7309,4.7309,4.7309,4.7309,4.7309,4.7309,4.7309,4.7309,4.7309,4.7309,4.7309,4.7204,4.7079,4.6867,4.6819,4.6932,4.7262,4.7881,4.8563,4.8838,4.8986,4.9018,4.8986,4.9018,4.9018,4.9018,4.9018,4.9018,4.9018,4.9018,4.9018,4.9001,4.8951,4.8665,4.8107,4.7378,4.6599,4.5514,4.4953,4.4618,4.4567,4.4296,4.3859,4.3758,4.3267,4.2634,4.2404,4.1958,4.1644,4.1945,4.1806,4.1301,4.1324,4.1435,4.1589,4.1803,4.2083,4.2511,4.2827,4.3142,4.3322,4.3375,4.3418,4.3436,4.3471,4.2968,4.2399,4.1639,4.0834,3.9926,3.881,3.8299,3.8258,3.8376,3.8421,3.8554,3.8862,3.9036,3.8787,3.8493,3.8611,3.8679,3.8619,3.8578,3.8627,3.8571,3.7716,3.6765,3.5443,3.4596,3.4402,3.3993,3.3638,3.3612,3.3685,3.333,3.3114,3.2987,3.3043,3.2818,3.2674,3.2257,4.5024,4.3929,4.4665,4.501,4.5244,4.6381,4.6916,4.6975,4.7142,4.7309,4.7309,4.7309,4.7309,4.7309,4.7309,4.7309,4.7309,4.7309,4.7309,4.7309,4.7309,4.7309,4.7309,4.7294,4.6929,4.6795,4.6848,4.7231,4.7002,4.7726,4.848,4.8878,4.8922,4.9018,4.9018,4.9018,4.9018,4.9018,4.9018,4.9018,4.9018,4.9018,4.9018,4.9018,4.9001,4.8629,4.8107,4.7394,4.7022,4.6549,4.5906,4.5176,4.4787,4.4584,4.4398,4.4284,4.4169,4.381,4.3361,4.3096,4.2621,4.2058,4.2189,4.2057,4.1885,4.2155,4.2264,4.2354,4.256,4.2734,4.3069,4.3187,4.3427,4.3427,4.3462,4.3462,4.347,4.347,4.3287,4.2663,4.1994,4.1362,4.0761,3.9668,3.8663,3.8788,3.928,3.9299,3.91,3.9493,3.9871,3.9412,3.8982,3.8828,3.8692,3.8684,3.8658,3.8692,3.856,3.7936,3.7074,3.5855,3.5192,3.5141,3.494,3.4641,3.4682,3.4744,3.4989,3.4801,3.4308,3.4067,3.3816,3.3409,3.299]}]]